ftp/pub/palmer/observations_modified/2019/October/original_files/AR191028_BASE.txt
Download
Sample DateTime Unit Id WS Avg 2min WD Avg 2min WGS 10min WGD 10min Air Temp Rel Humidity Dew Point Pyranometer Quantum Air Pressure Snow Level Rainfall PW Current Visibility CBase 1 CBase 2 CBase 3 Vert Vis
2019/10/28 00:00:00 BASE 5.49 243 7.61 250 -0.3 100 -0.3 1 0 973.5 NA 0.0000 9999 460 0 0 0
2019/10/28 00:01:00 BASE 5.40 242 7.61 250 -0.3 100 -0.3 1 0 973.5 NA 0.0000 9999 430 0 0 0
2019/10/28 00:02:00 BASE 5.03 242 7.61 250 -0.3 100 -0.3 1 0 973.5 NA 0.0000 9999 330 0 0 0
2019/10/28 00:03:00 BASE 4.83 243 7.61 250 -0.3 100 -0.3 1 0 973.5 NA 0.0000 9999 390 0 0 0
2019/10/28 00:04:00 BASE 4.49 240 7.51 244 -0.3 100 -0.3 1 0 973.5 NA 0.0000 9999 460 0 0 0
2019/10/28 00:05:00 BASE 4.38 236 6.89 239 -0.3 100 -0.3 1 0 973.5 NA 0.0000 9999 430 0 0 0
2019/10/28 00:06:00 BASE 4.31 237 6.89 239 -0.3 100 -0.3 1 0 973.5 NA 0.0000 9999 360 0 0 0
2019/10/28 00:07:00 BASE 4.08 238 6.89 239 -0.4 100 -0.4 1 0 973.4 NA 0.0000 9999 460 0 0 0
2019/10/28 00:08:00 BASE 3.94 240 6.89 239 -0.4 100 -0.4 1 0 973.4 NA 0.0000 9999 430 0 0 0
2019/10/28 00:09:00 BASE 4.26 240 6.89 239 -0.4 100 -0.4 1 0 973.4 NA 0.0000 9999 430 0 0 0
2019/10/28 00:10:00 BASE 4.26 239 5.81 246 -0.4 100 -0.4 1 0 973.4 NA 0.0000 9999 490 0 0 0
2019/10/28 00:11:00 BASE 4.16 239 5.71 239 -0.4 100 -0.4 1 0 973.3 NA 0.0000 9999 430 0 0 0
2019/10/28 00:12:00 BASE 4.30 238 5.04 247 -0.4 100 -0.4 1 0 973.3 NA 0.0000 9999 330 0 0 0
2019/10/28 00:13:00 BASE 4.23 238 4.99 230 -0.4 100 -0.4 1 0 973.3 NA 0.0000 9999 460 0 0 0
2019/10/28 00:14:00 BASE 4.13 236 5.14 237 -0.4 100 -0.4 1 0 973.3 NA 0.0000 9999 390 0 0 0
2019/10/28 00:15:00 BASE 3.76 232 5.14 237 -0.4 100 -0.4 1 0 973.3 NA 0.0000 9999 360 0 0 0
2019/10/28 00:16:00 BASE 3.42 227 5.14 237 -0.4 100 -0.4 1 0 973.3 NA 0.0000 9999 390 0 0 0
2019/10/28 00:17:00 BASE 3.76 225 5.14 237 -0.5 100 -0.5 1 0 973.3 NA 0.0000 9999 460 0 0 0
2019/10/28 00:18:00 BASE 4.08 225 5.14 237 -0.5 100 -0.5 0 0 973.3 NA 0.0000 9999 430 0 0 0
2019/10/28 00:19:00 BASE 3.91 225 5.14 237 -0.5 100 -0.5 0 0 973.2 NA 0.0000 9999 430 0 0 0
2019/10/28 00:20:00 BASE 3.57 225 5.14 237 -0.5 100 -0.5 0 0 973.2 NA 0.0000 9999 390 0 0 0
2019/10/28 00:21:00 BASE 3.09 224 5.14 237 -0.5 100 -0.5 0 0 973.2 NA 0.0000 9999 490 0 0 0
2019/10/28 00:22:00 BASE 2.78 220 5.14 237 -0.5 100 -0.5 0 0 973.2 NA 0.0000 9999 430 0 0 0
2019/10/28 00:23:00 BASE 2.54 218 5.14 237 -0.5 100 -0.5 0 0 973.2 NA 0.0000 9999 360 0 0 0
2019/10/28 00:24:00 BASE 2.74 214 4.58 230 -0.6 100 -0.6 0 0 973.3 NA 0.0000 9999 360 0 0 0
2019/10/28 00:25:00 BASE 3.23 215 4.78 217 -0.6 100 -0.6 0 0 973.3 NA 0.0000 9999 460 0 0 0
2019/10/28 00:26:00 BASE 3.35 217 4.78 217 -0.6 100 -0.6 0 0 973.3 NA 0.0000 9999 460 0 0 0
2019/10/28 00:27:01 BASE 2.87 207 4.78 217 -0.6 100 -0.6 0 0 973.3 NA 0.0000 9999 460 0 0 0
2019/10/28 00:28:00 BASE 2.52 201 4.78 217 -0.5 100 -0.5 0 0 973.3 NA 0.0000 9999 490 0 0 0
2019/10/28 00:29:00 BASE 2.54 204 4.78 217 -0.5 100 -0.5 0 0 973.3 NA 0.0000 9999 490 0 0 0
2019/10/28 00:30:00 BASE 2.65 207 4.78 217 -0.5 100 -0.5 0 0 973.3 NA 0.0000 9999 520 0 0 0
2019/10/28 00:31:00 BASE 2.52 208 4.78 217 -0.5 100 -0.5 0 0 973.3 NA 0.0000 9999 430 0 0 0
2019/10/28 00:32:00 BASE 2.15 202 4.78 217 -0.5 100 -0.5 0 0 973.3 NA 0.0000 9999 430 0 0 0
2019/10/28 00:33:00 BASE 2.10 196 4.78 217 -0.5 100 -0.5 0 0 973.3 NA 0.0000 9999 520 0 0 0
2019/10/28 00:34:00 BASE 2.21 198 4.78 217 -0.5 100 -0.5 0 0 973.3 NA 0.0000 9999 460 0 0 0
2019/10/28 00:35:00 BASE 2.38 198 3.81 215 -0.5 100 -0.5 0 0 973.3 NA 0.0000 9999 520 0 0 0
2019/10/28 00:36:00 BASE 2.49 194 3.34 212 -0.5 100 -0.5 0 0 973.3 NA 0.0000 9999 490 0 0 0
2019/10/28 00:37:00 BASE 2.55 194 3.34 212 -0.5 100 -0.5 0 0 973.3 NA 0.0000 9999 520 0 0 0
2019/10/28 00:38:00 BASE 2.44 197 3.34 212 -0.5 100 -0.5 0 0 973.3 NA 0.0000 9999 430 0 0 0
2019/10/28 00:39:00 BASE 2.68 198 3.55 200 -0.5 100 -0.5 0 0 973.3 NA 0.0000 9999 430 0 0 0
2019/10/28 00:40:00 BASE 3.05 202 3.55 200 -0.5 100 -0.5 0 0 973.3 NA 0.0000 9999 390 0 0 0
2019/10/28 00:41:00 BASE 3.16 203 3.65 200 -0.6 100 -0.6 0 0 973.3 NA 0.0000 9999 330 0 0 0
2019/10/28 00:42:00 BASE 3.12 203 3.65 200 -0.6 100 -0.6 0 0 973.2 NA 0.0000 9999 330 0 0 0
2019/10/28 00:43:00 BASE 3.08 203 3.65 200 -0.6 100 -0.6 0 0 973.2 NA 0.0000 9999 300 0 0 0
2019/10/28 00:44:01 BASE 3.17 198 3.65 200 -0.6 100 -0.6 0 0 973.2 NA 0.0000 9999 330 0 0 0
2019/10/28 00:45:01 BASE 3.16 198 3.65 200 -0.6 100 -0.6 0 0 973.2 NA 0.0000 9999 330 0 0 0
2019/10/28 00:46:01 BASE 3.19 201 3.65 200 -0.6 100 -0.6 0 0 973.2 NA 0.0000 9999 360 0 0 0
2019/10/28 00:47:01 BASE 3.43 201 3.76 202 -0.6 100 -0.6 0 0 973.1 NA 0.0000 9999 300 0 0 0
2019/10/28 00:48:01 BASE 3.51 199 3.76 199 -0.6 100 -0.6 0 0 973.0 NA 0.0000 9999 300 0 0 0
2019/10/28 00:49:01 BASE 3.39 199 3.76 199 -0.6 100 -0.6 0 0 973.0 NA 0.0000 9999 330 0 0 0
2019/10/28 00:50:01 BASE 3.05 201 3.76 199 -0.6 100 -0.6 0 0 973.0 NA 0.0000 9999 260 0 0 0
2019/10/28 00:51:01 BASE 2.63 201 3.76 199 -0.6 100 -0.6 0 0 973.0 NA 0.0000 9000 230 0 0 0
2019/10/28 00:52:01 BASE 2.57 199 3.76 199 -0.6 100 -0.6 0 0 973.0 NA 0.0000 8000 230 0 0 0
2019/10/28 00:53:01 BASE 2.59 202 3.76 199 -0.6 100 -0.6 0 0 973.0 NA 0.0000 7000 230 0 0 0
2019/10/28 00:54:01 BASE 2.06 197 3.76 199 -0.6 100 -0.6 0 0 973.0 NA 0.0000 7000 230 0 0 0
2019/10/28 00:55:01 BASE 1.65 190 3.76 199 -0.6 100 -0.6 0 0 973.0 NA 0.0000 BR 6000 200 0 0 0
2019/10/28 00:56:01 BASE 1.81 199 3.76 199 -0.6 100 -0.6 0 0 972.9 NA 0.0000 BR 6000 230 0 0 0
2019/10/28 00:57:01 BASE 1.70 205 3.76 199 -0.6 100 -0.6 0 0 972.9 NA 0.0000 BR 5000 230 0 0 0
2019/10/28 00:58:01 BASE 1.57 198 3.60 201 -0.6 100 -0.6 0 0 972.9 NA 0.0000 BR 5000 200 0 0 0
2019/10/28 00:59:01 BASE 1.53 192 3.45 211 -0.6 100 -0.6 0 0 972.9 NA 0.0000 BR 5000 0 0 0 620
2019/10/28 01:00:01 BASE 1.14 186 3.09 206 -0.6 100 -0.6 0 0 972.9 NA 0.0000 BR 5000 200 0 0 0
2019/10/28 01:01:01 BASE 0.48 174 2.93 196 -0.6 100 -0.6 0 0 972.9 NA 0.0000 BR 5000 230 0 0 0
2019/10/28 01:02:01 BASE 0.09 170 2.93 196 -0.6 100 -0.6 0 0 972.9 NA 0.0000 BR 5000 200 0 0 0
2019/10/28 01:03:01 BASE 0.09 167 2.52 198 -0.6 100 -0.6 0 0 972.9 NA 0.0000 BR 5000 200 0 0 0
2019/10/28 01:04:01 BASE 0.09 159 2.52 198 -0.6 100 -0.6 0 0 972.9 NA 0.0000 BR 4900 0 0 0 620
2019/10/28 01:05:01 BASE 0.00 155 2.52 198 -0.6 100 -0.6 0 0 972.9 NA 0.0000 BR 4800 0 0 0 620
2019/10/28 01:06:01 BASE 0.00 154 1.95 203 -0.6 100 -0.6 0 0 972.9 NA 0.0000 BR 4600 0 0 0 620
2019/10/28 01:07:01 BASE 0.00 166 1.95 203 -0.6 100 -0.6 0 0 972.9 NA 0.0000 BR 4700 0 0 0 620
2019/10/28 01:08:01 BASE 0.00 166 1.90 200 -0.6 100 -0.6 0 0 972.8 NA 0.0000 BR 4700 0 0 0 620
2019/10/28 01:09:01 BASE 0.00 155 1.75 200 -0.6 100 -0.6 0 0 972.8 NA 0.0000 BR 5000 0 0 0 660
2019/10/28 01:10:01 BASE 0.00 147 1.08 137 -0.6 100 -0.6 0 0 972.8 NA 0.0000 BR 5000 0 0 0 620
2019/10/28 01:11:01 BASE 0.00 139 1.08 137 -0.6 100 -0.6 0 0 972.7 NA 0.0000 BR 5000 0 0 0 660
2019/10/28 01:12:01 BASE 0.00 119 1.08 137 -0.6 100 -0.6 0 0 972.7 NA 0.0000 BR 4700 0 0 0 620
2019/10/28 01:13:01 BASE 0.00 102 M M -0.6 100 -0.6 0 0 972.7 NA 0.0000 BR 4600 0 0 0 620
2019/10/28 01:14:01 BASE 0.00 98 M M -0.6 100 -0.6 0 0 972.7 NA 0.0000 BR 4400 0 0 0 620
2019/10/28 01:15:01 BASE 0.00 95 M M -0.6 100 -0.6 0 0 972.7 NA 0.0000 BR 4200 0 0 0 620
2019/10/28 01:16:01 BASE 0.04 94 1.03 87 -0.6 100 -0.6 0 0 972.6 NA 0.0000 BR 3900 0 0 0 620
2019/10/28 01:17:01 BASE 0.57 91 1.34 92 -0.6 100 -0.6 0 0 972.6 NA 0.0000 BR 4000 0 0 0 620
2019/10/28 01:18:01 BASE 1.17 90 1.49 93 -0.6 100 -0.6 0 0 972.6 NA 0.0000 BR 4100 0 0 0 620
2019/10/28 01:19:01 BASE 1.45 90 1.75 91 -0.6 100 -0.6 0 0 972.6 NA 0.0000 BR 4100 0 0 0 620
2019/10/28 01:20:01 BASE 1.53 93 1.75 82 -0.6 100 -0.6 0 0 972.6 NA 0.0000 BR 4100 0 0 0 620
2019/10/28 01:21:01 BASE 1.55 93 1.85 91 -0.6 100 -0.6 0 0 972.6 NA 0.0000 BR 3900 0 0 0 620
2019/10/28 01:22:01 BASE 1.73 91 1.95 90 -0.6 100 -0.6 0 0 972.6 NA 0.0000 BR 3600 0 0 0 620
2019/10/28 01:23:01 BASE 1.86 92 2.06 93 -0.6 100 -0.6 0 0 972.5 NA 0.0000 BR 3500 0 0 0 660
2019/10/28 01:24:01 BASE 1.77 91 2.06 93 -0.5 100 -0.5 0 0 972.5 NA 0.0000 BR 3600 0 0 0 660
2019/10/28 01:25:01 BASE 1.67 86 2.06 93 -0.5 100 -0.5 0 0 972.4 NA 0.0000 BR 3300 0 0 0 690
2019/10/28 01:26:01 BASE 1.39 76 2.06 93 -0.5 100 -0.5 0 0 972.4 NA 0.0000 BR 2800 0 0 0 690
2019/10/28 01:27:01 BASE 1.41 72 2.06 68 -0.5 100 -0.5 0 0 972.4 NA 0.0000 BR 2700 0 0 0 660
2019/10/28 01:28:01 BASE 1.88 77 2.47 72 -0.5 100 -0.5 0 0 972.4 NA 0.0000 BR 2700 0 0 0 720
2019/10/28 01:29:01 BASE 2.01 73 2.47 72 -0.5 100 -0.5 0 0 972.4 NA 0.0000 BR 2300 0 0 0 850
2019/10/28 01:30:01 BASE 2.01 65 2.47 72 -0.5 100 -0.5 0 0 972.4 NA 0.0000 BR 2000 0 0 0 950
2019/10/28 01:31:01 BASE 2.24 58 2.62 51 -0.6 100 -0.6 0 0 972.4 NA 0.0000 BR 2000 0 0 0 980
2019/10/28 01:32:01 BASE 2.51 53 2.88 51 -0.6 100 -0.6 0 0 972.4 NA 0.0000 BR 1700 0 0 0 950
2019/10/28 01:33:01 BASE 2.65 54 2.88 58 -0.6 100 -0.6 0 0 972.4 NA 0.0000 BR 1300 0 0 0 950
2019/10/28 01:34:01 BASE 2.75 59 2.88 60 -0.6 100 -0.6 0 0 972.4 NA 0.0000 BR 1300 0 0 0 950
2019/10/28 01:35:01 BASE 2.79 61 2.88 63 -0.6 100 -0.6 0 0 972.4 NA 0.0000 BR 1800 0 0 0 980
2019/10/28 01:36:01 BASE 2.84 61 3.09 60 -0.6 100 -0.6 0 0 972.4 NA 0.0000 BR 1800 0 0 0 1020
2019/10/28 01:37:01 BASE 2.79 60 3.09 60 -0.6 100 -0.6 0 0 972.4 NA 0.0000 BR 1900 0 0 0 890
2019/10/28 01:38:01 BASE 2.72 59 3.09 60 -0.6 100 -0.6 0 0 972.4 NA 0.0000 BR 1900 0 0 0 890
2019/10/28 01:39:01 BASE 2.73 58 3.09 60 -0.5 100 -0.5 0 0 972.4 NA 0.0000 BR 1600 0 0 0 980
2019/10/28 01:40:01 BASE 2.82 55 3.09 53 -0.5 100 -0.5 0 0 972.4 NA 0.0000 BR 1700 0 0 0 980
2019/10/28 01:41:01 BASE 2.90 50 3.09 51 -0.5 100 -0.5 0 0 972.4 NA 0.0000 BR 1800 0 0 0 980
2019/10/28 01:42:01 BASE 2.90 48 3.09 51 -0.5 100 -0.5 0 0 972.3 NA 0.0000 BR 1600 0 0 0 980
2019/10/28 01:43:01 BASE 2.88 50 3.09 51 -0.5 100 -0.5 0 0 972.3 NA 0.0000 BR 1700 0 0 0 1020
2019/10/28 01:44:01 BASE 2.80 52 3.09 51 -0.5 100 -0.5 0 0 972.3 NA 0.0000 BR 1500 0 0 0 1080
2019/10/28 01:45:01 BASE 2.83 53 3.09 54 -0.5 100 -0.5 0 0 972.3 NA 0.0000 BR 1400 620 0 0 0
2019/10/28 01:46:01 BASE 2.98 56 3.19 61 -0.5 100 -0.5 0 0 972.3 NA 0.0000 BR 1300 620 0 0 0
2019/10/28 01:47:01 BASE 3.13 58 3.40 54 -0.5 100 -0.5 0 0 972.3 NA 0.0000 BR 1400 620 0 0 0
2019/10/28 01:48:01 BASE 3.28 55 3.65 54 -0.5 100 -0.5 0 0 972.3 NA 0.0000 BR 1300 660 0 0 0
2019/10/28 01:49:01 BASE 3.30 54 3.65 54 -0.4 100 -0.4 0 0 972.3 NA 0.0000 BR 1300 660 0 0 0
2019/10/28 01:50:01 BASE 3.25 54 3.65 54 -0.4 100 -0.4 0 0 972.3 NA 0.0000 BR 1400 690 0 0 0
2019/10/28 01:51:00 BASE 3.26 52 3.65 54 -0.4 100 -0.4 0 0 972.3 NA 0.0000 BR 1300 690 0 0 0
2019/10/28 01:52:01 BASE 3.15 51 3.65 54 -0.4 100 -0.4 0 0 972.3 NA 0.0000 BR 1200 720 0 0 0
2019/10/28 01:53:01 BASE 3.09 52 3.65 54 -0.4 100 -0.4 0 0 972.3 NA 0.0000 BR 1300 720 0 0 0
2019/10/28 01:54:01 BASE 3.06 52 3.65 54 -0.4 100 -0.4 0 0 972.3 NA 0.0000 BR 1300 720 0 0 0
2019/10/28 01:55:01 BASE 3.07 52 3.65 54 -0.4 100 -0.4 0 0 972.3 NA 0.0000 BR 1400 750 0 0 0
2019/10/28 01:56:01 BASE 3.27 55 3.65 54 -0.4 100 -0.4 0 0 972.3 NA 0.0000 BR 1600 720 0 0 0
2019/10/28 01:57:00 BASE 3.42 60 3.65 54 -0.4 100 -0.4 0 0 972.3 NA 0.0000 BR 2000 660 0 0 0
2019/10/28 01:58:01 BASE 3.42 61 3.55 60 -0.4 100 -0.4 0 0 972.3 NA 0.0000 BR 2500 620 0 0 0
2019/10/28 01:59:00 BASE 3.35 60 3.55 60 -0.4 100 -0.4 0 0 972.3 NA 0.0000 BR 3600 660 0 0 0
2019/10/28 02:00:01 BASE 3.19 56 3.55 60 -0.4 100 -0.4 0 0 972.2 NA 0.0000 BR 4000 660 0 0 0
2019/10/28 02:01:00 BASE 3.02 53 3.55 60 -0.4 100 -0.4 0 0 972.2 NA 0.0000 BR 4800 660 0 0 0
2019/10/28 02:02:00 BASE 2.83 51 3.55 60 -0.4 100 -0.4 0 0 972.2 NA 0.0000 BR 5000 690 0 0 0
2019/10/28 02:03:00 BASE 2.66 50 3.55 60 -0.4 100 -0.4 0 0 972.2 NA 0.0000 BR 8000 690 0 0 0
2019/10/28 02:04:01 BASE 2.60 50 3.55 60 -0.4 100 -0.4 0 0 972.2 NA 0.0000 BR 9999 620 0 0 0
2019/10/28 02:05:01 BASE 2.63 51 3.55 60 -0.4 100 -0.4 0 0 972.2 NA 0.0000 BR 9999 590 0 0 0
2019/10/28 02:06:00 BASE 2.74 52 3.50 62 -0.4 100 -0.4 0 0 972.2 NA 0.0000 BR 9999 620 0 0 0
2019/10/28 02:07:00 BASE 2.73 50 3.45 58 -0.4 100 -0.4 0 0 972.2 NA 0.0000 BR 9999 620 0 0 0
2019/10/28 02:08:00 BASE 2.46 49 3.45 58 -0.4 100 -0.4 0 0 972.2 NA 0.0000 BR 9999 660 0 0 0
2019/10/28 02:09:00 BASE 2.51 49 3.19 54 -0.4 100 -0.4 0 0 972.2 NA 0.0000 UP BR 9999 660 0 0 0
2019/10/28 02:10:00 BASE 2.67 45 3.09 54 -0.4 100 -0.4 0 0 972.2 NA 0.0000 UP BR 9999 720 0 0 0
2019/10/28 02:11:00 BASE 2.51 44 2.93 49 -0.4 100 -0.4 0 0 972.2 NA 0.0000 UP BR 9999 720 0 0 0
2019/10/28 02:12:01 BASE 2.37 48 2.93 49 -0.3 100 -0.3 0 0 972.1 NA 0.0000 UP 9999 720 0 0 0
2019/10/28 02:13:01 BASE 2.38 50 2.93 49 -0.3 100 -0.3 0 0 972.1 NA 0.0000 UP 9999 720 0 0 0
2019/10/28 02:14:01 BASE 2.36 40 2.93 49 -0.3 100 -0.3 0 0 972.1 NA 0.0000 UP 9999 750 0 0 0
2019/10/28 02:15:01 BASE 2.15 28 2.93 49 -0.3 100 -0.3 0 0 972.1 NA 0.0000 UP 9999 690 0 0 0
2019/10/28 02:16:01 BASE 1.76 31 2.93 49 -0.3 100 -0.3 0 0 972.1 NA 0.0000 UP 9999 560 0 0 0
2019/10/28 02:17:00 BASE 1.48 32 2.93 49 -0.3 100 -0.3 0 0 972.1 NA 0.0000 UP 9999 490 0 0 0
2019/10/28 02:18:01 BASE 1.74 19 2.93 49 -0.3 100 -0.3 0 0 972.0 NA 0.0000 UP 9999 490 0 0 0
2019/10/28 02:19:00 BASE 1.97 2 2.88 53 -0.3 100 -0.3 0 0 972.0 NA 0.0000 9999 390 0 0 0
2019/10/28 02:20:00 BASE 2.16 334 3.34 286 -0.3 100 -0.3 0 0 972.0 NA 0.0000 9999 360 0 0 0
2019/10/28 02:21:00 BASE 2.51 312 4.37 345 -0.3 100 -0.3 0 0 972.0 NA 0.0000 9999 330 0 0 0
2019/10/28 02:22:01 BASE 4.40 328 6.94 344 -0.4 100 -0.4 0 0 972.0 NA 0.0000 9999 360 0 0 0
2019/10/28 02:23:00 BASE 6.21 345 7.00 342 -0.4 100 -0.4 0 0 972.0 NA 0.0000 9999 360 0 0 0
2019/10/28 02:24:01 BASE 5.82 346 7.00 342 -0.5 100 -0.5 0 0 971.9 NA 0.0000 9999 460 0 0 0
2019/10/28 02:25:00 BASE 5.46 345 7.10 349 -0.6 100 -0.6 0 0 971.8 NA 0.0000 9999 460 0 0 0
2019/10/28 02:26:00 BASE 6.11 347 7.10 352 -0.7 100 -0.7 0 0 971.8 NA 0.0000 9999 430 0 0 0
2019/10/28 02:27:00 BASE 6.58 346 7.10 352 -0.8 100 -0.8 0 0 971.8 NA 0.0000 9999 490 0 0 0
2019/10/28 02:28:01 BASE 6.04 348 7.10 352 -0.8 100 -0.8 0 0 971.8 NA 0.0000 9999 490 0 0 0
2019/10/28 02:29:00 BASE 5.75 349 7.10 352 -0.9 100 -0.9 0 0 971.8 NA 0.0000 9999 520 0 0 0
2019/10/28 02:30:00 BASE 6.12 344 7.10 352 -0.9 100 -0.9 0 0 971.8 NA 0.0000 9999 560 0 0 0
2019/10/28 02:31:00 BASE 6.43 342 7.20 341 -0.9 100 -0.9 0 0 971.8 NA 0.0000 9999 520 0 0 0
2019/10/28 02:32:00 BASE 6.35 346 7.20 341 -0.9 100 -0.9 0 0 971.8 NA 0.0000 9999 560 0 0 0
2019/10/28 02:33:00 BASE 7.02 347 8.33 347 -0.9 100 -0.9 0 0 971.7 NA 0.0000 9999 560 0 0 0
2019/10/28 02:34:00 BASE 7.20 347 8.33 347 -0.9 100 -0.9 0 0 971.7 NA 0.0000 9999 590 0 0 0
2019/10/28 02:35:00 BASE 7.15 348 8.33 347 -0.9 100 -0.9 0 0 971.7 NA 0.0000 9999 620 0 0 0
2019/10/28 02:36:00 BASE 7.93 343 8.69 339 -0.9 100 -0.9 0 0 971.7 NA 0.0000 9999 590 0 0 0
2019/10/28 02:37:00 BASE 8.18 341 8.69 339 -0.9 100 -0.9 0 0 971.7 NA 0.0000 9999 520 0 0 0
2019/10/28 02:38:00 BASE 7.86 342 8.69 339 -0.9 100 -0.9 0 0 971.7 NA 0.0000 9999 460 0 0 0
2019/10/28 02:39:00 BASE 7.39 342 8.69 339 -0.9 100 -0.9 0 0 971.7 NA 0.0000 9999 620 0 0 0
2019/10/28 02:40:00 BASE 7.38 342 8.69 341 -0.9 100 -0.9 0 0 971.7 NA 0.0000 9999 460 0 0 0
2019/10/28 02:41:00 BASE 7.81 344 9.05 349 -0.9 100 -0.9 0 0 971.7 NA 0.0000 9999 430 0 0 0
2019/10/28 02:42:00 BASE 8.38 345 9.26 346 -0.9 100 -0.9 0 0 971.7 NA 0.0000 9999 360 0 0 0
2019/10/28 02:43:00 BASE 8.15 344 9.26 346 -0.9 100 -0.9 0 0 971.7 NA 0.0000 9999 330 0 0 0
2019/10/28 02:44:00 BASE 7.69 342 9.26 346 -0.9 100 -0.9 0 0 971.7 NA 0.0000 9999 360 0 0 0
2019/10/28 02:45:00 BASE 8.05 342 9.77 349 -0.9 100 -0.9 0 0 971.7 NA 0.0000 9999 330 0 0 0
2019/10/28 02:46:00 BASE 8.70 343 9.88 349 -0.9 100 -0.9 0 0 971.6 NA 0.0000 9999 300 0 0 0
2019/10/28 02:47:00 BASE 9.49 344 11.32 344 -0.9 100 -0.9 0 0 971.6 NA 0.0000 9999 300 0 0 0
2019/10/28 02:48:00 BASE 9.56 347 11.32 344 -1.0 100 -1.0 0 0 971.6 NA 0.0000 9999 260 0 0 0
2019/10/28 02:49:00 BASE 9.54 355 11.32 344 -1.0 100 -1.0 0 0 971.6 NA 0.0000 9999 300 0 0 0
2019/10/28 02:50:00 BASE 9.83 355 11.32 344 -1.0 100 -1.0 0 0 971.6 NA 0.0000 9999 330 0 0 0
2019/10/28 02:51:00 BASE 9.69 352 11.57 354 -1.1 100 -1.1 0 0 971.6 NA 0.0000 9999 330 0 0 0
2019/10/28 02:52:00 BASE 10.48 351 12.24 354 -1.1 100 -1.1 0 0 971.5 NA 0.0000 9999 330 0 0 0
2019/10/28 02:53:00 BASE 10.63 352 12.24 354 -1.1 100 -1.1 0 0 971.5 NA 0.0000 9999 300 0 0 0
2019/10/28 02:54:00 BASE 9.78 359 12.24 354 -1.1 100 -1.1 0 0 971.6 NA 0.0000 9999 300 0 0 0
2019/10/28 02:55:00 BASE 9.50 7 12.24 354 -1.2 100 -1.2 0 0 971.6 NA 0.0000 UP 9999 260 0 0 0
2019/10/28 02:56:00 BASE 9.74 10 12.24 354 -1.2 100 -1.2 0 0 971.6 NA 0.0000 UP 9999 230 0 0 0
2019/10/28 02:57:00 BASE 10.06 11 12.24 354 -1.2 100 -1.2 0 0 971.6 NA 0.0000 UP 9999 0 0 0 1640
2019/10/28 02:58:00 BASE 10.32 13 12.24 354 -1.2 100 -1.2 0 0 971.5 NA 0.0000 -SN 8000 0 0 0 1710
2019/10/28 02:59:00 BASE 10.92 14 12.40 11 -1.2 100 -1.2 0 0 971.5 NA 0.0000 -SN 9000 0 0 0 1570
2019/10/28 03:00:00 BASE 11.24 12 12.91 14 -1.3 100 -1.3 0 0 971.5 NA 0.0000 -SN 8000 0 0 0 1610
2019/10/28 03:01:00 BASE 11.16 12 12.91 14 -1.3 100 -1.3 0 0 971.5 NA 0.0000 -SN 9000 0 0 0 1770
2019/10/28 03:02:00 BASE 10.94 13 12.91 14 -1.3 100 -1.3 0 0 971.5 NA 0.0000 -SN 6000 0 0 0 1770
2019/10/28 03:03:00 BASE 10.70 11 12.91 14 -1.4 100 -1.4 0 0 971.4 NA 0.0000 -SN BR 7000 0 0 0 1670
2019/10/28 03:04:00 BASE 11.49 10 13.58 17 -1.4 100 -1.4 0 0 971.4 NA 0.0000 -SN BR 7000 0 0 0 1710
2019/10/28 03:05:00 BASE 12.39 11 13.58 17 -1.4 100 -1.4 0 0 971.4 NA 0.0000 -SN BR 8000 0 0 0 1740
2019/10/28 03:06:00 BASE 12.40 11 13.58 17 -1.4 100 -1.4 0 0 971.4 NA 0.0000 -SN BR 9999 0 0 0 1570
2019/10/28 03:07:00 BASE 12.37 11 14.10 12 -1.4 100 -1.4 0 0 971.4 NA 0.0000 -SN BR 9000 0 0 0 1510
2019/10/28 03:08:00 BASE 12.15 11 14.10 12 -1.4 100 -1.4 0 0 971.3 NA 0.0000 -SN BR 9999 0 0 0 1510
2019/10/28 03:09:00 BASE 11.52 11 14.10 12 -1.4 100 -1.4 0 0 971.3 NA 0.0000 -SN BR 9999 0 0 0 1510
2019/10/28 03:10:00 BASE 10.74 10 14.10 12 -1.4 100 -1.4 0 0 971.4 NA 0.0000 -SN BR 9999 0 0 0 1610
2019/10/28 03:11:00 BASE 10.45 10 14.10 12 -1.4 100 -1.4 0 0 971.4 NA 0.0000 -SN BR 9999 0 0 0 1640
2019/10/28 03:12:01 BASE 10.22 9 14.10 12 -1.4 100 -1.4 0 0 971.4 NA 0.0000 -SN BR 9999 0 0 0 1570
2019/10/28 03:13:00 BASE 10.48 8 14.10 12 -1.4 100 -1.4 0 0 971.3 NA 0.0000 -SN BR 9999 0 0 0 1510
2019/10/28 03:14:00 BASE 10.44 8 14.10 12 -1.4 100 -1.4 0 0 971.4 NA 0.0000 -SN 9999 0 0 0 1640
2019/10/28 03:15:00 BASE 10.29 10 14.10 12 -1.4 100 -1.4 0 0 971.3 NA 0.0000 -SN 9999 230 0 0 0
2019/10/28 03:16:00 BASE 10.29 10 14.10 12 -1.4 100 -1.4 0 0 971.3 NA 0.0000 -SN 9999 230 0 0 0
2019/10/28 03:17:00 BASE 9.88 11 13.38 11 -1.3 100 -1.3 0 0 971.4 NA 0.0000 -SN 9999 260 0 0 0
2019/10/28 03:18:00 BASE 10.09 11 12.71 9 -1.3 100 -1.3 0 0 971.4 NA 0.0000 -SN 9999 230 0 0 0
2019/10/28 03:19:00 BASE 9.83 10 11.88 15 -1.3 100 -1.3 0 0 971.4 NA 0.0000 -SN 9999 230 0 0 0
2019/10/28 03:20:00 BASE 9.65 10 11.88 15 -1.3 100 -1.3 0 0 971.4 NA 0.0000 -SN 9999 0 0 0 1440
2019/10/28 03:21:00 BASE 9.98 9 11.88 15 -1.3 100 -1.3 0 0 971.4 NA 0.0000 -SN 9999 0 0 0 1510
2019/10/28 03:22:00 BASE 9.97 10 11.88 15 -1.3 100 -1.3 0 0 971.4 NA 0.0000 -SN 9999 0 0 0 1570
2019/10/28 03:23:00 BASE 9.05 12 11.88 15 -1.3 100 -1.3 0 0 971.4 NA 0.0000 -SN 9999 0 0 0 1440
2019/10/28 03:24:00 BASE 8.00 11 11.88 15 -1.3 100 -1.3 0 0 971.4 NA 0.0000 -SN 9000 0 0 0 1480
2019/10/28 03:25:00 BASE 8.45 16 11.88 15 -1.3 100 -1.3 0 0 971.4 NA 0.0000 -SN 5000 0 0 0 1410
2019/10/28 03:26:00 BASE 9.81 19 11.88 15 -1.3 100 -1.3 0 0 971.4 NA 0.0000 -SN BR 4500 0 0 0 1410
2019/10/28 03:27:00 BASE 10.44 19 11.88 15 -1.3 100 -1.3 0 0 971.4 NA 0.0000 -SN BR 4300 0 0 0 1310
2019/10/28 03:28:00 BASE 10.49 18 11.78 14 -1.3 100 -1.3 0 0 971.4 NA 0.0000 -SN BR 4200 0 0 0 1310
2019/10/28 03:29:00 BASE 10.01 16 11.78 14 -1.3 100 -1.3 0 0 971.4 NA 0.0000 -SN BR 4400 0 0 0 1280
2019/10/28 03:30:00 BASE 9.38 17 11.78 14 -1.4 100 -1.4 0 0 971.4 NA 0.0000 -SN BR 4600 0 0 0 1280
2019/10/28 03:31:00 BASE 9.12 21 11.78 14 -1.4 100 -1.4 0 0 971.4 NA 0.0000 -SN BR 4100 0 0 0 1250
2019/10/28 03:32:00 BASE 9.45 21 11.78 14 -1.4 100 -1.4 0 0 971.4 NA 0.0000 -SN BR 4600 0 0 0 1210
2019/10/28 03:33:00 BASE 9.91 20 11.78 14 -1.4 100 -1.4 0 0 971.4 NA 0.0000 -SN BR 4400 0 0 0 1180
2019/10/28 03:34:00 BASE 9.22 21 11.78 14 -1.4 100 -1.4 0 0 971.4 NA 0.0000 -SN BR 4200 0 0 0 1250
2019/10/28 03:35:00 BASE 8.51 24 11.78 14 -1.4 100 -1.4 0 0 971.4 NA 0.0000 -SN BR 3400 0 0 0 1310
2019/10/28 03:36:00 BASE 9.15 25 11.27 23 -1.4 100 -1.4 0 0 971.4 NA 0.0000 -SN BR 2800 0 0 0 1280
2019/10/28 03:37:00 BASE 9.77 21 11.21 14 -1.4 100 -1.4 0 0 971.4 NA 0.0000 -SN BR 3300 0 0 0 1380
2019/10/28 03:38:00 BASE 10.11 20 11.21 14 -1.4 100 -1.4 0 0 971.3 NA 0.0000 -SN BR 3200 0 0 0 1510
2019/10/28 03:39:00 BASE 10.65 18 11.68 19 -1.4 100 -1.4 0 0 971.3 NA 0.0000 -SN BR 3500 0 0 0 1570
2019/10/28 03:40:00 BASE 10.49 16 11.68 19 -1.4 100 -1.4 0 0 971.3 NA 0.0000 -SN BR 4300 0 0 0 1380
2019/10/28 03:41:00 BASE 10.03 16 11.68 19 -1.4 100 -1.4 0 0 971.3 NA 0.0000 -SN BR 4500 0 0 0 1380
2019/10/28 03:42:00 BASE 10.05 19 11.68 19 -1.4 100 -1.4 0 0 971.3 NA 0.0000 -SN BR 4500 0 0 0 1440
2019/10/28 03:43:00 BASE 9.81 21 11.68 19 -1.4 100 -1.4 0 0 971.4 NA 0.0000 -SN BR 3800 0 0 0 1480
2019/10/28 03:44:00 BASE 8.71 21 11.68 19 -1.3 100 -1.3 0 0 971.4 NA 0.0000 -SN BR 4800 0 0 0 1540
2019/10/28 03:45:00 BASE 8.60 22 11.68 19 -1.3 100 -1.3 0 0 971.4 NA 0.0000 -SN BR 3600 0 0 0 1510
2019/10/28 03:46:00 BASE 8.91 24 11.68 19 -1.3 100 -1.3 0 0 971.4 NA 0.0000 -SN BR 4600 260 0 0 0
2019/10/28 03:47:00 BASE 7.65 27 11.68 19 -1.3 100 -1.3 0 0 971.4 NA 0.0000 -SN BR 7000 0 0 0 1510
2019/10/28 03:48:00 BASE 6.55 32 11.68 19 -1.3 100 -1.3 0 0 971.4 NA 0.0000 -SN BR 4600 230 0 0 0
2019/10/28 03:49:00 BASE 5.73 38 11.42 18 -1.3 100 -1.3 0 0 971.4 NA 0.0000 -SN BR 4700 260 1310 0 0
2019/10/28 03:50:00 BASE 5.60 39 11.42 18 -1.3 100 -1.3 0 0 971.4 NA 0.0000 -SN BR 4400 230 0 0 0
2019/10/28 03:51:00 BASE 6.35 38 11.42 18 -1.3 100 -1.3 0 0 971.4 NA 0.0000 -SN BR 4100 230 1310 0 0
2019/10/28 03:52:00 BASE 6.16 39 10.75 17 -1.3 100 -1.3 0 0 971.4 NA 0.0000 -SN BR 3700 260 0 0 0
2019/10/28 03:53:00 BASE 6.50 38 10.24 20 -1.3 100 -1.3 0 0 971.4 NA 0.0000 -SN BR 3500 230 0 0 0
2019/10/28 03:54:00 BASE 6.75 38 10.24 20 -1.4 100 -1.4 0 0 971.3 NA 0.0000 -SN BR 4500 260 0 0 0
2019/10/28 03:55:00 BASE 7.56 37 10.24 20 -1.4 100 -1.4 0 0 971.3 NA 0.0000 -SN BR 4900 260 0 0 0
2019/10/28 03:56:00 BASE 8.08 30 9.98 41 -1.4 100 -1.4 0 0 971.2 NA 0.0000 -SN BR 5000 260 0 0 0
2019/10/28 03:57:00 BASE 8.19 23 10.44 28 -1.4 100 -1.4 0 0 971.2 NA 0.0000 -SN BR 6000 260 0 0 0
2019/10/28 03:58:00 BASE 9.00 23 10.44 28 -1.4 100 -1.4 0 0 971.2 NA 0.0000 -SN BR 7000 260 0 0 0
2019/10/28 03:59:00 BASE 9.07 25 10.44 28 -1.4 100 -1.4 0 0 971.2 NA 0.0000 -SN BR 6000 200 0 0 0
2019/10/28 04:00:00 BASE 9.23 24 10.91 26 -1.3 100 -1.3 0 0 971.2 NA 0.0000 -SN BR 6000 230 0 0 0
2019/10/28 04:01:00 BASE 8.57 24 10.91 26 -1.3 100 -1.3 0 0 971.2 NA 0.0000 -SN BR 7000 230 0 0 0
2019/10/28 04:02:00 BASE 7.72 28 10.91 26 -1.3 100 -1.3 0 0 971.2 NA 0.0000 -SN BR 6000 230 0 0 0
2019/10/28 04:03:00 BASE 7.54 32 10.91 26 -1.3 100 -1.3 0 0 971.2 NA 0.0000 -SN BR 5000 0 0 0 1800
2019/10/28 04:04:00 BASE 7.23 26 10.91 26 -1.2 100 -1.2 0 0 971.2 NA 0.0000 -SN BR 4400 230 0 0 0
2019/10/28 04:05:00 BASE 6.53 22 10.91 26 -1.2 100 -1.2 0 0 971.2 NA 0.0000 -SN BR 8000 0 0 0 1770
2019/10/28 04:06:00 BASE 6.47 24 10.91 26 -1.2 100 -1.2 0 0 971.2 NA 0.0000 -SN BR 7000 0 0 0 1740
2019/10/28 04:07:00 BASE 6.34 26 10.91 26 -1.2 100 -1.2 0 0 971.2 NA 0.0000 -SN BR 5000 0 0 0 1800
2019/10/28 04:08:00 BASE 5.54 27 10.91 26 -1.2 100 -1.2 0 0 971.2 NA 0.0000 -SN BR 4600 0 0 0 1740
2019/10/28 04:09:00 BASE 4.67 28 10.91 26 -1.2 100 -1.2 0 0 971.1 NA 0.0000 -SN BR 5000 0 0 0 1710
2019/10/28 04:10:00 BASE 4.37 27 9.72 34 -1.3 100 -1.3 0 0 971.1 NA 0.0000 -SN BR 6000 230 0 0 0
2019/10/28 04:11:00 BASE 4.74 23 8.39 22 -1.3 100 -1.3 0 0 971.1 NA 0.0000 -SN BR 9000 260 0 0 0
2019/10/28 04:12:00 BASE 4.17 29 8.18 34 -1.4 100 -1.4 0 0 971.1 NA 0.0000 -SN BR 9999 300 0 0 0
2019/10/28 04:13:00 BASE 3.52 35 7.51 18 -1.4 100 -1.4 0 0 971.1 NA 0.0000 -SN BR 9999 260 0 0 0
2019/10/28 04:14:00 BASE 3.35 34 7.46 25 -1.4 100 -1.4 0 0 971.1 NA 0.0000 -SN BR 9999 260 0 0 0
2019/10/28 04:15:00 BASE 3.07 34 7.46 25 -1.3 100 -1.3 0 0 971.1 NA 0.0000 -SN BR 9999 260 1380 0 0
2019/10/28 04:16:00 BASE 2.98 35 6.48 34 -1.3 100 -1.3 0 0 971.1 NA 0.0000 -SN BR 9999 260 0 0 0
2019/10/28 04:17:00 BASE 3.12 37 6.07 20 -1.3 100 -1.3 0 0 971.1 NA 0.0000 -SN BR 9999 260 0 0 0
2019/10/28 04:18:00 BASE 3.09 39 5.14 28 -1.3 100 -1.3 0 0 971.1 NA 0.0000 -SN BR 9999 230 0 0 0
2019/10/28 04:19:00 BASE 2.73 41 5.14 28 -1.3 100 -1.3 0 0 971.1 NA 0.0000 -SN BR 9000 300 0 0 0
2019/10/28 04:20:00 BASE 2.42 42 4.99 23 -1.3 100 -1.3 0 0 971.1 NA 0.0000 -SN 9999 300 0 0 0
2019/10/28 04:21:00 BASE 2.51 39 4.37 27 -1.3 100 -1.3 0 0 971.1 NA 0.0000 -SN 9999 330 0 0 0
2019/10/28 04:22:00 BASE 2.59 41 3.91 38 -1.3 100 -1.3 0 0 971.1 NA 0.0000 -SN 9999 330 0 0 0
2019/10/28 04:23:00 BASE 2.45 46 3.55 34 -1.3 100 -1.3 0 0 971.0 NA 0.0000 -SN 9999 300 0 0 0
2019/10/28 04:24:00 BASE 2.91 50 4.01 52 -1.3 100 -1.3 0 0 971.0 NA 0.0000 -SN 9999 330 1570 0 0
2019/10/28 04:25:00 BASE 3.05 51 4.01 52 -1.3 100 -1.3 0 0 971.0 NA 0.0000 -SN 9999 330 0 0 0
2019/10/28 04:26:00 BASE 2.80 54 4.01 52 -1.3 100 -1.3 0 0 971.0 NA 0.0000 -SN 9999 360 0 0 0
2019/10/28 04:27:00 BASE 3.42 64 4.32 69 -1.3 100 -1.3 0 0 971.0 NA 0.0000 -SN 9999 360 1350 0 0
2019/10/28 04:28:00 BASE 3.54 66 4.32 69 -1.3 100 -1.3 0 0 971.0 NA 0.0000 -SN 9999 360 0 0 0
2019/10/28 04:29:00 BASE 3.63 67 4.48 79 -1.3 100 -1.3 0 0 971.0 NA 0.0000 -SN 9999 330 0 0 0
2019/10/28 04:30:00 BASE 4.36 71 5.40 70 -1.3 100 -1.3 0 0 971.0 NA 0.0000 -SN 9999 330 0 0 0
2019/10/28 04:31:00 BASE 4.83 73 5.50 73 -1.3 100 -1.3 0 0 971.0 NA 0.0000 -SN 9999 330 0 0 0
2019/10/28 04:32:00 BASE 4.79 74 5.50 73 -1.3 100 -1.3 0 0 971.0 NA 0.0000 -SN 9999 300 0 0 0
2019/10/28 04:33:00 BASE 4.41 77 5.50 73 -1.3 100 -1.3 0 0 971.0 NA 0.0000 -SN 9000 300 0 0 0
2019/10/28 04:34:00 BASE 4.22 81 5.50 73 -1.3 100 -1.3 0 0 971.0 NA 0.0000 -SN 8000 260 0 0 0
2019/10/28 04:35:00 BASE 4.17 83 5.50 73 -1.3 100 -1.3 0 0 971.0 NA 0.0000 -SN 6000 230 0 0 0
2019/10/28 04:36:00 BASE 3.80 81 5.50 73 -1.3 100 -1.3 0 0 971.0 NA 0.0000 -SN BR 6000 260 0 0 0
2019/10/28 04:37:00 BASE 3.72 82 5.50 73 -1.3 100 -1.3 0 0 971.0 NA 0.0000 -SN BR 5000 260 0 0 0
2019/10/28 04:38:00 BASE 3.75 82 5.50 73 -1.3 100 -1.3 0 0 971.0 NA 0.0000 -SN BR 5000 260 0 0 0
2019/10/28 04:39:00 BASE 3.07 80 5.50 73 -1.3 100 -1.3 0 0 971.0 NA 0.0000 -SN BR 5000 260 0 0 0
2019/10/28 04:40:00 BASE 2.85 83 5.50 73 -1.3 100 -1.3 0 0 970.9 NA 0.0000 -SN BR 6000 300 0 0 0
2019/10/28 04:41:00 BASE 3.41 88 4.99 73 -1.3 100 -1.3 0 0 970.9 NA 0.0000 -SN BR 7000 300 0 0 0
2019/10/28 04:42:00 BASE 3.27 91 4.89 75 -1.3 100 -1.3 0 0 971.0 NA 0.0000 -SN BR 6000 260 0 0 0
2019/10/28 04:43:00 BASE 3.18 91 4.78 85 -1.3 100 -1.3 0 0 970.9 NA 0.2540 -SN BR 6000 300 1080 0 0
2019/10/28 04:44:00 BASE 3.52 94 4.48 83 -1.3 100 -1.3 0 0 970.9 NA 0.0000 -SN BR 6000 300 0 0 0
2019/10/28 04:45:00 BASE 3.10 101 4.48 83 -1.3 100 -1.3 0 0 970.9 NA 0.0000 -SN BR 7000 300 0 0 0
2019/10/28 04:46:00 BASE 2.46 109 4.48 83 -1.3 100 -1.3 0 0 970.9 NA 0.0000 -SN BR 9999 260 1410 0 0
2019/10/28 04:47:00 BASE 2.04 117 4.12 98 -1.4 100 -1.4 0 0 970.9 NA 0.0000 -SN BR 7000 0 0 0 1570
2019/10/28 04:48:00 BASE 1.71 123 4.12 98 -1.4 100 -1.4 0 0 970.9 NA 0.0000 -SN BR 8000 260 0 0 0
2019/10/28 04:49:00 BASE 1.18 132 4.12 98 -1.4 100 -1.4 0 0 970.9 NA 0.0000 -SN BR 9999 260 0 0 0
2019/10/28 04:50:00 BASE 0.40 133 4.12 98 -1.4 100 -1.4 0 0 970.9 NA 0.0000 -SN BR 9999 230 0 0 0
2019/10/28 04:51:00 BASE 0.00 127 4.12 98 -1.4 100 -1.4 0 0 970.9 NA 0.0000 -SN BR 9999 0 0 0 2070
2019/10/28 04:52:00 BASE 0.05 156 4.12 98 -1.4 100 -1.4 0 0 970.9 NA 0.0000 -SN BR 9999 0 0 0 1710
2019/10/28 04:53:00 BASE 0.49 286 3.96 99 -1.4 100 -1.4 0 0 970.9 NA 0.0000 -SN BR 9999 0 0 0 1480
2019/10/28 04:54:00 BASE 1.15 275 3.04 105 -1.4 100 -1.4 0 0 970.9 NA 0.0000 -SN BR 9999 0 0 0 950
2019/10/28 04:55:00 BASE 1.44 276 2.78 109 -1.4 100 -1.4 0 0 970.9 NA 0.0000 -SN 9999 0 0 0 920
2019/10/28 04:56:00 BASE 1.53 276 2.06 120 -1.4 100 -1.4 0 0 970.8 NA 0.0000 -SN 9999 0 0 0 890
2019/10/28 04:57:00 BASE 1.67 274 1.95 284 -1.4 100 -1.4 0 0 970.8 NA 0.0000 -SN 8000 0 0 0 890
2019/10/28 04:58:00 BASE 1.72 273 1.95 284 -1.4 100 -1.4 0 0 970.8 NA 0.0000 -SN 7000 0 0 0 920
2019/10/28 04:59:00 BASE 1.82 280 2.16 304 -1.4 100 -1.4 0 0 970.8 NA 0.0000 -SN 9000 0 0 0 920
2019/10/28 05:00:00 BASE 1.98 293 2.16 300 -1.4 100 -1.4 0 0 970.8 NA 0.0000 -SN BR 9000 0 0 0 890
2019/10/28 05:01:00 BASE 1.96 296 2.16 300 -1.4 100 -1.4 0 0 970.8 NA 0.0000 -SN BR 7000 0 0 0 890
2019/10/28 05:02:00 BASE 2.01 290 2.31 275 -1.4 100 -1.4 0 0 970.8 NA 0.0000 -SN BR 7000 0 0 0 920
2019/10/28 05:03:00 BASE 2.11 285 2.42 286 -1.4 100 -1.4 0 0 970.8 NA 0.0000 -SN BR 7000 0 0 0 920
2019/10/28 05:04:00 BASE 1.99 289 2.42 286 -1.5 100 -1.5 0 0 970.8 NA 0.0000 -SN BR 6000 0 0 0 950
2019/10/28 05:05:00 BASE 1.76 292 2.42 286 -1.5 100 -1.5 0 0 970.8 NA 0.0000 -SN BR 7000 0 0 0 980
2019/10/28 05:06:00 BASE 1.65 298 2.42 286 -1.6 100 -1.6 0 0 970.8 NA 0.0000 -SN BR 6000 0 0 0 980
2019/10/28 05:07:00 BASE 1.72 314 2.42 286 -1.6 100 -1.6 0 0 970.8 NA 0.0000 -SN BR 6000 0 0 0 980
2019/10/28 05:08:00 BASE 1.62 327 2.42 286 -1.6 100 -1.6 0 0 970.8 NA 0.0000 -SN BR 5000 0 0 0 950
2019/10/28 05:09:00 BASE 1.58 337 2.52 347 -1.6 100 -1.6 0 0 970.8 NA 0.0000 -SN BR 5000 0 0 0 890
2019/10/28 05:10:00 BASE 2.07 348 3.24 7 -1.6 100 -1.6 0 0 970.8 NA 0.0000 -SN BR 4500 0 0 0 890
2019/10/28 05:11:00 BASE 2.62 4 3.24 2 -1.5 100 -1.5 0 0 970.8 NA 0.0000 -SN BR 4800 0 0 0 890
2019/10/28 05:12:00 BASE 2.73 6 3.24 2 -1.5 100 -1.5 0 0 970.8 NA 0.0000 -SN BR 5000 0 0 0 920
2019/10/28 05:13:00 BASE 2.42 355 3.24 2 -1.5 100 -1.5 0 0 970.7 NA 0.0000 -SN BR 4400 0 0 0 950
2019/10/28 05:14:00 BASE 2.04 352 3.24 2 -1.5 100 -1.5 0 0 970.7 NA 0.0000 -SN BR 4000 0 0 0 1050
2019/10/28 05:15:00 BASE 2.12 356 3.24 2 -1.5 100 -1.5 0 0 970.6 NA 0.0000 -SN BR 4400 0 0 0 1050
2019/10/28 05:16:00 BASE 2.44 359 3.24 2 -1.5 100 -1.5 0 0 970.6 NA 0.0000 -SN BR 4600 0 0 0 1050
2019/10/28 05:17:00 BASE 2.88 1 3.60 3 -1.5 100 -1.5 0 0 970.6 NA 0.0000 -SN BR 4500 0 0 0 1080
2019/10/28 05:18:00 BASE 3.02 2 3.60 3 -1.5 100 -1.5 0 0 970.6 NA 0.0000 -SN BR 4400 0 0 0 980
2019/10/28 05:19:01 BASE 2.80 5 3.60 3 -1.5 100 -1.5 0 0 970.7 NA 0.0000 -SN BR 4400 0 0 0 920
2019/10/28 05:20:01 BASE 2.50 8 3.60 3 -1.5 100 -1.5 0 0 970.6 NA 0.0000 -SN BR 3600 0 0 0 1020
2019/10/28 05:21:01 BASE 2.56 9 3.60 3 -1.5 100 -1.5 0 0 970.6 NA 0.0000 -SN BR 3300 0 0 0 1120
2019/10/28 05:22:01 BASE 2.87 5 3.60 3 -1.5 100 -1.5 0 0 970.6 NA 0.0000 -SN BR 4000 0 0 0 1210
2019/10/28 05:23:01 BASE 3.37 4 3.91 3 -1.5 100 -1.5 0 0 970.6 NA 0.0000 -SN BR 6000 0 0 0 1250
2019/10/28 05:24:00 BASE 3.54 8 3.91 3 -1.6 100 -1.6 0 0 970.6 NA 0.0000 -SN BR 6000 0 0 0 1120
2019/10/28 05:25:00 BASE 3.35 8 3.91 3 -1.6 100 -1.6 0 0 970.6 NA 0.0000 -SN BR 5000 0 0 0 1120
2019/10/28 05:26:01 BASE 3.29 2 3.91 3 -1.6 100 -1.6 0 0 970.6 NA 0.0000 -SN BR 6000 0 0 0 1120
2019/10/28 05:27:00 BASE 3.28 4 3.91 3 -1.6 100 -1.6 0 0 970.6 NA 0.0000 -SN BR 6000 0 0 0 1280
2019/10/28 05:28:00 BASE 3.17 4 3.91 3 -1.6 100 -1.6 0 0 970.6 NA 0.0000 -SN BR 8000 0 0 0 1310
2019/10/28 05:29:00 BASE 3.32 351 3.91 3 -1.6 100 -1.6 0 0 970.6 NA 0.0000 -SN BR 7000 0 0 0 1310
2019/10/28 05:30:01 BASE 3.58 346 4.12 350 -1.6 100 -1.6 0 0 970.6 NA 0.0000 -SN BR 5000 0 0 0 1350
2019/10/28 05:31:00 BASE 3.46 352 4.12 350 -1.6 100 -1.6 0 0 970.6 NA 0.0000 -SN BR 6000 0 0 0 1350
2019/10/28 05:32:01 BASE 3.57 354 4.12 354 -1.6 100 -1.6 0 0 970.6 NA 0.0000 -SN BR 5000 0 0 0 1280
2019/10/28 05:33:00 BASE 3.68 354 4.12 354 -1.6 100 -1.6 0 0 970.6 NA 0.0000 -SN BR 7000 0 0 0 1050
2019/10/28 05:34:00 BASE 3.68 7 4.22 18 -1.6 100 -1.6 0 0 970.6 NA 0.0000 -SN BR 4900 0 0 0 1180
2019/10/28 05:35:00 BASE 3.90 23 4.37 24 -1.6 100 -1.6 0 0 970.6 NA 0.0000 -SN BR 3700 0 0 0 1210
2019/10/28 05:36:00 BASE 3.94 27 4.37 24 -1.6 100 -1.6 0 0 970.6 NA 0.0000 -SN BR 4000 0 0 0 1050
2019/10/28 05:37:00 BASE 3.72 27 4.37 24 -1.6 100 -1.6 0 0 970.6 NA 0.0000 -SN BR 3500 0 0 0 1540
2019/10/28 05:38:00 BASE 3.71 26 4.37 24 -1.6 100 -1.6 0 0 970.6 NA 0.0000 -SN BR 3800 0 0 0 1640
2019/10/28 05:39:00 BASE 4.13 20 4.78 23 -1.6 100 -1.6 0 0 970.6 NA 0.0000 -SN BR 3600 0 0 0 2070
2019/10/28 05:40:00 BASE 3.93 13 4.78 23 -1.6 100 -1.6 0 0 970.6 NA 0.0000 -SN BR 5000 230 0 0 0
2019/10/28 05:41:00 BASE 3.52 8 4.78 23 -1.7 100 -1.7 0 0 970.6 NA 0.0000 -SN BR 6000 230 0 0 0
2019/10/28 05:42:00 BASE 3.62 14 4.78 23 -1.7 100 -1.7 0 0 970.6 NA 0.0000 -SN BR 5000 230 0 0 0
2019/10/28 05:43:00 BASE 3.25 16 4.78 23 -1.7 100 -1.7 0 0 970.6 NA 0.0000 -SN BR 5000 230 0 0 0
2019/10/28 05:44:00 BASE 2.59 18 4.78 23 -1.7 100 -1.7 0 0 970.6 NA 0.0000 -SN BR 4200 260 0 0 0
2019/10/28 05:45:00 BASE 2.60 23 4.78 23 -1.7 100 -1.7 0 0 970.6 NA 0.0000 -SN BR 4500 230 0 0 0
2019/10/28 05:46:01 BASE 2.86 21 4.78 23 -1.7 100 -1.7 0 0 970.6 NA 0.0000 -SN BR 4200 0 0 0 1770
2019/10/28 05:47:01 BASE 2.75 26 4.78 23 -1.7 100 -1.7 0 0 970.6 NA 0.0000 -SN BR 6000 230 0 0 0
2019/10/28 05:48:00 BASE 2.77 22 4.78 23 -1.7 100 -1.7 0 0 970.6 NA 0.0000 -SN BR 9999 230 0 0 0
2019/10/28 05:49:02 BASE 3.04 12 4.17 21 -1.8 100 -1.8 0 0 970.6 NA 0.0000 -SN BR 8000 230 0 0 0
2019/10/28 05:50:00 BASE 3.62 16 4.78 23 -1.8 100 -1.8 0 0 970.6 NA 0.0000 -SN BR 9000 0 0 0 1570
2019/10/28 05:51:01 BASE 3.96 17 4.78 23 -1.7 100 -1.7 0 0 970.6 NA 0.0000 -SN BR 6000 0 0 0 1480
2019/10/28 05:52:01 BASE 4.10 11 5.14 14 -1.7 100 -1.7 0 0 970.6 NA 0.0000 -SN BR 4200 0 0 0 1310
2019/10/28 05:53:00 BASE 4.30 10 5.14 14 -1.7 100 -1.7 0 0 970.6 NA 0.0000 -SN BR 6000 0 0 0 1350
2019/10/28 05:54:00 BASE 4.15 16 5.14 14 -1.7 100 -1.7 0 0 970.6 NA 0.0000 -SN BR 6000 0 0 0 1250
2019/10/28 05:55:00 BASE 4.46 29 5.76 38 -1.7 100 -1.7 0 0 970.6 NA 0.0000 -SN BR 3700 0 0 0 1280
2019/10/28 05:56:00 BASE 4.90 40 5.76 38 -1.7 100 -1.7 0 0 970.6 NA 0.0000 -SN BR 3600 0 0 0 1310
2019/10/28 05:57:01 BASE 4.71 43 5.76 38 -1.8 100 -1.8 0 0 970.6 NA 0.0000 -SN BR 3700 0 0 0 1310
2019/10/28 05:58:01 BASE 4.32 41 5.76 38 -1.8 100 -1.8 0 0 970.6 NA 0.0000 -SN BR 3500 0 0 0 1250
2019/10/28 05:59:00 BASE 3.98 45 5.76 38 -1.8 100 -1.8 0 0 970.6 NA 0.0000 -SN BR 3600 0 0 0 1250
2019/10/28 06:00:00 BASE 3.85 52 5.76 38 -1.8 100 -1.8 0 0 970.6 NA 0.0000 -SN BR 3400 0 0 0 1250
2019/10/28 06:01:00 BASE 4.26 56 5.76 38 -1.8 100 -1.8 0 0 970.6 NA 0.0000 -SN BR 3700 0 0 0 1280
2019/10/28 06:02:01 BASE 4.80 56 5.76 38 -1.8 100 -1.8 0 0 970.6 NA 0.0000 -SN BR 3200 0 0 0 1280
2019/10/28 06:03:00 BASE 4.82 54 5.76 38 -1.8 100 -1.8 0 0 970.6 NA 0.0000 -SN BR 3100 0 0 0 1250
2019/10/28 06:04:00 BASE 4.39 45 5.76 38 -1.8 100 -1.8 0 0 970.6 NA 0.0000 -SN BR 3100 0 0 0 1250
2019/10/28 06:05:00 BASE 4.05 28 5.45 56 -1.8 100 -1.8 0 0 970.6 NA 0.0000 -SN BR 3500 0 0 0 1280
2019/10/28 06:06:00 BASE 3.86 15 5.45 56 -1.8 100 -1.8 0 0 970.6 NA 0.0000 -SN BR 3200 0 0 0 1280
2019/10/28 06:07:00 BASE 3.71 10 5.45 56 -1.8 100 -1.8 0 0 970.6 NA 0.0000 -SN BR 3700 0 0 0 1310
2019/10/28 06:08:00 BASE 3.43 6 5.45 56 -1.8 100 -1.8 0 0 970.6 NA 0.0000 -SN BR 3500 0 0 0 1280
2019/10/28 06:09:00 BASE 3.02 7 5.45 56 -1.8 100 -1.8 0 0 970.6 NA 0.0000 -SN BR 3500 0 0 0 1250
2019/10/28 06:10:01 BASE 2.45 359 5.45 56 -1.8 100 -1.8 0 0 970.6 NA 0.0000 -SN BR 3600 0 0 0 1120
2019/10/28 06:11:00 BASE 2.18 357 5.45 56 -1.8 100 -1.8 0 0 970.6 NA 0.0000 -SN BR 3100 0 0 0 1120
2019/10/28 06:12:00 BASE 1.45 8 5.45 56 -1.8 100 -1.8 0 0 970.6 NA 0.0000 -SN BR 3200 0 0 0 1120
2019/10/28 06:13:00 BASE 1.43 343 4.78 45 -1.8 100 -1.8 0 0 970.6 NA 0.0000 -SN BR 2700 0 0 0 1050
2019/10/28 06:14:00 BASE 2.70 324 4.48 23 -1.8 100 -1.8 0 0 970.6 NA 0.0000 -SN BR 3800 0 0 0 1020
2019/10/28 06:15:00 BASE 3.01 331 4.17 42 -1.8 100 -1.8 0 0 970.6 NA 0.0000 -SN BR 3700 0 0 0 980
2019/10/28 06:16:00 BASE 3.35 340 4.32 346 -1.8 100 -1.8 0 0 970.6 NA 0.0000 -SN BR 3100 0 0 0 980
2019/10/28 06:17:00 BASE 3.11 340 4.32 346 -1.8 100 -1.8 0 0 970.6 NA 0.0000 -SN BR 3200 0 0 0 980
2019/10/28 06:18:00 BASE 2.74 339 4.32 346 -1.8 100 -1.8 0 0 970.6 NA 0.0000 -SN BR 2500 0 0 0 1020
2019/10/28 06:19:00 BASE 3.21 352 4.32 346 -1.8 100 -1.8 0 0 970.6 NA 0.0000 -SN BR 2700 0 0 0 1020
2019/10/28 06:20:00 BASE 3.35 5 4.32 346 -1.8 100 -1.8 0 0 970.6 NA 0.0000 -SN BR 3000 0 0 0 950
2019/10/28 06:21:00 BASE 3.45 17 4.32 346 -1.8 100 -1.8 0 0 970.6 NA 0.0000 -SN BR 2700 0 0 0 1080
2019/10/28 06:22:00 BASE 3.57 26 4.32 346 -1.8 100 -1.8 0 0 970.6 NA 0.0000 -SN BR 2700 0 0 0 1080
2019/10/28 06:23:00 BASE 3.61 34 4.32 346 -1.8 100 -1.8 0 0 970.6 NA 0.0000 -SN BR 2600 0 0 0 1120
2019/10/28 06:24:00 BASE 3.76 40 4.32 346 -1.8 100 -1.8 0 0 970.6 NA 0.0000 -SN BR 2400 0 0 0 890
2019/10/28 06:25:00 BASE 3.28 32 4.32 346 -1.8 100 -1.8 0 0 970.6 NA 0.0000 -SN BR 2400 0 0 0 890
2019/10/28 06:26:01 BASE 2.63 15 4.22 37 -1.8 100 -1.8 0 0 970.6 NA 0.0000 -SN BR 2200 0 0 0 950
2019/10/28 06:27:00 BASE 2.60 12 4.22 37 -1.8 100 -1.8 0 0 970.6 NA 0.0000 -SN BR 2200 0 0 0 1050
2019/10/28 06:28:00 BASE 2.33 19 4.22 37 -1.8 100 -1.8 0 0 970.6 NA 0.0000 -SN BR 2400 0 0 0 1180
2019/10/28 06:29:01 BASE 2.23 28 4.22 37 -1.9 100 -1.9 0 0 970.6 NA 0.0000 -SN BR 2500 0 0 0 1050
2019/10/28 06:30:00 BASE 2.76 33 4.22 37 -1.9 100 -1.9 0 0 970.6 NA 0.0000 -SN BR 2700 0 0 0 980
2019/10/28 06:31:00 BASE 3.04 29 4.22 37 -1.9 100 -1.9 0 0 970.6 NA 0.0000 -SN BR 2700 0 0 0 1050
2019/10/28 06:32:00 BASE 3.08 30 4.22 37 -1.9 100 -1.9 0 0 970.6 NA 0.0000 -SN BR 2800 0 0 0 1080
2019/10/28 06:33:01 BASE 3.58 24 4.22 15 -1.9 100 -1.9 0 0 970.6 NA 0.0000 -SN BR 3000 0 0 0 1120
2019/10/28 06:34:01 BASE 4.17 18 4.73 21 -1.9 100 -1.9 0 0 970.6 NA 0.0000 -SN BR 3200 0 0 0 1120
2019/10/28 06:35:00 BASE 4.26 22 4.73 21 -1.9 100 -1.9 0 0 970.6 NA 0.0000 -SN BR 3700 0 0 0 1180
2019/10/28 06:36:00 BASE 4.17 21 4.73 21 -1.9 100 -1.9 0 0 970.6 NA 0.0000 -SN BR 3400 0 0 0 1150
2019/10/28 06:37:01 BASE 3.95 22 4.73 21 -1.9 100 -1.9 0 0 970.6 NA 0.0000 -SN BR 3200 0 0 0 1080
2019/10/28 06:38:00 BASE 3.71 23 4.73 21 -1.9 100 -1.9 0 0 970.6 NA 0.0000 -SN BR 3100 0 0 0 1120
2019/10/28 06:39:00 BASE 3.80 19 4.73 21 -1.9 100 -1.9 0 0 970.6 NA 0.0000 -SN BR 3200 0 0 0 1080
2019/10/28 06:40:00 BASE 4.05 9 5.04 354 -2.0 100 -2.0 0 0 970.6 NA 0.0000 -SN BR 2900 0 0 0 1080
2019/10/28 06:41:00 BASE 5.27 10 7.92 19 -2.0 100 -2.0 0 0 970.6 NA 0.0000 -SN BR 3200 0 0 0 1080
2019/10/28 06:42:01 BASE 6.56 26 7.92 19 -2.1 100 -2.1 0 0 970.6 NA 0.0000 -SN BR 3700 0 0 0 1050
2019/10/28 06:43:00 BASE 7.35 33 8.28 24 -2.1 100 -2.1 0 0 970.6 NA 0.0000 -SN BR 2800 0 0 0 1050
2019/10/28 06:44:00 BASE 7.08 28 8.28 24 -2.1 100 -2.1 0 0 970.6 NA 0.0000 -SN BR 2800 0 0 0 1080
2019/10/28 06:45:00 BASE 7.04 26 8.44 31 -2.2 100 -2.2 0 0 970.6 NA 0.0000 -SN BR 3500 0 0 0 1120
2019/10/28 06:46:00 BASE 8.18 28 9.05 28 -2.3 100 -2.3 0 0 970.6 NA 0.0000 -SN BR 3200 0 0 0 1180
2019/10/28 06:47:00 BASE 7.97 29 9.05 28 -2.3 100 -2.3 0 0 970.6 NA 0.0000 -SN BR 2900 0 0 0 1120
2019/10/28 06:48:00 BASE 7.62 29 9.05 28 -2.4 100 -2.4 0 0 970.6 NA 0.0000 -SN BR 3300 0 0 0 1120
2019/10/28 06:49:00 BASE 7.89 28 9.05 28 -2.4 100 -2.4 0 0 970.6 NA 0.0000 -SN BR 3800 0 0 0 1120
2019/10/28 06:50:00 BASE 7.64 29 9.05 28 -2.4 100 -2.4 0 0 970.6 NA 0.0000 -SN BR 3800 0 0 0 1080
2019/10/28 06:51:00 BASE 6.64 28 9.05 28 -2.5 100 -2.5 0 0 970.6 NA 0.0000 -SN BR 3500 0 0 0 1080
2019/10/28 06:52:00 BASE 5.73 23 9.05 28 -2.5 100 -2.5 0 0 970.6 NA 0.0000 -SN BR 3900 0 0 0 1080
2019/10/28 06:53:00 BASE 5.23 18 9.05 28 -2.5 100 -2.5 0 0 970.6 NA 0.0000 -SN BR 4300 0 0 0 1120
2019/10/28 06:54:00 BASE 5.21 18 9.05 28 -2.5 100 -2.5 0 0 970.6 NA 0.0000 -SN BR 5000 0 0 0 1120
2019/10/28 06:55:00 BASE 5.63 23 9.05 28 -2.5 100 -2.5 0 0 970.6 NA 0.0000 -SN BR 3900 0 0 0 950
2019/10/28 06:56:00 BASE 5.60 26 8.64 25 -2.5 100 -2.5 0 0 970.6 NA 0.0000 -SN BR 4300 0 0 0 980
2019/10/28 06:57:00 BASE 5.89 19 8.39 29 -2.5 100 -2.5 0 0 970.6 NA 0.0000 -SN BR 4200 0 0 0 980
2019/10/28 06:58:00 BASE 6.44 16 8.39 29 -2.5 100 -2.5 0 0 970.6 NA 0.0000 -SN BR 6000 0 0 0 980
2019/10/28 06:59:00 BASE 6.68 17 8.28 20 -2.5 100 -2.5 0 0 970.6 NA 0.0000 -SN BR 7000 0 0 0 1020
2019/10/28 07:00:00 BASE 7.09 17 8.28 20 -2.5 100 -2.5 0 0 970.6 NA 0.0000 -SN BR 6000 0 0 0 1080
2019/10/28 07:01:00 BASE 6.81 16 8.28 20 -2.5 100 -2.5 0 0 970.6 NA 0.0000 -SN BR 5000 0 0 0 1180
2019/10/28 07:02:00 BASE 6.30 15 8.28 20 -2.5 100 -2.5 0 0 970.6 NA 0.0000 -SN BR 8000 0 0 0 1250
2019/10/28 07:03:00 BASE 6.94 16 8.33 24 -2.4 100 -2.4 0 0 970.6 NA 0.0000 -SN BR 9000 0 0 0 1250
2019/10/28 07:04:00 BASE 7.55 15 8.33 24 -2.4 100 -2.4 0 0 970.6 NA 0.0000 -SN BR 9999 0 0 0 1250
2019/10/28 07:05:00 BASE 7.50 11 8.33 24 -2.4 100 -2.4 0 0 970.6 NA 0.0000 -SN BR 9999 0 0 0 1280
2019/10/28 07:06:00 BASE 7.54 9 8.33 24 -2.4 100 -2.4 0 0 970.6 NA 0.0000 -SN BR 9999 0 0 0 1350
2019/10/28 07:07:00 BASE 7.32 10 8.33 24 -2.4 100 -2.4 0 0 970.6 NA 0.0000 -SN BR 9999 0 0 0 1380
2019/10/28 07:08:00 BASE 6.69 9 8.33 24 -2.4 100 -2.4 0 0 970.6 NA 0.0000 -SN BR 9999 0 0 0 1380
2019/10/28 07:09:00 BASE 6.26 10 8.33 24 -2.4 100 -2.4 0 0 970.6 NA 0.0000 -SN 9999 0 0 0 1410
2019/10/28 07:10:02 BASE 6.38 12 8.33 24 -2.4 100 -2.4 0 0 970.6 NA 0.0000 -SN 9999 0 0 0 1410
2019/10/28 07:11:01 BASE 6.52 12 8.33 24 -2.4 100 -2.4 0 0 970.6 NA 0.0000 -SN 9999 0 0 0 1350
2019/10/28 07:12:01 BASE 5.99 12 8.33 24 -2.4 100 -2.4 0 0 970.6 NA 0.0000 -SN 9999 0 0 0 1310
2019/10/28 07:13:01 BASE 5.48 10 8.23 15 -2.4 100 -2.4 0 0 970.6 NA 0.0000 -SN 9999 0 0 0 1380
2019/10/28 07:14:01 BASE 5.70 8 8.23 15 -2.4 100 -2.4 0 0 970.6 NA 0.0000 -SN 9999 0 0 0 1350
2019/10/28 07:15:01 BASE 6.21 7 8.23 15 -2.3 100 -2.3 0 0 970.6 NA 0.0000 -SN 9999 0 0 0 1410
2019/10/28 07:16:01 BASE 6.35 6 7.92 9 -2.3 100 -2.3 0 0 970.6 NA 0.0000 -SN 9000 0 0 0 1440
2019/10/28 07:17:01 BASE 5.96 5 7.92 9 -2.3 100 -2.3 0 0 970.6 NA 0.0000 -SN 9999 0 0 0 1440
2019/10/28 07:18:01 BASE 5.95 359 7.92 9 -2.3 100 -2.3 0 0 970.6 NA 0.0000 -SN 9999 0 0 0 1440
2019/10/28 07:19:01 BASE 6.10 360 7.92 9 -2.3 100 -2.3 0 0 970.6 NA 0.0000 -SN 9999 0 0 0 1440
2019/10/28 07:20:01 BASE 6.20 8 7.25 12 -2.3 100 -2.3 0 0 970.6 NA 0.0000 -SN 9999 0 0 0 1380
2019/10/28 07:21:01 BASE 6.57 3 7.36 350 -2.3 100 -2.3 0 0 970.6 NA 0.0000 -SN 9000 0 0 0 1440
2019/10/28 07:22:01 BASE 6.57 356 7.36 350 -2.3 100 -2.3 0 0 970.6 NA 0.0000 -SN 9999 0 0 0 1440
2019/10/28 07:23:01 BASE 5.44 336 7.36 350 -2.3 100 -2.3 0 0 970.6 NA 0.0000 -SN 9999 0 0 0 1410
2019/10/28 07:24:01 BASE 3.66 317 7.36 350 -2.3 100 -2.3 0 0 970.6 NA 0.0000 -SN 9999 0 0 0 1410
2019/10/28 07:25:01 BASE 3.02 313 7.36 350 -2.3 100 -2.3 0 0 970.6 NA 0.0000 -SN BR 4400 0 0 0 1440
2019/10/28 07:26:01 BASE 3.28 313 7.36 350 -2.3 100 -2.3 0 0 970.6 NA 0.0000 -SN BR 4600 0 0 0 1480
2019/10/28 07:27:01 BASE 3.43 319 7.36 350 -2.3 100 -2.3 0 0 970.6 NA 0.0000 -SN BR 8000 0 0 0 1540
2019/10/28 07:28:01 BASE 3.52 325 7.36 350 -2.4 100 -2.4 0 0 970.6 NA 0.0000 -SN BR 4900 0 0 0 1480
2019/10/28 07:29:01 BASE 3.47 329 7.36 350 -2.4 100 -2.4 0 0 970.5 NA 0.0000 -SN BR 6000 0 0 0 1610
2019/10/28 07:30:01 BASE 3.42 329 7.36 350 -2.4 100 -2.4 0 0 970.5 NA 0.0000 -SN BR 9999 260 0 0 0
2019/10/28 07:31:01 BASE 3.85 338 6.94 1 -2.4 100 -2.4 0 0 970.5 NA 0.0000 -SN BR 9999 300 0 0 0
2019/10/28 07:32:01 BASE 4.05 334 6.02 330 -2.4 100 -2.4 0 0 970.5 NA 0.0000 -SN BR 9999 300 0 0 0
2019/10/28 07:33:01 BASE 3.92 323 5.14 346 -2.4 100 -2.4 0 0 970.6 NA 0.0000 -SN BR 9999 260 0 0 0
2019/10/28 07:34:01 BASE 3.49 322 5.14 346 -2.4 100 -2.4 0 0 970.6 NA 0.0000 -SN BR 7000 300 0 0 0
2019/10/28 07:35:01 BASE 3.55 330 5.14 360 -2.4 100 -2.4 0 0 970.6 NA 0.0000 -SN BR 8000 300 0 0 0
2019/10/28 07:36:01 BASE 4.59 342 6.69 336 -2.4 100 -2.4 0 0 970.6 NA 0.0000 -SN BR 9999 260 0 0 0
2019/10/28 07:37:01 BASE 4.80 343 6.69 336 -2.4 100 -2.4 0 0 970.6 NA 0.0000 -SN BR 9999 300 0 0 0
2019/10/28 07:38:01 BASE 3.79 340 6.69 336 -2.4 100 -2.4 0 0 970.6 NA 0.0000 -SN BR 9999 0 0 0 2000
2019/10/28 07:39:01 BASE 2.69 336 6.69 336 -2.4 100 -2.4 0 0 970.6 NA 0.0000 -SN 7000 300 0 0 0
2019/10/28 07:40:01 BASE 2.47 326 6.69 336 -2.4 100 -2.4 0 0 970.6 NA 0.0000 -SN BR 5000 300 0 0 0
2019/10/28 07:41:01 BASE 2.58 329 6.69 336 -2.4 100 -2.4 0 0 970.6 NA 0.0000 -SN BR 9000 300 0 0 0
2019/10/28 07:42:01 BASE 2.76 341 6.69 336 -2.4 100 -2.4 0 0 970.6 NA 0.0000 -SN BR 5000 300 0 0 0
2019/10/28 07:43:01 BASE 3.91 348 6.69 336 -2.4 100 -2.4 0 0 970.6 NA 0.0000 -SN BR 5000 0 0 0 1900
2019/10/28 07:44:01 BASE 4.04 346 6.69 336 -2.4 100 -2.4 0 0 970.6 NA 0.0000 -SN BR 9999 260 0 0 0
2019/10/28 07:45:01 BASE 3.63 339 6.69 336 -2.4 100 -2.4 0 0 970.6 NA 0.0000 -SN BR 9999 260 0 0 0
2019/10/28 07:46:01 BASE 4.39 339 6.12 360 -2.4 100 -2.4 1 0 970.6 NA 0.0000 -SN BR 9999 260 0 0 0
2019/10/28 07:47:01 BASE 3.51 325 6.12 360 -2.4 100 -2.4 1 0 970.6 NA 0.0000 -SN BR 9999 260 0 0 0
2019/10/28 07:48:01 BASE 2.29 314 6.12 360 -2.4 100 -2.4 1 0 970.6 NA 0.0000 -SN BR 7000 260 0 0 0
2019/10/28 07:49:01 BASE 2.80 324 6.12 360 -2.4 100 -2.4 1 0 970.6 NA 0.0000 -SN BR 6000 260 0 0 0
2019/10/28 07:50:01 BASE 3.62 339 6.64 353 -2.4 100 -2.4 1 0 970.5 NA 0.0000 -SN BR 9999 230 0 0 0
2019/10/28 07:51:01 BASE 5.22 348 7.97 354 -2.4 100 -2.4 1 0 970.4 NA 0.0000 -SN BR 9999 0 0 0 1770
2019/10/28 07:52:01 BASE 6.88 347 8.39 345 -2.4 100 -2.4 1 0 970.4 NA 0.0000 -SN BR 9999 0 0 0 1740
2019/10/28 07:53:01 BASE 7.29 348 8.39 345 -2.4 100 -2.4 1 0 970.4 NA 0.0000 -SN 9999 0 0 0 2360
2019/10/28 07:54:01 BASE 7.72 354 8.95 1 -2.4 100 -2.4 1 0 970.4 NA 0.0000 -SN 9999 0 0 0 2430
2019/10/28 07:55:01 BASE 7.85 360 8.95 1 -2.4 100 -2.4 1 0 970.4 NA 0.0000 -SN 9999 0 0 0 1710
2019/10/28 07:56:01 BASE 7.73 356 8.95 1 -2.4 100 -2.4 1 0 970.4 NA 0.0000 -SN 9999 0 0 0 1610
2019/10/28 07:57:01 BASE 7.80 355 8.95 1 -2.4 100 -2.4 1 0 970.4 NA 0.0000 -SN 9999 0 0 0 2070
2019/10/28 07:58:01 BASE 8.06 2 9.36 3 -2.3 100 -2.3 1 0 970.4 NA 0.0000 -SN 9999 200 0 0 0
2019/10/28 07:59:01 BASE 8.52 4 9.62 6 -2.3 100 -2.3 1 0 970.4 NA 0.0000 -SN 9999 260 0 0 0
2019/10/28 08:00:01 BASE 8.78 5 9.77 6 -2.3 100 -2.3 1 0 970.4 NA 0.0000 9999 300 0 0 0
2019/10/28 08:01:01 BASE 8.49 4 9.77 6 -2.3 100 -2.3 1 0 970.4 NA 0.0000 9999 300 0 0 0
2019/10/28 08:02:01 BASE 7.99 5 9.77 6 -2.3 100 -2.3 1 0 970.4 NA 0.0000 9999 330 0 0 0
2019/10/28 08:03:01 BASE 8.06 6 9.77 6 -2.3 100 -2.3 2 0 970.4 NA 0.0000 9999 360 0 0 0
2019/10/28 08:04:01 BASE 8.16 6 9.77 6 -2.3 100 -2.3 2 0 970.4 NA 0.0000 9999 360 0 0 0
2019/10/28 08:05:01 BASE 8.12 3 9.77 6 -2.3 100 -2.3 2 0 970.4 NA 0.0000 9999 330 0 0 0
2019/10/28 08:06:01 BASE 8.60 1 9.98 353 -2.2 100 -2.2 2 0 970.4 NA 0.0000 9999 330 0 0 0
2019/10/28 08:07:02 BASE 8.94 360 9.98 353 -2.2 100 -2.2 2 0 970.4 NA 0.0000 9999 330 0 0 0
2019/10/28 08:08:01 BASE 8.47 3 9.98 353 -2.2 100 -2.2 2 0 970.4 NA 0.0000 9999 330 0 0 0
2019/10/28 08:09:01 BASE 8.21 5 9.98 353 -2.2 100 -2.2 2 0 970.4 NA 0.0000 9999 330 0 0 0
2019/10/28 08:10:02 BASE 8.38 5 9.98 353 -2.2 100 -2.2 3 0 970.4 NA 0.0000 9999 300 0 0 0
2019/10/28 08:11:01 BASE 7.99 4 9.98 353 -2.2 100 -2.2 3 0 970.4 NA 0.0000 9999 0 0 0 2100
2019/10/28 08:12:01 BASE 7.03 6 9.98 353 -2.2 100 -2.2 3 0 970.4 NA 0.0000 9999 1050 0 0 0
2019/10/28 08:13:01 BASE 7.58 8 9.98 353 -2.2 100 -2.2 3 0 970.4 NA 0.0000 9999 300 0 0 0
2019/10/28 08:14:01 BASE 7.85 6 9.98 353 -2.2 100 -2.2 3 0 970.4 NA 0.0000 9999 260 0 0 0
2019/10/28 08:15:00 BASE 7.41 5 9.98 353 -2.2 100 -2.2 3 0 970.3 NA 0.0000 9999 260 0 0 0
2019/10/28 08:16:01 BASE 7.43 6 9.57 2 -2.2 100 -2.2 4 0 970.4 NA 0.0000 9999 0 0 0 1940
2019/10/28 08:17:01 BASE 7.52 8 9.31 6 -2.2 100 -2.2 4 0 970.3 NA 0.0000 9999 0 0 0 1840
2019/10/28 08:18:01 BASE 8.05 13 9.31 6 -2.2 100 -2.2 4 0 970.4 NA 0.0000 9999 260 0 0 0
2019/10/28 08:19:01 BASE 7.89 10 9.31 6 -2.2 100 -2.2 4 0 970.4 NA 0.0000 9999 260 0 0 0
2019/10/28 08:20:01 BASE 7.14 7 9.31 6 -2.2 100 -2.2 4 0 970.4 NA 0.0000 9999 0 0 0 1840
2019/10/28 08:21:01 BASE 7.23 8 9.31 6 -2.2 100 -2.2 5 0 970.4 NA 0.0000 -SN 9999 260 0 0 0
2019/10/28 08:22:01 BASE 7.92 8 9.31 4 -2.2 100 -2.2 5 0 970.4 NA 0.0000 -SN 9999 0 0 0 1840
2019/10/28 08:23:01 BASE 7.64 11 9.31 4 -2.2 100 -2.2 5 0 970.4 NA 0.0000 -SN 9999 260 0 0 0
2019/10/28 08:24:01 BASE 6.64 9 9.31 4 -2.2 100 -2.2 5 0 970.4 NA 0.0000 -SN 9999 230 0 0 0
2019/10/28 08:25:01 BASE 6.29 5 9.31 4 -2.2 100 -2.2 5 0 970.4 NA 0.0000 -SN 9999 260 0 0 0
2019/10/28 08:26:01 BASE 6.73 6 9.31 4 -2.2 100 -2.2 6 0 970.4 NA 0.0000 -SN 9999 260 0 0 0
2019/10/28 08:27:01 BASE 6.82 358 9.31 4 -2.2 100 -2.2 6 0 970.4 NA 0.0000 -SN 9999 260 0 0 0
2019/10/28 08:28:01 BASE 5.93 348 9.31 4 -2.2 100 -2.2 6 0 970.4 NA 0.0000 -SN 9999 260 0 0 0
2019/10/28 08:29:00 BASE 5.44 345 9.31 4 -2.2 100 -2.2 6 0 970.4 NA 0.0000 -SN 9999 260 0 0 0
2019/10/28 08:30:01 BASE 5.93 340 9.31 4 -2.2 100 -2.2 7 0 970.4 NA 0.0000 -SN 9999 260 0 0 0
2019/10/28 08:31:00 BASE 6.37 324 9.31 4 -2.2 100 -2.2 7 0 970.4 NA 0.0000 -SN 9999 260 0 0 0
2019/10/28 08:32:02 BASE 5.01 307 8.03 19 -2.2 100 -2.2 7 0 970.4 NA 0.0000 -SN 9999 260 0 0 0
2019/10/28 08:33:01 BASE 3.42 295 7.72 2 -2.2 100 -2.2 7 0 970.4 NA 0.0000 -SN 5000 300 0 0 0
2019/10/28 08:34:01 BASE 3.78 278 7.72 2 -2.2 100 -2.2 8 0 970.4 NA 0.0000 -SN BR 3700 0 0 0 1870
2019/10/28 08:35:01 BASE 3.22 259 7.72 2 -2.3 100 -2.3 8 0 970.4 NA 0.0000 -SN BR 4000 300 0 0 0
2019/10/28 08:36:00 BASE 2.64 224 7.72 2 -2.3 100 -2.3 8 0 970.4 NA 0.0000 -SN BR 2300 300 0 0 0
2019/10/28 08:37:01 BASE 3.28 199 7.61 319 -2.3 100 -2.3 9 0 970.4 NA 0.0000 -SN BR 1900 300 0 0 0
2019/10/28 08:38:00 BASE 3.86 191 7.61 319 -2.3 100 -2.3 9 0 970.4 NA 0.0000 -SN BR 1600 260 0 0 0
2019/10/28 08:39:01 BASE 4.38 185 7.61 319 -2.4 100 -2.4 9 0 970.4 NA 0.0000 -SN BR 1600 230 0 0 0
2019/10/28 08:40:00 BASE 4.37 180 7.61 319 -2.4 100 -2.4 10 0 970.4 NA 0.0000 -SN BR 1500 0 0 0 1900
2019/10/28 08:41:01 BASE 4.05 184 5.71 256 -2.4 100 -2.4 10 0 970.4 NA 0.0000 -SN BR 1700 0 0 0 1900
2019/10/28 08:42:01 BASE 4.20 195 5.71 256 -2.4 100 -2.4 10 0 970.4 NA 0.0000 -SN BR 1700 0 0 0 1670
2019/10/28 08:43:00 BASE 4.91 206 5.71 256 -2.4 100 -2.4 10 0 970.4 NA 0.0000 -SN BR 1700 0 0 0 1570
2019/10/28 08:44:01 BASE 4.83 214 5.61 206 -2.5 100 -2.5 11 0 970.4 NA 0.0000 -SN BR 1600 0 0 0 1210
2019/10/28 08:45:01 BASE 3.93 228 5.61 206 -2.5 100 -2.5 11 0 970.4 NA 0.0000 -SN BR 1600 0 0 0 1440
2019/10/28 08:46:01 BASE 3.05 238 5.61 206 -2.5 100 -2.5 11 0 970.4 NA 0.0000 -SN BR 2000 0 0 0 1480
2019/10/28 08:47:01 BASE 3.04 232 5.61 206 -2.5 100 -2.5 12 0 970.4 NA 0.0000 -SN BR 2000 0 0 0 1670
2019/10/28 08:48:00 BASE 3.44 224 5.61 206 -2.5 100 -2.5 12 0 970.4 NA 0.0000 -SN BR 2300 0 0 0 1740
2019/10/28 08:49:00 BASE 3.36 218 5.61 206 -2.5 100 -2.5 13 0 970.4 NA 0.0000 -SN BR 2700 0 0 0 1970
2019/10/28 08:50:01 BASE 3.37 212 5.61 206 -2.5 100 -2.5 13 0 970.4 NA 0.0000 -SN BR 2500 0 0 0 1740
2019/10/28 08:51:01 BASE 3.56 210 5.61 206 -2.5 100 -2.5 14 0 970.4 NA 0.0000 -SN BR 2200 0 0 0 1770
2019/10/28 08:52:00 BASE 4.09 216 5.61 206 -2.5 100 -2.5 14 0 970.4 NA 0.0000 -SN BR 2000 0 0 0 1870
2019/10/28 08:53:01 BASE 4.93 231 5.92 241 -2.5 100 -2.5 15 0 970.4 NA 0.0000 -SN BR 2000 0 0 0 2200
2019/10/28 08:54:01 BASE 5.36 245 5.92 241 -2.5 100 -2.5 15 0 970.4 NA 0.0000 -SN BR 2900 0 0 0 2070
2019/10/28 08:55:00 BASE 5.14 253 5.92 241 -2.5 100 -2.5 16 0 970.4 NA 0.0000 -SN BR 3800 0 0 0 2070
2019/10/28 08:56:01 BASE 4.47 261 5.92 241 -2.5 100 -2.5 16 0 970.3 NA 0.0000 -SN BR 3300 0 0 0 2230
2019/10/28 08:57:00 BASE 2.81 240 5.92 241 -2.5 100 -2.5 17 0 970.4 NA 0.0000 -SN BR 2400 0 0 0 1870
2019/10/28 08:58:01 BASE 2.62 214 5.92 241 -2.5 100 -2.5 17 0 970.4 NA 0.0000 -SN BR 2400 0 0 0 1800
2019/10/28 08:59:01 BASE 4.48 227 6.22 248 -2.5 100 -2.5 18 0 970.3 NA 0.0000 -SN BR 2200 0 0 0 2260
2019/10/28 09:00:01 BASE 5.49 233 7.05 228 -2.5 100 -2.5 18 0 970.3 NA 0.0000 -SN BR 2200 0 0 0 2200
2019/10/28 09:01:00 BASE 5.24 225 7.05 228 -2.4 100 -2.4 19 0 970.3 NA 0.0000 -SN BR 2100 0 0 0 2170
2019/10/28 09:02:01 BASE 5.55 221 7.05 228 -2.4 100 -2.4 19 0 970.3 NA 0.0000 -SN BR 1900 0 0 0 2130
2019/10/28 09:03:01 BASE 5.86 218 7.05 228 -2.4 100 -2.4 20 0 970.3 NA 0.0000 -SN BR 2100 0 0 0 2070
2019/10/28 09:04:01 BASE 5.19 218 7.05 228 -2.5 100 -2.5 20 0 970.3 NA 0.0000 -SN BR 2200 0 0 0 2170
2019/10/28 09:05:01 BASE 4.15 220 7.05 228 -2.5 100 -2.5 21 0 970.3 NA 0.0000 -SN BR 2100 0 0 0 1710
2019/10/28 09:06:00 BASE 2.81 225 7.05 228 -2.5 100 -2.5 21 0 970.3 NA 0.0000 -SN BR 2200 0 0 0 1570
2019/10/28 09:07:01 BASE 2.93 233 7.05 228 -2.5 100 -2.5 22 0 970.3 NA 0.0000 -SN BR 2200 0 0 0 1670
2019/10/28 09:08:01 BASE 4.30 237 7.05 228 -2.5 100 -2.5 22 0 970.3 NA 0.0000 -SN BR 2200 0 0 0 1710
2019/10/28 09:09:00 BASE 4.97 236 7.05 228 -2.5 100 -2.5 22 0 970.3 NA 0.0000 -SN BR 2000 0 0 0 1840
2019/10/28 09:10:02 BASE 5.32 235 6.74 219 -2.5 100 -2.5 23 0 970.3 NA 0.0000 -SN BR 2500 0 0 0 1710
2019/10/28 09:11:01 BASE 5.18 235 6.74 219 -2.5 100 -2.5 23 0 970.3 NA 0.0000 -SN BR 2100 0 0 0 1710
2019/10/28 09:12:00 BASE 4.70 231 6.48 218 -2.5 100 -2.5 23 0 970.3 NA 0.0000 -SN BR 2100 0 0 0 1640
2019/10/28 09:13:01 BASE 4.30 233 6.17 234 -2.5 100 -2.5 24 0 970.3 NA 0.0000 -SN BR 2300 0 0 0 1670
2019/10/28 09:14:00 BASE 3.91 240 6.17 234 -2.5 100 -2.5 24 0 970.3 NA 0.0000 -SN BR 2000 0 0 0 1740
2019/10/28 09:15:01 BASE 4.02 237 6.17 234 -2.5 100 -2.5 24 0 970.3 NA 0.0000 -SN BR 2500 0 0 0 1640
2019/10/28 09:16:01 BASE 4.41 237 6.17 234 -2.5 100 -2.5 25 0 970.3 NA 0.0000 -SN BR 2400 0 0 0 1670
2019/10/28 09:17:02 BASE 4.90 239 6.17 234 -2.5 100 -2.5 25 0 970.3 NA 0.0000 -SN BR 2800 0 0 0 1610
2019/10/28 09:18:01 BASE 4.99 241 6.17 234 -2.5 100 -2.5 25 0 970.3 NA 0.0000 -SN BR 2700 0 0 0 1710
2019/10/28 09:19:01 BASE 4.95 246 6.17 234 -2.5 100 -2.5 26 0 970.3 NA 0.0000 -SN BR 3200 0 0 0 1900
2019/10/28 09:20:01 BASE 4.79 248 5.61 234 -2.6 100 -2.6 26 0 970.3 NA 0.0000 -SN BR 4000 0 0 0 2200
2019/10/28 09:21:01 BASE 4.37 251 5.45 244 -2.6 100 -2.6 26 0 970.3 NA 0.0000 -SN BR 3600 0 0 0 2200
2019/10/28 09:22:01 BASE 4.08 257 5.45 244 -2.6 100 -2.6 27 0 970.3 NA 0.0000 -SN BR 3200 0 0 0 2170
2019/10/28 09:23:01 BASE 3.71 263 5.45 244 -2.6 100 -2.6 27 0 970.3 NA 0.0000 -SN BR 4600 0 0 0 1870
2019/10/28 09:24:01 BASE 3.30 269 5.45 244 -2.6 100 -2.6 28 0 970.3 NA 0.0000 -SN BR 5000 0 0 0 1900
2019/10/28 09:25:00 BASE 3.30 270 5.45 244 -2.6 100 -2.6 28 0 970.3 NA 0.0000 -SN BR 4900 0 0 0 2030
2019/10/28 09:26:00 BASE 3.28 274 5.45 244 -2.6 100 -2.6 29 0 970.2 NA 0.0000 -SN BR 3800 0 0 0 2130
2019/10/28 09:27:00 BASE 3.47 280 5.14 252 -2.6 100 -2.6 29 0 970.2 NA 0.0000 -SN BR 3900 0 0 0 2100
2019/10/28 09:28:01 BASE 3.84 283 5.14 252 -2.6 100 -2.6 30 0 970.2 NA 0.0000 -SN BR 4400 0 0 0 2130
2019/10/28 09:29:01 BASE 3.95 282 5.14 252 -2.6 100 -2.6 31 0 970.2 NA 0.0000 -SN BR 4800 0 0 0 2170
2019/10/28 09:30:00 BASE 3.89 281 4.89 258 -2.6 100 -2.6 32 0 970.2 NA 0.2540 -SN BR 5000 0 0 0 2100
2019/10/28 09:31:01 BASE 3.61 283 4.89 258 -2.6 100 -2.6 32 0 970.2 NA 0.0000 -SN BR 5000 0 0 0 2130
2019/10/28 09:32:00 BASE 3.47 286 4.32 286 -2.6 100 -2.6 33 0 970.2 NA 0.0000 -SN BR 5000 0 0 0 2030
2019/10/28 09:33:01 BASE 3.32 288 4.32 286 -2.6 100 -2.6 34 0 970.2 NA 0.0000 -SN BR 5000 0 0 0 2030
2019/10/28 09:34:00 BASE 3.47 289 4.32 286 -2.6 100 -2.6 35 0 970.2 NA 0.0000 -SN BR 4400 0 0 0 2130
2019/10/28 09:35:00 BASE 4.10 290 4.58 284 -2.6 100 -2.6 36 0 970.2 NA 0.0000 -SN BR 4700 0 0 0 2000
2019/10/28 09:36:01 BASE 4.32 290 4.58 292 -2.6 100 -2.6 37 0 970.2 NA 0.0000 -SN BR 5000 0 0 0 2100
2019/10/28 09:37:01 BASE 4.36 291 4.68 290 -2.6 100 -2.6 37 0 970.1 NA 0.0000 -SN BR 4600 0 0 0 2070
2019/10/28 09:38:01 BASE 4.39 293 4.68 290 -2.7 100 -2.7 38 0 970.2 NA 0.0000 -SN BR 4600 0 0 0 1970
2019/10/28 09:39:01 BASE 4.12 294 4.68 290 -2.7 100 -2.7 38 0 970.2 NA 0.0000 -SN BR 4300 0 0 0 2070
2019/10/28 09:40:01 BASE 3.80 293 4.68 290 -2.7 100 -2.7 39 0 970.2 NA 0.0000 -SN BR 3800 0 0 0 2100
2019/10/28 09:41:01 BASE 3.66 293 4.68 290 -2.7 100 -2.7 39 0 970.2 NA 0.0000 -SN BR 3900 0 0 0 2070
2019/10/28 09:42:01 BASE 3.69 292 4.68 290 -2.7 100 -2.7 40 0 970.2 NA 0.0000 -SN BR 3600 0 0 0 2200
2019/10/28 09:43:01 BASE 3.77 292 4.68 290 -2.7 100 -2.7 40 0 970.2 NA 0.0000 -SN BR 4200 0 0 0 2130
2019/10/28 09:44:01 BASE 3.88 294 4.68 290 -2.7 100 -2.7 41 0 970.2 NA 0.0000 -SN BR 3600 0 0 0 2070
2019/10/28 09:45:01 BASE 3.89 298 4.68 290 -2.7 100 -2.7 41 0 970.2 NA 0.0000 -SN BR 4200 0 0 0 2170
2019/10/28 09:46:01 BASE 3.62 299 4.68 290 -2.7 100 -2.7 42 0 970.2 NA 0.0000 -SN BR 4000 0 0 0 2400
2019/10/28 09:47:02 BASE 3.48 299 4.53 293 -2.7 100 -2.7 42 0 970.2 NA 0.0000 -SN BR 3500 0 0 0 2170
2019/10/28 09:48:01 BASE 3.61 303 4.17 297 -2.7 100 -2.7 43 0 970.2 NA 0.0000 -SN BR 4200 0 0 0 2230
2019/10/28 09:49:00 BASE 3.75 309 4.22 312 -2.7 100 -2.7 44 0 970.2 NA 0.0000 -SN BR 4300 0 0 0 2260
2019/10/28 09:50:01 BASE 3.87 311 4.22 312 -2.6 100 -2.6 44 0 970.2 NA 0.0000 -SN BR 5000 0 0 0 2300
2019/10/28 09:51:01 BASE 3.94 310 4.22 312 -2.6 100 -2.6 45 0 970.2 NA 0.0000 -SN BR 5000 0 0 0 2260
2019/10/28 09:52:01 BASE 3.87 310 4.22 312 -2.7 100 -2.7 46 0 970.2 NA 0.0000 -SN BR 4800 0 0 0 2360
2019/10/28 09:53:00 BASE 3.54 311 4.22 312 -2.7 100 -2.7 47 0 970.2 NA 0.0000 -SN BR 4600 0 0 0 2170
2019/10/28 09:54:00 BASE 3.54 314 4.22 312 -2.7 100 -2.7 47 0 970.2 NA 0.0000 -SN BR 4800 0 0 0 2230
2019/10/28 09:55:00 BASE 3.61 313 4.22 312 -2.7 100 -2.7 48 0 970.1 NA 0.0000 -SN BR 8000 0 0 0 2460
2019/10/28 09:56:01 BASE 3.63 310 4.22 312 -2.7 100 -2.7 49 0 970.1 NA 0.0000 -SN BR 5000 0 0 0 2360
2019/10/28 09:57:01 BASE 3.73 309 4.22 312 -2.7 100 -2.7 50 0 970.1 NA 0.0000 -SN BR 5000 0 0 0 2230
2019/10/28 09:58:00 BASE 3.51 310 4.22 312 -2.7 100 -2.7 51 0 970.2 NA 0.0000 -SN BR 5000 0 0 0 2170
2019/10/28 09:59:01 BASE 3.22 311 4.12 312 -2.7 100 -2.7 52 0 970.2 NA 0.0000 -SN BR 6000 0 0 0 2260
2019/10/28 10:00:00 BASE 3.09 313 4.06 306 -2.7 100 -2.7 53 0 970.1 NA 0.0000 -SN BR 4800 0 0 0 2200
2019/10/28 10:01:00 BASE 3.30 313 4.17 310 -2.7 100 -2.7 53 0 970.1 NA 0.0000 -SN BR 5000 0 0 0 2130
2019/10/28 10:02:00 BASE 3.54 315 4.17 310 -2.7 100 -2.7 54 0 970.1 NA 0.0000 -SN BR 7000 0 0 0 2300
2019/10/28 10:03:00 BASE 3.47 317 4.17 310 -2.6 100 -2.6 55 0 970.1 NA 0.0000 -SN BR 6000 0 0 0 2660
2019/10/28 10:04:00 BASE 3.42 315 4.17 310 -2.6 100 -2.6 56 0 970.1 NA 0.0000 -SN BR 9000 0 0 0 3220
2019/10/28 10:05:00 BASE 3.41 313 4.17 310 -2.6 100 -2.6 56 0 970.1 NA 0.0000 -SN BR 6000 0 0 0 3280
2019/10/28 10:06:00 BASE 3.07 313 4.17 310 -2.6 100 -2.6 57 0 970.1 NA 0.0000 -SN BR 6000 0 0 0 3250
2019/10/28 10:07:00 BASE 2.76 312 4.17 310 -2.7 100 -2.7 58 0 970.1 NA 0.0000 -SN BR 4200 0 0 0 3250
2019/10/28 10:08:00 BASE 2.51 312 4.17 310 -2.7 100 -2.7 58 0 970.1 NA 0.0000 -SN BR 4200 0 0 0 3280
2019/10/28 10:09:00 BASE 2.40 312 4.17 310 -2.7 100 -2.7 59 0 970.1 NA 0.0000 -SN BR 4300 0 0 0 3310
2019/10/28 10:10:01 BASE 2.45 310 4.17 310 -2.7 100 -2.7 60 0 970.1 NA 0.0000 -SN BR 3700 0 0 0 3180
2019/10/28 10:11:00 BASE 2.35 307 3.81 319 -2.7 100 -2.7 60 0 970.1 NA 0.2540 -SN BR 3700 0 0 0 3280
2019/10/28 10:12:02 BASE 2.04 303 3.65 310 -2.6 100 -2.6 61 0 970.1 NA 0.0000 -SN BR 3600 0 0 0 3280
2019/10/28 10:13:00 BASE 1.86 300 3.65 310 -2.6 100 -2.6 62 0 970.1 NA 0.0000 -SN BR 3800 1900 0 0 0
2019/10/28 10:14:00 BASE 1.97 301 3.60 312 -2.6 100 -2.6 63 0 970.1 NA 0.0000 -SN BR 3600 200 0 0 0
2019/10/28 10:15:01 BASE 1.83 300 3.04 310 -2.6 100 -2.6 63 0 970.1 NA 0.0000 -SN BR 4200 160 0 0 0
2019/10/28 10:16:00 BASE 1.43 285 2.88 310 -2.7 100 -2.7 64 0 970.1 NA 0.0000 -SN BR 3900 0 0 0 3150
2019/10/28 10:17:01 BASE 0.65 266 2.73 314 -2.7 100 -2.7 64 0 970.1 NA 0.0000 -SN BR 4100 0 0 0 3150
2019/10/28 10:18:00 BASE 0.57 261 2.68 310 -2.7 100 -2.7 65 0 970.1 NA 0.0000 -SN BR 3800 0 0 0 3220
2019/10/28 10:19:01 BASE 0.99 264 2.62 308 -2.7 100 -2.7 65 0 970.1 NA 0.0000 -SN BR 3000 0 0 0 3180
2019/10/28 10:20:00 BASE 0.83 261 2.52 306 -2.7 100 -2.7 66 0 970.1 NA 0.0000 -SN BR 3200 0 0 0 2920
2019/10/28 10:21:00 BASE 1.19 252 2.06 299 -2.7 100 -2.7 66 0 970.1 NA 0.0000 -SN BR 3100 0 0 0 2820
2019/10/28 10:22:00 BASE 1.75 248 2.11 239 -2.7 100 -2.7 68 0 970.1 NA 0.0000 -SN BR 3300 0 0 0 2890
2019/10/28 10:23:00 BASE 1.95 242 2.21 238 -2.7 100 -2.7 69 0 970.1 NA 0.0000 -SN BR 3100 0 0 0 2200
2019/10/28 10:24:00 BASE 2.07 237 2.21 238 -2.7 100 -2.7 70 0 970.1 NA 0.0000 -SN BR 2800 0 0 0 2300
2019/10/28 10:25:01 BASE 2.04 232 2.21 238 -2.7 100 -2.7 71 0 970.1 NA 0.0000 -SN BR 2400 0 0 0 2170
2019/10/28 10:26:01 BASE 2.00 229 2.21 238 -2.7 100 -2.7 72 0 970.1 NA 0.0000 -SN BR 2400 0 0 0 2130
2019/10/28 10:27:01 BASE 1.82 232 2.21 238 -2.7 100 -2.7 73 0 970.1 NA 0.0000 -SN BR 2400 0 0 0 2130
2019/10/28 10:28:01 BASE 1.52 230 2.21 238 -2.7 100 -2.7 73 0 970.1 NA 0.0000 -SN BR 2700 21790 22380 0 0
2019/10/28 10:29:01 BASE 1.53 224 2.21 238 -2.7 100 -2.7 75 0 970.1 NA 0.0000 -SN BR 2400 0 0 0 2070
2019/10/28 10:30:00 BASE 1.92 226 2.31 224 -2.7 100 -2.7 75 0 970.1 NA 0.0000 -SN BR 2100 0 0 0 2070
2019/10/28 10:31:01 BASE 2.09 233 2.57 224 -2.7 100 -2.7 76 0 970.1 NA 0.0000 -SN BR 2700 0 0 0 2130
2019/10/28 10:32:00 BASE 1.53 231 2.57 224 -2.7 100 -2.7 77 0 970.1 NA 0.0000 -SN BR 2700 230 0 0 0
2019/10/28 10:33:01 BASE 1.41 228 2.57 224 -2.7 100 -2.7 78 0 970.1 NA 0.0000 -SN BR 2600 0 0 0 2070
2019/10/28 10:34:00 BASE 1.66 233 2.57 224 -2.7 100 -2.7 79 0 970.1 NA 0.0000 -SN BR 2600 0 0 0 2100
2019/10/28 10:35:01 BASE 1.49 236 2.57 224 -2.7 100 -2.7 79 0 970.1 NA 0.0000 -SN BR 2100 0 0 0 2100
2019/10/28 10:36:00 BASE 1.36 239 2.57 224 -2.7 100 -2.7 79 0 970.1 NA 0.2540 -SN BR 2300 0 0 0 2000
2019/10/28 10:37:00 BASE 1.22 242 2.57 224 -2.7 100 -2.7 80 0 970.1 NA 0.0000 -SN BR 2300 0 0 0 1870
2019/10/28 10:38:01 BASE 0.78 241 2.57 224 -2.7 100 -2.7 80 0 970.1 NA 0.0000 -SN BR 2300 0 0 0 1940
2019/10/28 10:39:01 BASE 0.40 240 2.57 224 -2.7 100 -2.7 80 0 970.0 NA 0.0000 -SN BR 2300 0 0 0 1940
2019/10/28 10:40:01 BASE 0.90 242 2.57 224 -2.7 100 -2.7 79 0 969.9 NA 0.0000 -SN BR 2600 0 0 0 1970
2019/10/28 10:41:01 BASE 1.24 244 1.95 223 -2.7 100 -2.7 78 0 969.9 NA 0.0000 -SN BR 2500 0 0 0 2170
2019/10/28 10:42:00 BASE 0.94 248 1.95 223 -2.8 100 -2.8 77 0 969.9 NA 0.0000 -SN BR 2600 0 0 0 2300
2019/10/28 10:43:00 BASE 1.17 252 1.80 246 -2.8 100 -2.8 76 0 969.9 NA 0.0000 -SN BR 3500 0 0 0 2530
2019/10/28 10:44:00 BASE 1.33 259 1.80 246 -2.8 100 -2.8 76 0 969.9 NA 0.2540 -SN BR 3800 0 0 0 2530
2019/10/28 10:45:01 BASE 1.20 254 1.80 246 -2.8 100 -2.8 74 0 969.9 NA 0.0000 -SN BR 3600 0 0 0 3020
2019/10/28 10:46:01 BASE 0.84 249 1.80 246 -2.8 100 -2.8 73 0 969.9 NA 0.0000 -SN BR 3700 0 0 0 2660
2019/10/28 10:47:01 BASE 0.22 258 1.80 246 -2.8 100 -2.8 72 0 969.9 NA 0.0000 -SN BR 4400 0 0 0 2720
2019/10/28 10:48:01 BASE 0.00 260 1.80 246 -2.8 100 -2.8 70 0 969.9 NA 0.0000 -SN BR 3900 0 0 0 2890
2019/10/28 10:49:00 BASE 0.00 260 1.80 246 -2.8 100 -2.8 69 0 969.9 NA 0.0000 -SN BR 3900 0 0 0 3120
2019/10/28 10:50:01 BASE 0.00 261 1.65 262 -2.8 100 -2.8 68 0 969.9 NA 0.0000 -SN BR 3700 0 0 0 3120
2019/10/28 10:51:00 BASE 0.00 262 1.65 262 -2.8 100 -2.8 67 0 969.9 NA 0.0000 -SN BR 5000 0 0 0 3220
2019/10/28 10:52:01 BASE 0.00 251 1.65 262 -2.8 100 -2.8 67 0 969.9 NA 0.0000 -SN BR 6000 0 0 0 3080
2019/10/28 10:53:01 BASE 0.28 231 1.65 262 -2.8 100 -2.8 66 0 969.9 NA 0.0000 -SN BR 4300 0 0 0 3020
2019/10/28 10:54:00 BASE 1.01 226 1.65 228 -2.8 100 -2.8 66 0 969.9 NA 0.0000 -SN BR 3500 0 0 0 3020
2019/10/28 10:55:01 BASE 1.64 233 2.01 238 -2.8 100 -2.8 65 0 969.9 NA 0.0000 -SN BR 4400 0 0 0 3080
2019/10/28 10:56:01 BASE 1.88 235 2.26 238 -2.8 100 -2.8 65 0 969.9 NA 0.0000 -SN BR 4900 0 0 0 2990
2019/10/28 10:57:00 BASE 1.64 226 2.26 238 -2.8 100 -2.8 65 0 969.8 NA 0.0000 -SN BR 4800 0 0 0 3050
2019/10/28 10:58:00 BASE 1.42 224 2.26 238 -2.8 100 -2.8 65 0 969.8 NA 0.2540 -SN BR 4100 0 0 0 2920
2019/10/28 10:59:00 BASE 1.58 228 2.26 238 -2.8 100 -2.8 64 0 969.8 NA 0.0000 -SN BR 4100 0 0 0 2430
2019/10/28 11:00:01 BASE 1.46 233 2.26 238 -2.8 100 -2.8 64 0 969.8 NA 0.0000 -SN BR 4200 0 0 0 2790
2019/10/28 11:01:00 BASE 1.09 228 2.26 238 -2.8 100 -2.8 64 0 969.8 NA 0.0000 -SN BR 4200 0 0 0 2890
2019/10/28 11:02:01 BASE 1.35 200 2.26 238 -2.8 100 -2.8 64 0 969.8 NA 0.0000 -SN BR 3900 0 0 0 2790
2019/10/28 11:03:01 BASE 1.83 184 2.31 183 -2.8 100 -2.8 64 0 969.8 NA 0.0000 -SN BR 3400 300 0 0 0
2019/10/28 11:04:01 BASE 2.05 190 2.31 197 -2.7 100 -2.8 64 0 969.8 NA 0.0000 -SN BR 3400 260 0 0 0
2019/10/28 11:05:01 BASE 1.82 197 2.31 197 -2.8 100 -2.8 65 0 969.8 NA 0.0000 -SN BR 3400 0 0 0 2490
2019/10/28 11:06:01 BASE 1.12 206 2.31 197 -2.8 100 -2.8 65 0 969.8 NA 0.0000 -SN BR 3800 0 0 0 2530
2019/10/28 11:07:01 BASE 1.16 223 2.31 197 -2.8 100 -2.8 65 0 969.8 NA 0.0000 -SN BR 4700 0 0 0 2490
2019/10/28 11:08:01 BASE 1.72 220 2.31 197 -2.8 100 -2.8 65 0 969.8 NA 0.0000 -SN BR 4600 260 0 0 0
2019/10/28 11:09:00 BASE 2.23 209 2.68 209 -2.8 100 -2.8 66 0 969.8 NA 0.0000 -SN BR 3200 0 0 0 2330
2019/10/28 11:10:03 BASE 2.63 206 2.98 219 -2.7 100 -2.7 66 0 969.8 NA 0.0000 -SN BR 3000 0 0 0 2360
2019/10/28 11:11:01 BASE 2.60 206 2.98 219 -2.7 100 -2.7 67 0 969.8 NA 0.2540 -SN BR 3100 0 0 0 2620
2019/10/28 11:12:00 BASE 2.68 201 3.24 203 -2.7 100 -2.7 67 0 969.8 NA 0.0000 -SN BR 3200 0 0 0 2430
2019/10/28 11:13:01 BASE 2.83 197 3.24 203 -2.7 100 -2.7 68 0 969.8 NA 0.0000 -SN BR 3500 0 0 0 2330
2019/10/28 11:14:00 BASE 3.10 208 3.81 224 -2.7 100 -2.7 68 0 969.8 NA 0.0000 -SN BR 3800 0 0 0 2430
2019/10/28 11:15:00 BASE 2.86 228 3.81 224 -2.7 100 -2.7 69 0 969.8 NA 0.0000 -SN BR 5000 360 0 0 0
2019/10/28 11:16:00 BASE 2.56 245 3.81 248 -2.7 100 -2.7 69 0 969.8 NA 0.0000 -SN BR 9000 360 0 0 0
2019/10/28 11:17:01 BASE 2.72 246 3.81 248 -2.7 100 -2.7 69 0 969.8 NA 0.0000 -SN BR 9999 330 0 0 0
2019/10/28 11:18:00 BASE 2.68 235 3.81 248 -2.7 100 -2.7 69 0 969.8 NA 0.2540 -SN BR 9999 330 0 0 0
2019/10/28 11:19:00 BASE 2.96 227 4.84 226 -2.7 100 -2.7 70 0 969.8 NA 0.0000 -SN BR 8000 330 0 0 0
2019/10/28 11:20:00 BASE 2.69 220 4.84 226 -2.7 100 -2.7 70 0 969.8 NA 0.0000 -SN BR 6000 330 0 0 0
2019/10/28 11:21:00 BASE 2.63 225 4.84 226 -2.7 100 -2.7 70 0 969.8 NA 0.0000 -SN BR 5000 0 0 0 2560
2019/10/28 11:22:00 BASE 2.73 232 4.84 226 -2.7 100 -2.7 70 0 969.8 NA 0.0000 -SN BR 5000 0 0 0 2620
2019/10/28 11:23:00 BASE 2.15 235 4.84 226 -2.7 100 -2.7 71 0 969.8 NA 0.0000 -SN BR 7000 0 0 0 2690
2019/10/28 11:24:00 BASE 2.10 229 4.84 226 -2.8 100 -2.8 71 0 969.8 NA 0.0000 -SN BR 8000 22380 0 0 0
2019/10/28 11:25:01 BASE 2.47 234 4.84 226 -2.8 100 -2.8 71 0 969.8 NA 0.0000 -SN BR 5000 0 0 0 2820
2019/10/28 11:26:01 BASE 2.42 265 4.84 226 -2.8 100 -2.8 72 0 969.8 NA 0.0000 -SN BR 6000 330 0 0 0
2019/10/28 11:27:00 BASE 1.14 272 4.84 226 -2.8 100 -2.8 71 0 969.8 NA 0.0000 -SN BR 9999 0 0 0 2660
2019/10/28 11:28:00 BASE 0.05 259 4.84 226 -2.8 100 -2.8 71 0 969.8 NA 0.0000 -SN BR 9000 0 0 0 2400
2019/10/28 11:29:00 BASE 0.40 248 3.45 263 -2.7 100 -2.7 71 0 969.8 NA 0.0000 -SN BR 9000 0 0 0 2430
2019/10/28 11:30:00 BASE 1.67 236 3.45 263 -2.7 100 -2.7 71 0 969.8 NA 0.0000 -SN BR 8000 0 0 0 2460
2019/10/28 11:31:01 BASE 2.33 251 3.45 263 -2.7 100 -2.7 71 0 969.8 NA 0.2540 -SN BR 8000 0 0 0 2230
2019/10/28 11:32:00 BASE 2.42 288 3.45 263 -2.7 100 -2.7 71 0 969.8 NA 0.0000 -SN BR 9999 0 0 0 2400
2019/10/28 11:33:01 BASE 1.59 296 3.45 263 -2.7 100 -2.7 71 0 969.8 NA 0.0000 -SN BR 9999 0 0 0 2360
2019/10/28 11:34:00 BASE 0.23 320 3.45 263 -2.7 100 -2.7 71 0 969.8 NA 0.0000 -SN BR 9999 0 0 0 2490
2019/10/28 11:35:00 BASE 0.00 338 3.45 263 -2.7 100 -2.7 71 0 969.8 NA 0.0000 -SN BR 8000 0 0 0 2300
2019/10/28 11:36:00 BASE 0.41 301 3.40 311 -2.7 100 -2.7 71 0 969.8 NA 0.0000 -SN BR 7000 0 0 0 2330
2019/10/28 11:37:00 BASE 0.82 283 3.40 311 -2.7 100 -2.7 71 0 969.8 NA 0.0000 -SN BR 8000 0 0 0 2130
2019/10/28 11:38:00 BASE 1.45 278 3.40 311 -2.7 100 -2.7 71 0 969.8 NA 0.0000 -SN BR 5000 0 0 0 2230
2019/10/28 11:39:00 BASE 2.09 279 3.40 311 -2.7 100 -2.7 71 0 969.8 NA 0.0000 -SN BR 4800 0 0 0 2330
2019/10/28 11:40:00 BASE 1.84 283 3.40 311 -2.7 100 -2.7 70 0 969.8 NA 0.0000 -SN BR 4500 300 0 0 0
2019/10/28 11:41:00 BASE 0.87 273 3.40 311 -2.7 100 -2.7 70 0 969.8 NA 0.0000 -SN BR 3600 790 0 0 0
2019/10/28 11:42:00 BASE 0.24 256 2.73 261 -2.7 100 -2.7 70 0 969.8 NA 0.0000 -SN BR 3000 0 0 0 2130
2019/10/28 11:43:00 BASE 0.88 249 2.73 261 -2.7 100 -2.7 70 0 969.8 NA 0.0000 -SN BR 2400 260 0 0 0
2019/10/28 11:44:00 BASE 1.29 249 2.73 261 -2.7 100 -2.7 70 0 969.8 NA 0.0000 -SN BR 3000 0 0 0 1900
2019/10/28 11:45:00 BASE 1.76 246 3.19 277 -2.7 100 -2.7 70 0 969.8 NA 0.0000 -SN BR 2500 0 0 0 2000
2019/10/28 11:46:00 BASE 2.72 258 4.32 258 -2.7 100 -2.7 70 0 969.8 NA 0.0000 -SN BR 2700 0 0 0 2170
2019/10/28 11:47:00 BASE 2.54 284 4.32 258 -2.7 100 -2.7 71 0 969.8 NA 0.0000 -SN BR 3800 820 22510 0 0
2019/10/28 11:48:00 BASE 1.98 297 4.32 258 -2.7 100 -2.7 71 0 969.8 NA 0.0000 -SN BR 3400 230 0 0 0
2019/10/28 11:49:01 BASE 1.75 292 4.32 258 -2.7 100 -2.7 70 0 969.8 NA 0.2540 -SN BR 3500 0 0 0 2130
2019/10/28 11:50:00 BASE 1.61 272 4.32 258 -2.7 100 -2.7 70 0 969.8 NA 0.0000 -SN BR 4100 0 0 0 2000
2019/10/28 11:51:01 BASE 1.80 249 4.32 258 -2.7 100 -2.7 70 0 969.8 NA 0.0000 -SN BR 3600 0 0 0 2030
2019/10/28 11:52:01 BASE 1.87 240 4.32 258 -2.7 100 -2.7 69 0 969.8 NA 0.0000 -SN BR 3000 0 0 0 2030
2019/10/28 11:53:01 BASE 1.80 241 4.32 258 -2.7 100 -2.7 68 0 969.8 NA 0.0000 -SN BR 2600 820 0 0 0
2019/10/28 11:54:00 BASE 2.03 253 4.32 258 -2.7 100 -2.7 68 0 969.8 NA 0.0000 -SN BR 2500 820 0 0 0
2019/10/28 11:55:01 BASE 2.11 278 4.32 258 -2.7 100 -2.7 68 0 969.8 NA 0.0000 -SN BR 3400 0 0 0 1940
2019/10/28 11:56:00 BASE 1.92 292 2.78 313 -2.7 100 -2.7 68 0 969.8 NA 0.0000 -SN BR 3500 790 0 0 0
2019/10/28 11:57:01 BASE 1.35 295 2.78 313 -2.7 100 -2.7 68 0 969.8 NA 0.0000 -SN BR 3200 0 0 0 1900
2019/10/28 11:58:01 BASE 1.45 280 2.78 313 -2.7 100 -2.7 67 0 969.8 NA 0.0000 -SN BR 3300 230 0 0 0
2019/10/28 11:59:01 BASE 1.76 259 2.78 313 -2.7 100 -2.7 66 0 969.8 NA 0.0000 -SN BR 3000 0 0 0 1940
2019/10/28 12:00:01 BASE 1.49 247 2.78 313 -2.7 100 -2.7 66 0 969.8 NA 0.0000 -SN BR 2500 790 0 0 0
2019/10/28 12:01:01 BASE 1.44 239 2.78 313 -2.7 100 -2.7 66 0 969.7 NA 0.0000 -SN BR 2300 0 0 0 1710
2019/10/28 12:02:01 BASE 1.38 251 2.78 313 -2.7 100 -2.7 66 0 969.7 NA 0.0000 -SN BR 2500 230 0 0 0
2019/10/28 12:03:00 BASE 1.87 283 2.78 313 -2.7 100 -2.7 66 0 969.6 NA 0.0000 -SN BR 2300 790 0 0 0
2019/10/28 12:04:01 BASE 2.40 311 2.78 323 -2.7 100 -2.7 67 0 969.7 NA 0.0000 -SN BR 3400 0 0 0 1800
2019/10/28 12:05:01 BASE 2.42 333 2.88 351 -2.7 100 -2.7 67 0 969.8 NA 0.0000 -SN BR 4200 0 0 0 1940
2019/10/28 12:06:01 BASE 2.23 348 2.88 351 -2.7 100 -2.7 67 0 969.8 NA 0.2540 -SN BR 3200 0 0 0 2430
2019/10/28 12:07:01 BASE 1.31 346 2.88 351 -2.7 100 -2.7 67 0 969.8 NA 0.0000 -SN BR 3000 0 0 0 1940
2019/10/28 12:08:01 BASE 0.67 29 2.88 351 -2.7 100 -2.7 67 0 969.8 NA 0.0000 -SN BR 2700 0 0 0 2490
2019/10/28 12:09:00 BASE 0.59 38 2.88 351 -2.7 100 -2.7 67 0 969.8 NA 0.0000 -SN BR 2100 230 0 0 0
2019/10/28 12:10:02 BASE 1.46 344 2.98 336 -2.7 100 -2.7 67 0 969.8 NA 0.0000 -SN BR 2400 260 0 0 0
2019/10/28 12:11:01 BASE 2.37 337 2.98 336 -2.7 100 -2.7 67 0 969.7 NA 0.0000 -SN BR 2800 0 0 0 2790
2019/10/28 12:12:00 BASE 2.72 334 4.53 338 -2.7 100 -2.7 68 0 969.7 NA 0.0000 -SN BR 2900 0 0 0 2660
2019/10/28 12:13:01 BASE 4.32 332 6.74 339 -2.7 100 -2.7 70 0 969.6 NA 0.0000 -SN BR 3600 0 0 0 2690
2019/10/28 12:14:01 BASE 6.07 340 7.41 342 -2.7 100 -2.7 72 0 969.6 NA 0.0000 -SN BR 9999 0 0 0 2760
2019/10/28 12:15:01 BASE 6.17 351 7.97 354 -2.7 100 -2.7 74 0 969.6 NA 0.0000 -SN BR 9999 21620 0 0 0
2019/10/28 12:16:01 BASE 5.68 355 7.97 354 -2.7 100 -2.7 75 0 969.5 NA 0.0000 -SN BR 9999 0 0 0 2790
2019/10/28 12:17:01 BASE 6.18 350 8.39 349 -2.7 100 -2.7 77 0 969.5 NA 0.0000 -SN BR 9999 0 0 0 3510
2019/10/28 12:18:00 BASE 7.21 349 8.39 349 -2.7 100 -2.7 80 0 969.5 NA 0.0000 -SN BR 9999 0 0 0 3580
2019/10/28 12:19:00 BASE 7.74 344 8.49 351 -2.7 100 -2.7 81 0 969.5 NA 0.0000 -SN BR 9999 300 0 0 0
2019/10/28 12:20:00 BASE 8.13 339 9.41 345 -2.7 100 -2.7 84 0 969.4 NA 0.0000 -SN BR 9999 0 0 0 3710
2019/10/28 12:21:00 BASE 8.13 337 9.41 345 -2.6 100 -2.6 86 0 969.5 NA 0.0000 -SN BR 9999 0 0 0 3640
2019/10/28 12:22:00 BASE 7.51 342 9.41 345 -2.6 100 -2.6 88 0 969.5 NA 0.0000 -SN 9999 0 0 0 4070
2019/10/28 12:23:00 BASE 7.07 344 9.41 345 -2.6 100 -2.6 91 0 969.5 NA 0.0000 -SN 9999 0 0 0 4530
2019/10/28 12:24:00 BASE 6.37 342 9.41 345 -2.5 100 -2.5 93 0 969.5 NA 0.0000 9999 0 0 0 4760
2019/10/28 12:25:01 BASE 6.17 345 9.41 345 -2.5 100 -2.5 95 0 969.5 NA 0.0000 9999 22510 0 0 0
2019/10/28 12:26:01 BASE 6.69 350 9.41 345 -2.5 100 -2.5 97 0 969.4 NA 0.0000 9999 330 0 0 0
2019/10/28 12:27:01 BASE 6.92 349 9.41 345 -2.5 100 -2.5 99 0 969.4 NA 0.0000 9999 330 0 0 0
2019/10/28 12:28:00 BASE 6.67 348 9.41 345 -2.5 100 -2.5 101 0 969.4 NA 0.0000 9999 330 0 0 0
2019/10/28 12:29:01 BASE 6.70 351 9.41 345 -2.5 100 -2.5 103 0 969.4 NA 0.0000 9999 330 0 0 0
2019/10/28 12:30:00 BASE 7.35 346 8.75 325 -2.5 100 -2.5 105 0 969.3 NA 0.0000 9999 330 0 0 0
2019/10/28 12:31:00 BASE 8.00 343 9.05 347 -2.4 100 -2.4 107 0 969.3 NA 0.0000 9999 330 0 0 0
2019/10/28 12:32:00 BASE 7.46 351 9.05 347 -2.4 100 -2.4 108 0 969.3 NA 0.0000 9999 360 0 0 0
2019/10/28 12:33:01 BASE 7.58 348 10.34 347 -2.4 100 -2.4 109 0 969.3 NA 0.0000 9999 360 0 0 0
2019/10/28 12:34:01 BASE 8.71 343 10.34 347 -2.4 100 -2.4 110 0 969.2 NA 0.0000 9999 390 0 0 0
2019/10/28 12:35:00 BASE 8.87 347 10.34 347 -2.4 100 -2.4 111 0 969.2 NA 0.0000 9999 390 19880 0 0
2019/10/28 12:36:00 BASE 8.29 346 10.34 347 -2.3 100 -2.3 112 0 969.2 NA 0.0000 9999 0 0 0 4790
2019/10/28 12:37:01 BASE 7.34 348 10.34 347 -2.3 100 -2.3 113 0 969.2 NA 0.0000 9999 0 0 0 4590
2019/10/28 12:38:01 BASE 7.54 354 10.34 347 -2.3 100 -2.3 115 0 969.2 NA 0.0000 9999 0 0 0 4760
2019/10/28 12:39:01 BASE 8.17 354 10.34 347 -2.2 100 -2.2 116 0 969.2 NA 0.0000 9999 2200 0 0 0
2019/10/28 12:40:00 BASE 8.47 348 10.34 347 -2.2 100 -2.2 117 0 969.2 NA 0.0000 9999 1280 0 0 0
2019/10/28 12:41:01 BASE 9.07 347 10.75 349 -2.2 100 -2.2 119 0 969.2 NA 0.0000 9999 1410 0 0 0
2019/10/28 12:42:00 BASE 9.08 348 10.75 349 -2.2 100 -2.2 120 0 969.2 NA 0.0000 9999 0 0 0 4100
2019/10/28 12:43:00 BASE 8.09 344 10.75 349 -2.2 100 -2.2 121 0 969.3 NA 0.0000 9999 0 0 0 3840
2019/10/28 12:44:00 BASE 8.38 339 10.75 349 -2.1 100 -2.1 123 0 969.3 NA 0.0000 9999 0 0 0 3770
2019/10/28 12:45:00 BASE 8.91 338 10.75 349 -2.1 100 -2.1 125 0 969.3 NA 0.0000 9999 0 0 0 3410
2019/10/28 12:46:00 BASE 7.69 336 10.75 349 -2.1 100 -2.1 127 0 969.3 NA 0.0000 9999 0 0 0 3640
2019/10/28 12:47:01 BASE 7.62 339 10.75 349 -2.1 100 -2.1 129 0 969.3 NA 0.0000 9999 0 0 0 4100
2019/10/28 12:48:00 BASE 9.30 342 11.47 346 -2.1 100 -2.1 131 0 969.2 NA 0.0000 9999 0 0 0 4170
2019/10/28 12:49:00 BASE 10.19 343 11.47 346 -2.0 100 -2.1 133 0 969.2 NA 0.0000 9999 0 0 0 3810
2019/10/28 12:50:01 BASE 10.32 339 11.63 329 -2.0 100 -2.0 136 0 969.2 NA 0.0000 9999 0 0 0 4070
2019/10/28 12:51:00 BASE 10.95 339 13.99 339 -2.0 100 -2.0 138 0 969.1 NA 0.0000 9999 0 0 0 3640
2019/10/28 12:52:01 BASE 11.01 345 13.99 339 -2.0 100 -2.0 141 0 969.2 NA 0.0000 9999 0 0 0 3640
2019/10/28 12:53:01 BASE 10.16 347 13.99 339 -2.0 100 -2.0 142 0 969.2 NA 0.0000 9999 23260 0 0 0
2019/10/28 12:54:01 BASE 9.17 346 13.99 339 -2.0 100 -2.0 143 0 969.2 NA 0.0000 9999 0 0 0 3870
2019/10/28 12:55:01 BASE 9.11 346 13.99 339 -2.0 100 -2.0 143 0 969.2 NA 0.0000 9999 0 0 0 3870
2019/10/28 12:56:00 BASE 8.59 348 13.99 339 -2.0 100 -2.0 144 0 969.2 NA 0.0000 9999 0 0 0 3900
2019/10/28 12:57:01 BASE 8.53 348 13.99 339 -2.0 100 -2.0 145 0 969.2 NA 0.0000 9999 0 0 0 3310
2019/10/28 12:58:00 BASE 10.44 348 13.99 339 -2.0 100 -2.0 148 0 969.1 NA 0.0000 9999 0 0 0 3310
2019/10/28 12:59:01 BASE 10.85 350 13.99 339 -2.0 100 -2.0 154 0 969.1 NA 0.0000 9999 22050 22570 0 0
2019/10/28 13:00:00 BASE 10.37 352 13.99 339 -2.0 100 -2.0 156 0 969.0 NA 0.0000 9999 0 0 0 2490
2019/10/28 13:01:01 BASE 11.24 351 13.48 353 -2.0 100 -2.0 158 0 969.0 NA 0.0000 9999 0 0 0 2530
2019/10/28 13:02:01 BASE 11.80 347 14.35 360 -2.0 100 -2.0 166 0 969.0 NA 0.0000 9999 0 0 0 2400
2019/10/28 13:03:01 BASE 10.91 352 14.35 360 -2.0 100 -2.0 170 0 969.0 NA 0.0000 9999 0 0 0 2490
2019/10/28 13:04:01 BASE 10.24 356 14.35 360 -2.0 100 -2.0 171 0 969.1 NA 0.0000 9999 0 0 0 2990
2019/10/28 13:05:01 BASE 10.56 351 14.35 360 -2.0 100 -2.0 173 0 969.1 NA 0.0000 9999 0 0 0 3770
2019/10/28 13:06:01 BASE 10.90 346 14.35 360 -2.0 100 -2.0 176 0 969.1 NA 0.0000 9999 0 0 0 4270
2019/10/28 13:07:01 BASE 10.90 344 14.35 360 -2.0 100 -2.0 178 0 969.1 NA 0.0000 9999 0 0 0 4130
2019/10/28 13:08:01 BASE 10.30 345 14.35 360 -2.0 100 -2.0 180 0 969.2 NA 0.0000 9999 0 0 0 4430
2019/10/28 13:09:01 BASE 10.14 344 14.35 360 -2.1 100 -2.1 183 0 969.0 NA 0.0000 9999 0 0 0 4360
2019/10/28 13:10:02 BASE 10.52 342 14.35 360 -2.1 100 -2.1 184 0 969.0 NA 0.0000 9999 0 0 0 4270
2019/10/28 13:11:01 BASE 10.36 342 14.35 360 -2.0 100 -2.0 187 0 969.1 NA 0.0000 9999 0 0 0 4100
2019/10/28 13:12:01 BASE 10.06 343 12.35 348 -2.0 100 -2.0 188 0 969.2 NA 0.0000 9999 0 0 0 4200
2019/10/28 13:13:01 BASE 9.72 343 12.35 348 -2.0 100 -2.0 190 0 969.2 NA 0.0000 9999 0 0 0 4040
2019/10/28 13:14:00 BASE 10.26 342 12.35 348 -2.0 100 -2.0 191 0 969.2 NA 0.0000 9999 0 0 0 4170
2019/10/28 13:15:01 BASE 10.96 342 12.35 348 -2.0 100 -2.0 192 0 969.2 NA 0.0000 9999 0 0 0 4490
2019/10/28 13:16:01 BASE 11.45 341 13.43 340 -2.0 100 -2.0 194 0 969.1 NA 0.0000 9999 0 0 0 4300
2019/10/28 13:17:01 BASE 12.43 340 14.10 339 -2.0 100 -2.0 194 0 969.1 NA 0.0000 9999 0 0 0 4630
2019/10/28 13:18:01 BASE 12.49 342 14.10 339 -2.0 100 -2.0 194 0 969.1 NA 0.0000 9999 0 0 0 3870
2019/10/28 13:19:01 BASE 11.11 342 14.10 339 -2.0 100 -2.0 193 0 969.1 NA 0.0000 9999 0 0 0 3710
2019/10/28 13:20:01 BASE 10.83 342 14.10 339 -2.0 100 -2.0 193 0 969.1 NA 0.0000 9999 0 0 0 3770
2019/10/28 13:21:00 BASE 12.05 341 14.10 339 -2.0 100 -2.0 192 0 969.0 NA 0.0000 9999 0 0 0 3180
2019/10/28 13:22:01 BASE 12.72 341 14.10 339 -2.1 100 -2.1 191 0 969.1 NA 0.0000 9999 0 0 0 2950
2019/10/28 13:23:00 BASE 12.17 341 14.10 339 -2.0 100 -2.0 191 0 969.1 NA 0.0000 9999 0 0 0 2820
2019/10/28 13:24:00 BASE 11.87 340 14.10 339 -2.0 100 -2.0 192 0 969.1 NA 0.0000 9999 0 0 0 2820
2019/10/28 13:25:00 BASE 11.87 338 14.10 339 -2.0 100 -2.0 193 0 969.1 NA 0.0000 9999 22900 0 0 0
2019/10/28 13:26:01 BASE 11.53 338 14.10 339 -2.0 100 -2.0 195 0 969.1 NA 0.0000 9999 0 0 0 2560
2019/10/28 13:27:01 BASE 11.87 339 13.74 341 -2.0 100 -2.0 197 0 969.1 NA 0.0000 9999 0 0 0 2890
2019/10/28 13:28:00 BASE 12.90 339 14.92 337 -2.0 100 -2.0 197 0 969.0 NA 0.0000 9999 0 0 0 2950
2019/10/28 13:29:01 BASE 13.24 344 15.18 347 -2.0 100 -2.0 197 0 969.0 NA 0.0000 9999 0 0 0 3080
2019/10/28 13:30:01 BASE 12.63 346 15.18 347 -2.0 100 -2.0 198 0 969.0 NA 0.0000 9999 0 0 0 2690
2019/10/28 13:31:00 BASE 11.68 344 15.18 347 -2.0 100 -2.0 200 0 969.0 NA 0.0000 9999 0 0 0 2400
2019/10/28 13:32:00 BASE 11.12 344 15.18 347 -2.0 100 -2.0 203 0 969.1 NA 0.0000 UP 9999 0 0 0 2430
2019/10/28 13:33:01 BASE 11.35 342 15.18 347 -2.0 100 -2.0 204 0 969.0 NA 0.0000 UP 9999 0 0 0 2400
2019/10/28 13:34:01 BASE 10.96 346 15.18 347 -2.0 100 -2.0 204 0 969.1 NA 0.0000 UP 9999 0 0 0 2490
2019/10/28 13:35:01 BASE 10.59 351 15.18 347 -2.0 100 -2.0 204 0 969.1 NA 0.0000 UP 9999 0 0 0 2330
2019/10/28 13:36:01 BASE 11.72 351 15.18 347 -2.0 100 -2.0 206 0 969.0 NA 0.0000 UP 9999 0 0 0 2330
2019/10/28 13:37:01 BASE 13.01 348 15.18 347 -2.1 100 -2.1 209 0 969.0 NA 0.0000 UP 9999 0 0 0 2230
2019/10/28 13:38:00 BASE 12.13 349 15.18 347 -2.1 100 -2.1 213 0 969.0 NA 0.0000 UP 9999 0 0 0 2660
2019/10/28 13:39:01 BASE 11.52 351 14.56 344 -2.1 100 -2.1 215 0 969.0 NA 0.0000 UP 9999 0 0 0 2590
2019/10/28 13:40:01 BASE 11.94 352 14.56 344 -2.1 100 -2.1 216 0 969.0 NA 0.0000 UP 9999 0 0 0 2890
2019/10/28 13:41:01 BASE 12.60 352 14.71 348 -2.1 100 -2.1 216 0 968.9 NA 0.0000 UP 9999 0 0 0 2620
2019/10/28 13:42:01 BASE 13.22 349 14.71 348 -2.1 100 -2.1 217 0 968.9 NA 0.0000 UP 9999 0 0 0 2460
2019/10/28 13:43:01 BASE 13.00 344 14.71 348 -2.1 100 -2.1 218 0 969.0 NA 0.0000 UP 9999 0 0 0 2950
2019/10/28 13:44:01 BASE 12.77 346 14.71 348 -2.1 100 -2.1 219 0 968.9 NA 0.0000 UP 9999 0 0 0 3450
2019/10/28 13:45:01 BASE 12.13 345 14.71 348 -2.1 100 -2.1 219 0 968.9 NA 0.0000 UP 9999 0 0 0 3510
2019/10/28 13:46:01 BASE 13.02 343 15.33 342 -2.0 100 -2.0 219 0 968.8 NA 0.0000 UP 9999 0 0 0 3710
2019/10/28 13:47:01 BASE 14.43 347 15.84 348 -2.0 100 -2.0 217 0 968.9 NA 0.0000 UP 9999 0 0 0 3540
2019/10/28 13:48:01 BASE 14.22 354 15.84 348 -2.1 100 -2.1 215 0 968.9 NA 0.0000 UP 9999 0 0 0 3480
2019/10/28 13:49:00 BASE 13.35 351 15.84 348 -2.1 100 -2.1 213 0 969.0 NA 0.0000 UP 9999 0 0 0 3640
2019/10/28 13:50:00 BASE 12.23 342 15.84 348 -2.1 100 -2.1 211 0 969.0 NA 0.0000 UP 9999 21820 0 0 0
2019/10/28 13:51:01 BASE 11.83 341 15.84 348 -2.1 100 -2.1 210 0 968.9 NA 0.0000 UP 9999 0 0 0 3580
2019/10/28 13:52:01 BASE 12.70 340 15.84 348 -2.1 100 -2.1 209 0 968.9 NA 0.0000 UP 9999 1310 0 0 0
2019/10/28 13:53:01 BASE 13.66 340 15.84 348 -2.1 100 -2.1 209 0 968.8 NA 0.0000 UP 9999 1250 0 0 0
2019/10/28 13:54:00 BASE 14.21 340 15.90 337 -2.1 100 -2.1 210 0 968.8 NA 0.0000 UP 9999 0 0 0 3510
2019/10/28 13:55:00 BASE 14.51 341 15.90 337 -2.0 100 -2.0 212 0 968.8 NA 0.0000 UP 9999 3120 0 0 0
2019/10/28 13:56:00 BASE 13.99 343 15.90 337 -2.0 100 -2.0 215 0 968.8 NA 0.0000 UP 9999 24440 0 0 0
2019/10/28 13:57:01 BASE 13.85 342 16.51 344 -2.0 100 -2.0 219 0 968.8 NA 0.0000 9999 1120 0 0 0
2019/10/28 13:58:00 BASE 14.13 342 16.51 344 -2.0 100 -2.0 221 0 968.8 NA 0.0000 9999 1050 0 0 0
2019/10/28 13:59:00 BASE 13.35 343 16.51 344 -2.0 100 -2.0 223 0 968.9 NA 0.0000 9999 1870 0 0 0
2019/10/28 14:00:00 BASE 13.70 343 16.51 344 -2.0 100 -2.0 224 0 968.8 NA 0.0000 9999 3310 0 0 0
2019/10/28 14:01:01 BASE 14.07 341 16.51 344 -2.0 100 -2.0 225 0 968.8 NA 0.0000 9999 2590 0 0 0
2019/10/28 14:02:01 BASE 13.47 341 16.51 344 -2.0 100 -2.0 226 0 968.7 NA 0.0000 9999 2460 0 0 0
2019/10/28 14:03:01 BASE 14.07 341 16.51 344 -2.0 100 -2.0 227 0 968.8 NA 0.0000 9999 0 0 0 4130
2019/10/28 14:04:00 BASE 14.92 342 18.47 346 -2.0 100 -2.0 228 0 968.8 NA 0.0000 9999 0 0 0 3900
2019/10/28 14:05:01 BASE 14.14 345 18.47 346 -2.0 100 -2.0 231 0 968.9 NA 0.0000 9999 3540 0 0 0
2019/10/28 14:06:01 BASE 12.42 343 18.47 346 -2.0 100 -2.0 234 0 969.0 NA 0.0000 9999 2460 0 0 0
2019/10/28 14:07:01 BASE 12.39 343 18.47 346 -2.0 100 -2.0 235 0 968.9 NA 0.0000 9999 0 0 0 4530
2019/10/28 14:08:00 BASE 13.04 348 18.47 346 -2.0 100 -2.0 236 0 968.9 NA 0.0000 9999 2850 0 0 0
2019/10/28 14:09:01 BASE 13.80 349 18.47 346 -2.0 100 -2.0 235 0 968.8 NA 0.0000 9999 0 0 0 4560
2019/10/28 14:10:02 BASE 14.29 346 18.47 346 -2.0 100 -2.0 237 0 968.8 NA 0.0000 9999 0 0 0 4070
2019/10/28 14:11:01 BASE 14.43 349 18.47 346 -2.0 100 -2.0 238 0 968.8 NA 0.0000 9999 2560 0 0 0
2019/10/28 14:12:02 BASE 14.16 352 18.47 346 -1.9 100 -1.9 238 0 968.8 NA 0.0000 9999 2660 0 0 0
2019/10/28 14:13:01 BASE 13.16 355 18.47 346 -1.9 100 -1.9 237 0 968.9 NA 0.0000 9999 0 0 0 4400
2019/10/28 14:14:00 BASE 12.28 1 16.72 355 -1.9 100 -1.9 236 0 968.8 NA 0.0000 9999 0 0 0 4230
2019/10/28 14:15:01 BASE 12.12 358 16.72 355 -1.9 100 -1.9 234 0 968.8 NA 0.0000 9999 0 0 0 4360
2019/10/28 14:16:01 BASE 13.59 352 16.98 2 -1.9 100 -2.0 232 0 968.7 NA 0.0000 9999 0 0 0 3540
2019/10/28 14:17:00 BASE 14.35 357 16.98 2 -1.9 99 -2.0 233 0 968.7 NA 0.0000 9999 0 0 0 3940
2019/10/28 14:18:01 BASE 14.42 358 17.80 204 -1.9 99 -2.0 234 0 968.7 NA 0.0000 9999 0 0 0 3840
2019/10/28 14:19:00 BASE 14.48 351 17.80 204 -1.9 99 -2.1 235 0 968.7 NA 0.0000 9999 0 0 0 3900
2019/10/28 14:20:01 BASE 14.52 352 17.80 204 -1.9 99 -2.1 236 0 968.6 NA 0.0000 9999 0 0 0 4040
2019/10/28 14:21:01 BASE 15.38 352 17.80 204 -1.9 98 -2.1 236 0 968.5 NA 0.0000 9999 0 0 0 4070
2019/10/28 14:22:01 BASE 16.37 357 19.03 3 -1.9 98 -2.1 234 0 968.6 NA 0.0000 9999 0 0 0 3900
2019/10/28 14:23:00 BASE 17.57 1 19.91 360 -1.9 98 -2.2 233 0 968.5 NA 0.0000 9999 0 0 0 3480
2019/10/28 14:24:01 BASE 18.52 0 20.06 4 -1.9 98 -2.2 235 0 968.5 NA 0.0000 9999 0 0 0 3380
2019/10/28 14:25:01 BASE 18.91 2 20.42 1 -1.9 98 -2.2 237 0 968.5 NA 0.0000 UP 9000 0 0 0 3670
2019/10/28 14:26:01 BASE 18.18 1 20.42 1 -1.9 98 -2.2 239 0 968.5 NA 0.0000 UP 9999 0 0 0 3770
2019/10/28 14:27:01 BASE 17.95 4 20.42 1 -1.9 98 -2.2 240 0 968.5 NA 0.0000 UP 9999 0 0 0 3220
2019/10/28 14:28:01 BASE 18.52 6 20.42 1 -1.9 98 -2.1 239 0 968.5 NA 0.0000 UP 9999 0 0 0 3150
2019/10/28 14:29:00 BASE 18.68 6 20.42 1 -1.8 98 -2.1 234 0 968.4 NA 0.0000 UP 9999 0 0 0 3080
2019/10/28 14:30:01 BASE 18.41 5 20.42 1 -1.8 98 -2.1 229 0 968.5 NA 0.0000 UP 9999 20670 0 0 0
2019/10/28 14:31:01 BASE 17.98 4 20.42 1 -1.8 98 -2.0 224 0 968.5 NA 0.0000 UP 9999 0 0 0 3080
2019/10/28 14:32:01 BASE 17.56 4 20.42 1 -1.8 99 -2.0 219 0 968.5 NA 0.0000 UP 9999 0 0 0 2790
2019/10/28 14:33:00 BASE 17.78 3 20.42 1 -1.8 99 -2.0 217 0 968.5 NA 0.0000 UP 9999 0 0 0 2660
2019/10/28 14:34:01 BASE 18.00 1 20.53 1 -1.8 99 -2.0 214 0 968.5 NA 0.0000 UP 9999 0 0 0 2850
2019/10/28 14:35:01 BASE 17.73 0 20.53 1 -1.9 98 -2.1 208 0 968.4 NA 0.0000 UP 9999 0 0 0 2920
2019/10/28 14:36:01 BASE 17.01 1 20.53 1 -1.9 98 -2.1 200 0 968.5 NA 0.0000 UP 9999 0 0 0 3020
2019/10/28 14:37:01 BASE 15.46 1 20.53 1 -1.9 98 -2.2 193 0 968.5 NA 0.0000 UP 9999 0 0 0 2820
2019/10/28 14:38:01 BASE 14.44 359 20.53 1 -1.9 98 -2.2 189 0 968.5 NA 0.0000 UP 9999 17950 0 0 0
2019/10/28 14:39:01 BASE 14.64 359 20.53 1 -1.9 98 -2.2 188 0 968.5 NA 0.0000 UP 9999 0 0 0 2360
2019/10/28 14:40:01 BASE 15.72 358 20.53 1 -2.0 98 -2.2 191 0 968.4 NA 0.0000 UP 9999 0 0 0 2200
2019/10/28 14:41:00 BASE 15.98 356 20.53 1 -2.0 99 -2.2 196 0 968.4 NA 0.0000 UP 9999 0 0 0 2560
2019/10/28 14:42:01 BASE 15.45 359 20.53 1 -2.0 99 -2.2 199 0 968.4 NA 0.0000 UP 9999 0 0 0 2620
2019/10/28 14:43:01 BASE 14.73 1 20.53 1 -2.0 99 -2.1 197 0 968.4 NA 0.0000 UP 9999 0 0 0 2850
2019/10/28 14:44:01 BASE 15.23 2 19.55 2 -2.0 99 -2.1 195 0 968.4 NA 0.0000 UP 9999 19720 21690 0 0
2019/10/28 14:45:01 BASE 16.08 357 18.98 7 -2.0 99 -2.1 193 0 968.3 NA 0.0000 UP 9999 0 0 0 2430
2019/10/28 14:46:01 BASE 15.83 355 18.98 7 -2.0 100 -2.1 191 0 968.3 NA 0.0000 UP 9999 0 0 0 2490
2019/10/28 14:47:01 BASE 16.17 357 18.98 7 -2.0 100 -2.0 191 0 968.3 NA 0.0000 UP 9999 0 0 0 2260
2019/10/28 14:48:01 BASE 16.81 355 19.14 2 -2.0 100 -2.0 192 0 968.3 NA 0.0000 UP 9999 0 0 0 2430
2019/10/28 14:49:01 BASE 16.72 358 19.14 2 -2.0 100 -2.0 193 0 968.3 NA 0.0000 UP 9999 0 0 0 2560
2019/10/28 14:50:01 BASE 17.01 358 19.50 351 -2.0 100 -2.0 193 0 968.2 NA 0.0000 UP 9999 0 0 0 2720
2019/10/28 14:51:00 BASE 16.73 358 19.50 351 -2.0 100 -2.0 192 0 968.3 NA 0.0000 UP 9999 0 0 0 2720
2019/10/28 14:52:01 BASE 16.95 359 20.32 1 -2.0 100 -2.0 192 0 968.2 NA 0.0000 UP 9999 0 0 0 2560
2019/10/28 14:53:01 BASE 17.25 357 20.32 1 -2.0 100 -2.0 193 0 968.3 NA 0.0000 UP 9999 0 0 0 2560
2019/10/28 14:54:01 BASE 16.11 358 20.32 1 -2.0 100 -2.0 194 0 968.3 NA 0.0000 UP 9999 0 0 0 2720
2019/10/28 14:55:01 BASE 16.18 354 20.32 1 -2.0 100 -2.0 196 0 968.3 NA 0.0000 UP 9999 0 0 0 2590
2019/10/28 14:56:01 BASE 15.69 354 20.32 1 -2.0 100 -2.0 199 0 968.0 NA 0.0000 UP 9999 0 0 0 2760
2019/10/28 14:57:01 BASE 15.63 1 20.32 1 -2.0 100 -2.0 200 0 968.2 NA 0.0000 UP 9999 23260 0 0 0
2019/10/28 14:58:01 BASE 17.85 1 20.32 1 -2.0 100 -2.0 200 0 968.1 NA 0.0000 UP 9999 0 0 0 2820
2019/10/28 14:59:00 BASE 19.35 1 20.94 3 -2.0 100 -2.0 200 0 968.1 NA 0.0000 UP 9999 0 0 0 2990
2019/10/28 15:00:01 BASE 19.49 1 20.94 3 -2.0 100 -2.0 200 0 968.1 NA 0.0000 UP 9999 0 0 0 2690
2019/10/28 15:01:00 BASE 19.09 2 20.94 7 -2.0 100 -2.0 199 0 968.1 NA 0.0000 UP 9999 0 0 0 2620
2019/10/28 15:02:01 BASE 18.65 3 20.94 7 -2.0 100 -2.0 194 0 968.1 NA 0.0000 UP 9999 260 0 0 0
2019/10/28 15:03:01 BASE 18.65 1 20.94 7 -2.0 100 -2.0 188 0 968.1 NA 0.0000 UP 9999 230 0 0 0
2019/10/28 15:04:00 BASE 18.45 358 20.94 7 -2.0 100 -2.0 186 0 968.1 NA 0.0000 UP 9999 0 0 0 2560
2019/10/28 15:05:01 BASE 19.53 1 24.18 1 -2.0 100 -2.0 186 0 968.0 NA 0.0000 UP 9999 0 0 0 2490
2019/10/28 15:06:01 BASE 21.17 3 24.18 1 -2.0 100 -2.0 183 0 968.0 NA 0.0000 UP 9999 0 0 0 2530
2019/10/28 15:07:01 BASE 20.41 2 24.18 1 -2.0 100 -2.0 183 0 968.1 NA 0.0000 UP 9999 260 0 0 0
2019/10/28 15:08:01 BASE 18.92 1 24.18 1 -2.1 100 -2.1 182 0 968.2 NA 0.0000 UP 9999 300 0 0 0
2019/10/28 15:09:01 BASE 18.53 1 24.18 1 -2.1 100 -2.1 177 0 968.2 NA 0.0000 UP 9999 330 0 0 0
2019/10/28 15:10:02 BASE 18.39 0 24.18 1 -2.1 100 -2.1 167 0 968.2 NA 0.0000 UP 9999 360 0 0 0
2019/10/28 15:11:01 BASE 18.72 357 24.18 1 -2.1 100 -2.1 164 0 968.1 NA 0.0000 UP 9999 300 0 0 0
2019/10/28 15:12:02 BASE 19.26 356 24.18 1 -2.1 100 -2.1 171 0 968.2 NA 0.0000 UP 9999 300 0 0 0
2019/10/28 15:13:01 BASE 19.27 355 24.18 1 -2.1 100 -2.1 177 0 968.2 NA 0.0000 UP 9999 330 0 0 0
2019/10/28 15:14:01 BASE 18.02 358 24.18 1 -2.1 100 -2.1 180 0 968.2 NA 0.0000 UP 9999 360 0 0 0
2019/10/28 15:15:01 BASE 18.39 3 22.53 2 -2.1 100 -2.1 181 0 968.1 NA 0.0000 UP 9999 330 0 0 0
2019/10/28 15:16:01 BASE 19.57 1 22.17 4 -2.1 100 -2.1 179 0 968.1 NA 0.0000 UP 9999 360 0 0 0
2019/10/28 15:17:01 BASE 19.98 359 22.17 4 -2.0 100 -2.1 178 0 968.0 NA 0.0000 UP 9999 360 0 0 0
2019/10/28 15:18:01 BASE 20.24 0 22.64 2 -2.0 100 -2.1 176 0 968.1 NA 0.0000 UP 9999 330 0 0 0
2019/10/28 15:19:01 BASE 18.91 356 22.64 2 -2.0 99 -2.1 174 0 968.2 NA 0.0000 UP 9999 0 0 0 2490
2019/10/28 15:20:01 BASE 17.92 349 22.64 2 -2.0 99 -2.2 171 0 968.2 NA 0.0000 UP 9999 330 0 0 0
2019/10/28 15:21:01 BASE 17.88 352 22.64 2 -2.0 98 -2.2 168 0 968.2 NA 0.0000 UP 9999 300 0 0 0
2019/10/28 15:22:01 BASE 17.66 352 22.64 2 -2.0 98 -2.2 167 0 968.2 NA 0.0000 UP 9999 230 0 0 0
2019/10/28 15:23:01 BASE 17.22 351 22.64 2 -2.0 98 -2.3 164 0 968.2 NA 0.0000 UP 9999 260 0 0 0
2019/10/28 15:24:01 BASE 16.94 350 22.64 2 -2.0 98 -2.3 161 0 968.2 NA 0.0000 UP 9999 300 1480 0 0
2019/10/28 15:25:01 BASE 17.80 349 22.64 2 -2.0 98 -2.3 157 0 968.2 NA 0.0000 UP 9999 260 0 0 0
2019/10/28 15:26:00 BASE 17.62 348 22.64 2 -2.1 98 -2.3 156 0 968.3 NA 0.0000 UP 9999 0 0 0 2000
2019/10/28 15:27:00 BASE 16.46 345 22.64 2 -2.1 99 -2.3 153 0 968.3 NA 0.0000 UP 9999 0 0 0 1840
2019/10/28 15:28:00 BASE 16.21 342 21.30 348 -2.1 99 -2.3 161 0 968.4 NA 0.0000 UP 9999 0 0 0 1570
2019/10/28 15:29:00 BASE 17.15 339 24.13 336 -2.1 99 -2.2 163 0 968.2 NA 0.0000 UP 9999 0 0 0 1900
2019/10/28 15:30:01 BASE 21.21 338 25.77 338 -2.1 99 -2.2 163 0 967.9 NA 0.0000 UP 9999 0 0 0 1940
2019/10/28 15:31:00 BASE 24.19 340 27.16 340 -2.1 100 -2.2 167 0 967.9 NA 0.0000 UP SQ 9999 0 0 0 2130
2019/10/28 15:32:01 BASE 23.84 340 27.16 340 -2.2 100 -2.2 168 0 968.0 NA 0.0000 UP 9999 0 0 0 2230
2019/10/28 15:33:00 BASE 21.74 339 27.16 340 -2.2 100 -2.2 172 0 968.1 NA 0.0000 UP 9000 0 0 0 2000
2019/10/28 15:34:01 BASE 21.41 337 27.16 340 -2.3 100 -2.3 176 0 968.0 NA 0.0000 UP 9999 0 0 0 2000
2019/10/28 15:35:00 BASE 20.87 336 27.16 340 -2.3 100 -2.3 174 0 968.3 NA 0.0000 UP 9000 260 0 0 0
2019/10/28 15:36:01 BASE 20.23 338 27.16 340 -2.4 100 -2.4 173 0 968.2 NA 0.0000 UP 9000 390 0 0 0
2019/10/28 15:37:01 BASE 20.69 339 27.16 340 -2.4 100 -2.4 167 0 968.2 NA 0.0000 UP 9999 360 0 0 0
2019/10/28 15:38:00 BASE 20.02 337 27.16 340 -2.4 100 -2.4 163 0 968.3 NA 0.0000 UP 9999 390 0 0 0
2019/10/28 15:39:01 BASE 18.05 336 27.16 340 -2.4 100 -2.4 159 0 968.4 NA 0.0000 UP 9999 360 1540 0 0
2019/10/28 15:40:01 BASE 16.64 338 27.16 340 -2.4 100 -2.4 161 0 968.4 NA 0.0000 UP 9999 360 1350 0 0
2019/10/28 15:41:00 BASE 17.35 339 24.85 340 -2.4 100 -2.4 164 0 968.4 NA 0.0000 9999 330 0 0 0
2019/10/28 15:42:01 BASE 17.29 339 23.72 336 -2.4 100 -2.4 165 0 968.4 NA 0.0000 UP 9999 360 1480 0 0
2019/10/28 15:43:01 BASE 16.20 339 23.72 336 -2.4 100 -2.4 162 0 968.5 NA 0.0000 UP 9999 360 1870 0 0
2019/10/28 15:44:01 BASE 14.30 339 23.00 333 -2.4 100 -2.4 163 0 968.6 NA 0.0000 UP 9999 330 0 0 0
2019/10/28 15:45:00 BASE 13.79 340 23.00 333 -2.3 100 -2.3 166 0 968.5 NA 0.0000 UP 9999 360 0 0 0
2019/10/28 15:46:00 BASE 14.40 340 21.35 334 -2.3 100 -2.3 165 0 968.6 NA 0.0000 UP 9999 390 0 0 0
2019/10/28 15:47:01 BASE 14.10 338 21.35 334 -2.3 100 -2.3 164 0 968.6 NA 0.0000 9999 360 0 0 0
2019/10/28 15:48:01 BASE 13.97 336 19.70 343 -2.3 100 -2.3 168 0 968.6 NA 0.0000 9999 330 0 0 0
2019/10/28 15:49:01 BASE 14.64 336 19.70 343 -2.3 100 -2.3 170 0 968.5 NA 0.0000 9999 360 0 0 0
2019/10/28 15:50:01 BASE 15.19 335 19.14 340 -2.3 100 -2.3 169 0 968.5 NA 0.0000 9999 360 22310 0 0
2019/10/28 15:51:00 BASE 15.22 337 18.26 340 -2.3 100 -2.3 169 0 968.5 NA 0.0000 9999 360 0 0 0
2019/10/28 15:52:01 BASE 14.71 338 17.08 341 -2.3 100 -2.3 169 0 968.6 NA 0.0000 9999 330 0 0 0
2019/10/28 15:53:01 BASE 13.76 337 16.72 335 -2.3 100 -2.3 168 0 968.6 NA 0.0000 9999 330 0 0 0
2019/10/28 15:54:01 BASE 15.24 336 18.78 333 -2.3 100 -2.3 167 0 968.5 NA 0.0000 9999 300 0 0 0
2019/10/28 15:55:01 BASE 17.04 336 18.78 333 -2.2 100 -2.2 165 0 968.5 NA 0.0000 9999 260 0 0 0
2019/10/28 15:56:00 BASE 15.46 336 18.78 333 -2.2 100 -2.2 167 0 968.6 NA 0.0000 UP 9999 260 0 0 0
2019/10/28 15:57:01 BASE 14.26 337 18.78 333 -2.3 100 -2.3 169 0 968.6 NA 0.0000 UP 9999 230 0 0 0
2019/10/28 15:58:01 BASE 14.63 337 18.78 333 -2.3 100 -2.3 171 0 968.5 NA 0.0000 UP 9999 300 0 0 0
2019/10/28 15:59:01 BASE 14.84 337 18.78 333 -2.3 100 -2.3 171 0 968.6 NA 0.0000 UP 9999 260 0 0 0
2019/10/28 16:00:01 BASE 14.61 336 18.78 333 -2.3 100 -2.3 167 0 968.6 NA 0.0000 UP 9999 260 0 0 0
2019/10/28 16:01:00 BASE 14.01 336 18.78 333 -2.3 100 -2.3 166 0 968.6 NA 0.0000 UP 9999 0 0 0 2260
2019/10/28 16:02:01 BASE 13.53 333 18.78 333 -2.3 100 -2.3 170 0 968.6 NA 0.0000 UP 9999 0 0 0 1770
2019/10/28 16:03:01 BASE 13.31 331 18.78 333 -2.3 100 -2.3 172 0 968.6 NA 0.0000 UP 9999 0 0 0 1770
2019/10/28 16:04:01 BASE 13.76 332 18.21 337 -2.3 100 -2.3 177 0 968.6 NA 0.0000 UP 8000 0 0 0 2230
2019/10/28 16:05:00 BASE 14.25 332 16.72 330 -2.3 100 -2.3 181 0 968.5 NA 0.0000 UP 7000 0 0 0 1800
2019/10/28 16:06:01 BASE 15.06 329 17.08 332 -2.3 100 -2.3 184 0 968.5 NA 0.0000 UP BR 7000 0 0 0 1900
2019/10/28 16:07:00 BASE 16.19 327 17.08 332 -2.4 100 -2.4 187 0 968.5 NA 0.0000 UP BR 4700 0 0 0 1900
2019/10/28 16:08:01 BASE 16.33 326 17.13 326 -2.4 100 -2.4 193 0 968.5 NA 0.0000 UP BR 4600 0 0 0 1740
2019/10/28 16:09:00 BASE 15.78 328 17.13 326 -2.4 100 -2.4 197 0 968.6 NA 0.0000 UP BR 4600 0 0 0 2000
2019/10/28 16:10:01 BASE 15.19 332 17.13 326 -2.4 100 -2.4 201 0 968.6 NA 0.0000 UP BR 5000 0 0 0 2360
2019/10/28 16:11:01 BASE 14.81 334 17.13 326 -2.4 100 -2.4 198 0 968.6 NA 0.0000 UP BR 7000 0 0 0 2360
2019/10/28 16:12:00 BASE 14.80 332 17.13 326 -2.4 100 -2.4 193 0 968.6 NA 0.0000 UP BR 7000 0 0 0 2330
2019/10/28 16:13:00 BASE 14.07 331 17.13 326 -2.4 100 -2.4 194 0 968.6 NA 0.0000 UP BR 7000 0 0 0 1670
2019/10/28 16:14:01 BASE 13.18 332 17.13 326 -2.4 100 -2.4 193 0 968.6 NA 0.0000 UP BR 6000 0 0 0 2100
2019/10/28 16:15:01 BASE 12.88 335 17.13 326 -2.4 100 -2.4 190 0 968.6 NA 0.0000 UP BR 7000 0 0 0 2400
2019/10/28 16:16:00 BASE 12.93 337 17.13 326 -2.4 100 -2.4 190 0 968.6 NA 0.0000 UP BR 8000 0 0 0 2260
2019/10/28 16:17:01 BASE 12.84 337 17.13 326 -2.4 100 -2.4 188 0 968.7 NA 0.0000 UP BR 9000 0 0 0 2170
2019/10/28 16:18:00 BASE 12.92 336 16.72 327 -2.4 100 -2.4 186 0 968.6 NA 0.0000 UP BR 9000 0 0 0 2300
2019/10/28 16:19:01 BASE 13.89 336 16.20 328 -2.4 100 -2.4 185 0 968.6 NA 0.0000 UP BR 9000 0 0 0 2170
2019/10/28 16:20:01 BASE 14.61 335 16.20 328 -2.4 100 -2.4 188 0 968.5 NA 0.2540 UP BR 9000 0 0 0 1870
2019/10/28 16:21:00 BASE 14.94 332 16.31 325 -2.4 100 -2.4 196 0 968.5 NA 0.0000 UP BR 9000 0 0 0 2000
2019/10/28 16:22:01 BASE 15.82 329 18.11 328 -2.4 100 -2.4 199 0 968.5 NA 0.0000 UP BR 8000 0 0 0 2100
2019/10/28 16:23:01 BASE 16.76 330 18.11 328 -2.4 100 -2.4 202 0 968.5 NA 0.0000 UP BR 4400 0 0 0 1640
2019/10/28 16:24:01 BASE 17.08 331 18.11 328 -2.4 100 -2.4 202 0 968.5 NA 0.0000 UP BR 4400 0 0 0 2330
2019/10/28 16:25:00 BASE 17.06 332 18.11 328 -2.4 100 -2.4 200 0 968.5 NA 0.0000 UP BR 4400 0 0 0 2760
2019/10/28 16:26:01 BASE 16.34 334 18.11 328 -2.4 100 -2.4 189 0 968.5 NA 0.0000 UP BR 4400 0 0 0 2950
2019/10/28 16:27:01 BASE 15.90 336 18.11 328 -2.4 100 -2.4 175 0 968.5 NA 0.0000 UP BR 4400 0 0 0 2720
2019/10/28 16:28:00 BASE 15.30 338 18.11 328 -2.4 100 -2.4 190 0 968.5 NA 0.0000 UP BR 4700 0 0 0 1120
2019/10/28 16:29:00 BASE 15.18 337 18.11 328 -2.4 100 -2.4 192 0 968.5 NA 0.0000 UP BR 7000 0 0 0 2690
2019/10/28 16:30:00 BASE 15.57 337 18.11 328 -2.4 100 -2.4 189 0 968.5 NA 0.0000 UP BR 7000 0 0 0 3120
2019/10/28 16:31:01 BASE 15.72 337 18.11 328 -2.4 100 -2.4 185 0 968.5 NA 0.0000 UP BR 7000 0 0 0 2850
2019/10/28 16:32:01 BASE 15.65 336 17.90 332 -2.4 100 -2.4 184 0 968.5 NA 0.0000 UP BR 7000 0 0 0 3080
2019/10/28 16:33:01 BASE 14.88 336 17.90 332 -2.4 100 -2.4 182 0 968.5 NA 0.0000 UP BR 7000 0 0 0 2890
2019/10/28 16:34:00 BASE 14.75 338 17.90 332 -2.4 100 -2.4 179 0 968.5 NA 0.0000 UP BR 7000 0 0 0 2850
2019/10/28 16:35:01 BASE 15.06 338 17.65 335 -2.4 100 -2.4 178 0 968.5 NA 0.0000 UP BR 7000 0 0 0 3120
2019/10/28 16:36:01 BASE 14.29 334 16.93 334 -2.4 100 -2.4 176 0 968.6 NA 0.0000 UP BR 7000 0 0 0 2990
2019/10/28 16:37:01 BASE 13.52 331 16.93 334 -2.4 100 -2.4 172 0 968.6 NA 0.0000 UP BR 7000 0 0 0 3020
2019/10/28 16:38:00 BASE 13.60 330 16.93 334 -2.4 100 -2.4 168 0 968.6 NA 0.0000 BR 7000 0 0 0 2760
2019/10/28 16:39:01 BASE 13.75 330 16.93 334 -2.4 100 -2.4 170 0 968.6 NA 0.0000 BR 7000 0 0 0 2430
2019/10/28 16:40:01 BASE 14.06 327 16.77 338 -2.5 100 -2.5 176 0 968.6 NA 0.0000 BR 7000 0 0 0 2070
2019/10/28 16:41:01 BASE 13.11 322 16.77 338 -2.5 100 -2.5 180 0 968.7 NA 0.0000 UP BR 7000 0 0 0 2690
2019/10/28 16:42:01 BASE 12.05 320 16.77 338 -2.5 100 -2.5 182 0 968.7 NA 0.0000 UP BR 7000 0 0 0 2950
2019/10/28 16:43:01 BASE 12.29 319 16.77 338 -2.5 100 -2.5 182 0 968.7 NA 0.0000 UP BR 7000 260 0 0 0
2019/10/28 16:44:02 BASE 12.59 318 16.41 340 -2.5 100 -2.5 181 0 968.7 NA 0.0000 UP BR 7000 260 0 0 0
2019/10/28 16:45:01 BASE 12.55 316 16.05 322 -2.6 100 -2.6 182 0 968.7 NA 0.0000 UP BR 7000 230 0 0 0
2019/10/28 16:46:01 BASE 11.99 317 16.05 322 -2.6 100 -2.6 185 0 968.7 NA 0.0000 UP BR 6000 0 0 0 3480
2019/10/28 16:47:02 BASE 11.82 319 16.05 322 -2.6 100 -2.6 189 0 968.7 NA 0.0000 UP BR 5000 200 21560 0 0
2019/10/28 16:48:01 BASE 12.01 318 16.05 322 -2.6 100 -2.6 189 0 968.7 NA 0.2540 UP BR 5000 0 0 0 2950
2019/10/28 16:49:01 BASE 11.26 319 16.05 322 -2.6 100 -2.6 186 0 968.8 NA 0.0000 UP BR 5000 230 0 0 0
2019/10/28 16:50:01 BASE 10.63 320 14.92 316 -2.6 100 -2.6 189 0 968.7 NA 0.0000 UP BR 5000 0 0 0 1020
2019/10/28 16:51:01 BASE 11.27 317 13.89 314 -2.6 100 -2.6 192 0 968.8 NA 0.0000 UP BR 5000 0 0 0 1380
2019/10/28 16:52:01 BASE 11.34 313 13.89 314 -2.6 100 -2.6 190 0 968.8 NA 0.0000 UP BR 5000 0 0 0 1800
2019/10/28 16:53:01 BASE 11.59 311 13.89 314 -2.6 100 -2.6 191 0 968.8 NA 0.0000 UP BR 4800 0 0 0 1440
2019/10/28 16:54:01 BASE 12.18 309 13.43 315 -2.6 100 -2.6 187 0 968.8 NA 0.0000 UP BR 4500 0 0 0 1800
2019/10/28 16:55:01 BASE 11.50 308 13.43 315 -2.6 100 -2.6 184 0 968.9 NA 0.0000 UP BR 3800 0 0 0 1900
2019/10/28 16:56:01 BASE 11.16 309 13.43 315 -2.6 100 -2.6 183 0 968.9 NA 0.0000 UP BR 3500 0 0 0 1710
2019/10/28 16:57:01 BASE 11.26 309 13.43 315 -2.6 100 -2.6 183 0 968.9 NA 0.0000 UP BR 3500 0 0 0 1640
2019/10/28 16:58:00 BASE 11.15 309 13.43 315 -2.6 100 -2.6 188 0 968.9 NA 0.0000 UP BR 3000 0 0 0 950
2019/10/28 16:59:00 BASE 10.85 313 13.43 315 -2.6 100 -2.6 189 0 968.9 NA 0.0000 UP BR 2600 0 0 0 1900
2019/10/28 17:00:00 BASE 10.83 311 13.43 315 -2.6 100 -2.6 185 0 968.8 NA 0.0000 UP BR 3100 0 0 0 1900
2019/10/28 17:01:00 BASE 11.30 305 13.43 315 -2.7 100 -2.7 188 0 968.9 NA 0.0000 UP BR 2200 0 0 0 1310
2019/10/28 17:02:00 BASE 12.06 304 14.92 307 -2.7 100 -2.7 192 0 968.9 NA 0.0000 UP BR 1700 0 0 0 1440
2019/10/28 17:03:01 BASE 12.39 307 14.92 307 -2.7 100 -2.7 199 0 968.9 NA 0.0000 UP BR 1800 0 0 0 1740
2019/10/28 17:04:01 BASE 11.50 306 14.92 307 -2.7 100 -2.7 203 0 969.0 NA 0.0000 UP BR 2000 0 0 0 2030
2019/10/28 17:05:00 BASE 11.59 304 14.92 307 -2.7 100 -2.7 206 0 969.0 NA 0.0000 UP BR 2000 0 0 0 2000
2019/10/28 17:06:01 BASE 12.10 302 14.92 307 -2.8 100 -2.8 206 0 969.0 NA 0.0000 UP BR 1800 0 0 0 2030
2019/10/28 17:07:02 BASE 11.51 304 14.92 307 -2.8 100 -2.8 204 0 969.0 NA 0.0000 UP BR 1800 0 0 0 2000
2019/10/28 17:08:01 BASE 10.66 305 14.92 307 -2.8 100 -2.8 201 0 969.0 NA 0.0000 UP BR 1800 0 0 0 1970
2019/10/28 17:09:01 BASE 10.11 307 14.92 307 -2.8 100 -2.8 202 0 969.1 NA 0.0000 -SN BR 2200 0 0 0 2070
2019/10/28 17:10:02 BASE 9.77 307 14.92 307 -2.8 100 -2.8 203 0 969.1 NA 0.0000 -SN BR 2500 0 0 0 2100
2019/10/28 17:11:01 BASE 9.54 305 14.92 307 -2.8 100 -2.8 203 0 969.1 NA 0.0000 -SN BR 2400 0 0 0 2260
2019/10/28 17:12:00 BASE 10.40 306 13.27 305 -2.7 100 -2.7 202 0 969.1 NA 0.0000 -SN BR 3600 0 0 0 2400
2019/10/28 17:13:01 BASE 11.49 309 13.27 305 -2.7 100 -2.7 202 0 969.1 NA 0.0000 -SN BR 3400 0 0 0 2030
2019/10/28 17:14:01 BASE 11.41 308 13.27 305 -2.7 100 -2.7 200 0 969.1 NA 0.0000 -SN BR 2700 0 0 0 2200
2019/10/28 17:15:02 BASE 10.09 305 13.12 302 -2.7 100 -2.7 194 0 969.1 NA 0.0000 -SN BR 4000 0 0 0 2070
2019/10/28 17:16:01 BASE 10.47 309 13.02 315 -2.7 100 -2.7 190 0 969.1 NA 0.0000 -SN BR 3900 0 0 0 1570
2019/10/28 17:17:01 BASE 12.04 313 13.07 315 -2.7 100 -2.7 192 0 969.1 NA 0.0000 -SN BR 4600 0 0 0 1350
2019/10/28 17:18:01 BASE 11.74 313 13.07 315 -2.7 100 -2.7 198 0 969.1 NA 0.0000 -SN BR 4800 21030 22930 0 0
2019/10/28 17:19:01 BASE 12.83 311 15.33 310 -2.7 100 -2.7 198 0 969.0 NA 0.0000 -SN BR 5000 0 0 0 1870
2019/10/28 17:20:01 BASE 14.27 309 15.33 318 -2.7 100 -2.7 198 0 969.1 NA 0.0000 -SN BR 4100 0 0 0 1670
2019/10/28 17:21:02 BASE 13.67 309 15.33 318 -2.8 100 -2.8 202 0 969.1 NA 0.0000 -SN BR 2800 0 0 0 1440
2019/10/28 17:22:00 BASE 12.28 309 15.33 318 -2.8 100 -2.8 205 0 969.2 NA 0.0000 -SN BR 2700 0 0 0 1610
2019/10/28 17:23:01 BASE 10.39 309 15.33 318 -2.8 100 -2.8 204 0 969.2 NA 0.0000 -SN BR 3600 0 0 0 1940
2019/10/28 17:24:01 BASE 9.61 305 15.33 318 -2.8 100 -2.8 204 0 969.2 NA 0.0000 -SN BR 3600 0 0 0 2000
2019/10/28 17:25:01 BASE 10.03 304 15.33 318 -2.8 100 -2.8 202 0 969.2 NA 0.0000 -SN BR 2900 0 0 0 2100
2019/10/28 17:26:01 BASE 10.76 305 15.33 318 -2.8 100 -2.8 199 0 969.2 NA 0.0000 -SN BR 3600 0 0 0 1970
2019/10/28 17:27:01 BASE 10.66 307 15.33 318 -2.8 100 -2.8 199 0 969.2 NA 0.0000 -SN BR 3300 0 0 0 1250
2019/10/28 17:28:01 BASE 10.70 310 15.33 318 -2.8 100 -2.8 199 0 969.2 NA 0.0000 -SN BR 4200 0 0 0 1250
2019/10/28 17:29:00 BASE 11.65 310 15.33 318 -2.8 100 -2.8 197 0 969.2 NA 0.0000 -SN BR 6000 0 0 0 1840
2019/10/28 17:30:00 BASE 11.96 313 14.20 310 -2.8 100 -2.8 196 0 969.2 NA 0.0000 -SN BR 8000 0 0 0 1570
2019/10/28 17:31:01 BASE 12.18 317 14.04 321 -2.8 100 -2.8 196 0 969.2 NA 0.0000 -SN BR 9000 0 0 0 1510
2019/10/28 17:32:01 BASE 12.92 317 15.07 320 -2.9 100 -2.9 197 0 969.2 NA 0.0000 -SN BR 9000 0 0 0 1710
2019/10/28 17:33:00 BASE 13.38 317 15.07 320 -2.9 100 -2.9 200 0 969.2 NA 0.0000 -SN BR 9000 0 0 0 1480
2019/10/28 17:34:01 BASE 13.11 314 15.07 320 -2.9 100 -2.9 202 0 969.2 NA 0.0000 -SN BR 9000 0 0 0 2000
2019/10/28 17:35:01 BASE 12.72 313 15.07 320 -2.9 100 -2.9 201 0 969.2 NA 0.0000 -SN BR 9000 0 0 0 2100
2019/10/28 17:36:01 BASE 11.89 311 15.07 320 -2.9 100 -2.9 198 0 969.2 NA 0.0000 -SN BR 8000 0 0 0 1900
2019/10/28 17:37:01 BASE 10.81 313 15.07 320 -2.9 100 -2.9 196 0 969.2 NA 0.0000 -SN BR 5000 0 0 0 1770
2019/10/28 17:38:01 BASE 11.09 315 15.07 320 -2.9 100 -2.9 203 0 969.2 NA 0.0000 -SN BR 4500 0 0 0 1440
2019/10/28 17:39:01 BASE 12.73 312 15.07 320 -2.9 100 -2.9 209 0 969.2 NA 0.0000 -SN BR 3600 0 0 0 1540
2019/10/28 17:40:02 BASE 13.48 310 15.07 320 -2.9 100 -2.9 217 0 969.2 NA 0.0000 -SN BR 3600 0 0 0 1570
2019/10/28 17:41:00 BASE 13.30 310 15.07 320 -2.9 100 -2.9 226 0 969.2 NA 0.0000 -SN BR 5000 0 0 0 1870
2019/10/28 17:42:01 BASE 12.61 311 15.02 307 -2.9 100 -2.9 231 0 969.2 NA 0.0000 -SN BR 9999 0 0 0 3250
2019/10/28 17:43:01 BASE 11.79 312 15.02 307 -3.0 100 -3.0 236 0 969.2 NA 0.0000 -SN BR 9999 0 0 0 3220
2019/10/28 17:44:01 BASE 12.27 314 15.02 307 -3.0 100 -3.0 245 0 969.2 NA 0.0000 -SN BR 9999 0 0 0 4170
2019/10/28 17:45:01 BASE 12.91 317 15.02 307 -3.0 100 -3.0 251 0 969.2 NA 0.0000 -SN BR 9999 0 0 0 4300
2019/10/28 17:46:01 BASE 12.69 317 15.02 307 -3.0 100 -3.0 253 0 969.2 NA 0.0000 -SN BR 9999 0 0 0 4330
2019/10/28 17:47:01 BASE 12.06 315 15.02 307 -3.0 100 -3.0 250 0 969.2 NA 0.0000 -SN BR 9999 4000 0 0 0
2019/10/28 17:48:01 BASE 11.50 316 15.02 307 -3.0 100 -3.0 246 0 969.2 NA 0.0000 -SN BR 9999 230 3970 0 0
2019/10/28 17:49:01 BASE 11.14 318 14.82 310 -3.0 100 -3.0 244 0 969.2 NA 0.0000 -SN BR 9999 260 3970 0 0
2019/10/28 17:50:01 BASE 11.73 317 14.66 308 -3.0 100 -3.0 240 0 969.2 NA 0.0000 -SN 9999 260 0 0 0
2019/10/28 17:51:00 BASE 12.84 318 14.51 318 -2.9 100 -2.9 229 0 969.2 NA 0.0000 -SN 9999 260 3940 0 0
2019/10/28 17:52:00 BASE 12.94 319 14.51 318 -2.9 100 -2.9 231 0 969.2 NA 0.0000 -SN 9000 0 0 0 1080
2019/10/28 17:53:00 BASE 12.80 321 14.51 320 -2.9 100 -2.9 239 0 969.2 NA 0.0000 -SN 9000 0 0 0 890
2019/10/28 17:54:00 BASE 12.77 320 14.51 320 -3.0 100 -3.0 238 0 969.2 NA 0.0000 9000 230 0 0 0
2019/10/28 17:55:01 BASE 11.80 319 14.51 320 -3.0 100 -3.0 236 0 969.3 NA 0.0000 9999 260 0 0 0
2019/10/28 17:56:01 BASE 11.49 321 14.51 320 -3.0 100 -3.0 236 0 969.3 NA 0.0000 9999 0 0 0 3870
2019/10/28 17:57:01 BASE 11.94 322 14.51 320 -2.9 100 -2.9 225 0 969.3 NA 0.0000 9999 0 0 0 3940
2019/10/28 17:58:01 BASE 11.50 320 14.51 320 -2.9 100 -2.9 218 0 969.3 NA 0.0000 9999 22280 23160 0 0
2019/10/28 17:59:01 BASE 10.96 317 14.51 320 -2.9 100 -2.9 224 0 969.3 NA 0.0000 9999 0 0 0 1250
2019/10/28 18:00:01 BASE 11.27 314 14.51 320 -2.9 100 -2.9 226 0 969.3 NA 0.0000 9000 0 0 0 3770
2019/10/28 18:01:01 BASE 11.32 312 14.51 320 -2.9 100 -2.9 222 0 969.4 NA 0.0000 9000 0 0 0 3870
2019/10/28 18:02:01 BASE 10.74 318 14.51 320 -2.9 100 -2.9 220 0 969.4 NA 0.0000 BR 9000 0 0 0 2490
2019/10/28 18:03:01 BASE 11.81 321 14.04 315 -3.0 100 -3.0 219 0 969.3 NA 0.0000 BR 8000 0 0 0 3350
2019/10/28 18:04:00 BASE 13.03 318 14.35 312 -3.0 100 -3.0 211 0 969.3 NA 0.0000 BR 9000 0 0 0 3180
2019/10/28 18:05:01 BASE 12.90 315 14.35 312 -3.0 100 -3.0 209 0 969.3 NA 0.0000 BR 9000 0 0 0 2170
2019/10/28 18:06:01 BASE 12.20 316 14.35 312 -3.0 100 -3.0 211 0 969.4 NA 0.0000 -SN BR 9000 0 0 0 2820
2019/10/28 18:07:00 BASE 11.90 321 14.35 312 -3.0 100 -3.0 210 0 969.5 NA 0.0000 -SN BR 7000 0 0 0 2820
2019/10/28 18:08:01 BASE 12.48 322 14.35 312 -3.0 100 -3.0 200 0 969.4 NA 0.0000 -SN BR 4100 0 0 0 3020
2019/10/28 18:09:00 BASE 12.53 320 14.35 312 -3.0 100 -3.0 188 0 969.4 NA 0.0000 -SN BR 4200 0 0 0 1120
2019/10/28 18:10:02 BASE 11.90 319 14.35 312 -3.0 100 -3.0 176 0 969.5 NA 0.0000 -SN BR 4100 0 0 0 1440
2019/10/28 18:11:01 BASE 11.54 321 14.35 312 -3.0 100 -3.0 171 0 969.5 NA 0.0000 -SN BR 4000 0 0 0 1020
2019/10/28 18:12:01 BASE 12.12 322 14.35 312 -2.9 100 -2.9 179 0 969.5 NA 0.0000 -SN BR 4000 0 0 0 950
2019/10/28 18:13:00 BASE 13.54 318 16.05 312 -2.9 100 -2.9 179 0 969.5 NA 0.0000 -SN BR 3900 0 0 0 1280
2019/10/28 18:14:01 BASE 14.73 315 16.20 314 -2.9 100 -2.9 172 0 969.5 NA 0.0000 -SN BR 3800 0 0 0 1870
2019/10/28 18:15:00 BASE 14.61 315 16.20 314 -2.9 100 -2.9 177 0 969.5 NA 0.0000 -SN BR 3700 0 0 0 1020
2019/10/28 18:16:01 BASE 14.08 317 16.20 314 -3.0 100 -3.0 194 0 969.5 NA 0.0000 -SN BR 3600 21920 0 0 0
2019/10/28 18:17:01 BASE 13.80 318 16.20 314 -3.0 100 -3.0 199 0 969.5 NA 0.0000 -SN BR 7000 230 0 0 0
2019/10/28 18:18:00 BASE 13.95 315 16.20 314 -3.0 100 -3.0 195 0 969.5 NA 0.0000 -SN BR 8000 230 0 0 0
2019/10/28 18:19:00 BASE 14.18 313 16.20 314 -3.0 100 -3.0 192 0 969.6 NA 0.0000 -SN BR 7000 0 0 0 2170
2019/10/28 18:20:00 BASE 13.23 314 16.20 314 -3.0 100 -3.0 194 0 969.6 NA 0.0000 -SN BR 5000 0 0 0 2230
2019/10/28 18:21:01 BASE 13.32 316 16.20 314 -3.0 100 -3.0 200 0 969.5 NA 0.0000 -SN BR 7000 0 0 0 2330
2019/10/28 18:22:00 BASE 13.08 320 16.20 314 -3.0 100 -3.0 203 0 969.4 NA 0.0000 -SN BR 7000 0 0 0 2990
2019/10/28 18:23:00 BASE 12.79 324 16.20 314 -3.0 100 -3.0 205 0 969.5 NA 0.0000 -SN BR 8000 0 0 0 2030
2019/10/28 18:24:00 BASE 13.12 325 15.69 315 -3.0 100 -3.0 202 0 969.6 NA 0.0000 -SN BR 9000 0 0 0 3150
2019/10/28 18:25:01 BASE 12.32 325 15.69 315 -3.0 100 -3.0 199 0 969.6 NA 0.0000 -SN BR 9000 230 0 0 0
2019/10/28 18:26:01 BASE 11.86 326 15.69 315 -3.0 100 -3.0 196 0 969.5 NA 0.0000 -SN BR 8000 260 0 0 0
2019/10/28 18:27:02 BASE 11.93 327 15.69 315 -3.0 100 -3.0 191 0 969.6 NA 0.0000 -SN BR 8000 300 0 0 0
2019/10/28 18:28:01 BASE 12.19 328 15.18 318 -3.0 100 -3.0 185 0 969.6 NA 0.0000 -SN BR 8000 300 0 0 0
2019/10/28 18:29:01 BASE 12.03 329 15.18 318 -3.0 100 -3.0 179 0 969.6 NA 0.0000 -SN BR 8000 300 0 0 0
2019/10/28 18:30:01 BASE 12.08 330 15.18 318 -3.0 100 -3.0 175 0 969.6 NA 0.0000 -SN BR 8000 260 20800 0 0
2019/10/28 18:31:01 BASE 12.47 330 14.61 326 -3.1 100 -3.1 172 0 969.6 NA 0.0000 BR 8000 260 0 0 0
2019/10/28 18:32:01 BASE 12.70 330 14.61 326 -3.1 100 -3.1 169 0 969.6 NA 0.0000 BR 8000 260 0 0 0
2019/10/28 18:33:01 BASE 12.79 331 13.89 332 -3.1 100 -3.1 167 0 969.6 NA 0.0000 BR 8000 230 1510 0 0
2019/10/28 18:34:01 BASE 12.30 330 13.89 332 -3.1 100 -3.1 164 0 969.6 NA 0.0000 BR 7000 0 0 0 2130
2019/10/28 18:35:01 BASE 12.21 331 13.89 332 -3.2 100 -3.2 161 0 969.6 NA 0.0000 BR 7000 0 0 0 2330
2019/10/28 18:36:01 BASE 12.66 333 13.89 332 -3.2 100 -3.2 153 0 969.6 NA 0.0000 BR 7000 0 0 0 2230
2019/10/28 18:37:01 BASE 12.53 333 13.89 332 -3.2 100 -3.2 141 0 969.7 NA 0.0000 BR 7000 200 21650 0 0
2019/10/28 18:38:01 BASE 11.84 333 13.89 332 -3.2 100 -3.2 139 0 969.7 NA 0.0000 -SN BR 7000 0 0 0 1800
2019/10/28 18:39:01 BASE 12.36 332 14.20 328 -3.2 100 -3.2 138 0 969.6 NA 0.0000 -SN BR 7000 0 0 0 1710
2019/10/28 18:40:01 BASE 13.27 332 14.35 333 -3.2 100 -3.2 133 0 969.6 NA 0.0000 -SN BR 7000 0 0 0 1740
2019/10/28 18:41:01 BASE 13.11 335 14.35 333 -3.2 100 -3.2 127 0 969.6 NA 0.0000 -SN BR 7000 0 0 0 1670
2019/10/28 18:42:01 BASE 12.94 337 14.35 333 -3.2 100 -3.2 122 0 969.7 NA 0.0000 -SN BR 7000 0 0 0 1640
2019/10/28 18:43:01 BASE 12.76 337 14.35 333 -3.2 100 -3.2 116 0 969.7 NA 0.0000 -SN BR 9000 0 0 0 1540
2019/10/28 18:44:01 BASE 12.92 337 14.35 333 -3.2 100 -3.2 112 0 969.7 NA 0.0000 -SN BR 9999 21850 0 0 0
2019/10/28 18:45:02 BASE 13.64 338 14.87 338 -3.2 100 -3.2 108 0 969.6 NA 0.0000 -SN BR 9999 0 0 0 1250
2019/10/28 18:46:01 BASE 14.17 339 14.97 333 -3.2 100 -3.2 104 0 969.6 NA 0.0000 -SN BR 9999 0 0 0 1080
2019/10/28 18:47:01 BASE 14.69 340 16.62 345 -3.2 100 -3.2 106 0 969.5 NA 0.0000 -SN BR 9999 0 0 0 1050
2019/10/28 18:48:00 BASE 15.79 335 17.44 328 -3.1 100 -3.1 111 0 969.5 NA 0.0000 -SN BR 9999 230 0 0 0
2019/10/28 18:49:00 BASE 14.99 326 17.59 308 -3.1 100 -3.1 111 0 969.7 NA 0.0000 -SN BR 9999 300 0 0 0
2019/10/28 18:50:00 BASE 12.46 317 17.59 308 -3.1 100 -3.1 114 0 969.8 NA 0.0000 -SN BR 9999 300 0 0 0
2019/10/28 18:51:01 BASE 11.57 304 17.59 308 -3.0 100 -3.0 116 0 969.8 NA 0.0000 -SN BR 9000 300 0 0 0
2019/10/28 18:52:01 BASE 13.09 298 17.59 308 -3.0 100 -3.0 116 0 969.8 NA 0.0000 -SN BR 8000 300 0 0 0
2019/10/28 18:53:01 BASE 13.89 295 17.59 308 -3.0 100 -3.0 116 0 969.8 NA 0.0000 -SN BR 9000 330 0 0 0
2019/10/28 18:54:01 BASE 13.95 295 17.59 308 -3.1 100 -3.1 115 0 969.8 NA 0.0000 -SN BR 9000 330 0 0 0
2019/10/28 18:55:01 BASE 14.41 296 17.59 308 -3.1 100 -3.1 115 0 969.8 NA 0.0000 -SN BR 9000 330 0 0 0
2019/10/28 18:56:00 BASE 13.83 297 17.59 308 -3.2 100 -3.2 115 0 969.8 NA 0.0000 -SN BR 9000 360 0 0 0
2019/10/28 18:57:01 BASE 13.75 297 17.59 308 -3.3 100 -3.3 114 0 969.8 NA 0.0000 -SN BR 9000 390 0 0 0
2019/10/28 18:58:00 BASE 13.85 295 17.59 308 -3.3 100 -3.3 114 0 969.9 NA 0.0000 -SN BR 9000 1250 0 0 0
2019/10/28 18:59:00 BASE 14.00 297 16.93 300 -3.3 100 -3.3 116 0 969.8 NA 0.0000 -SN BR 9000 1280 0 0 0
2019/10/28 19:00:00 BASE 14.59 298 17.65 304 -3.3 100 -3.3 116 0 969.8 NA 0.0000 -SN BR 9000 1310 0 0 0
2019/10/28 19:01:00 BASE 14.18 298 17.65 304 -3.3 100 -3.3 116 0 969.9 NA 0.0000 BR 9000 1250 0 0 0
2019/10/28 19:02:01 BASE 15.29 301 18.62 300 -3.3 100 -3.3 117 0 969.8 NA 0.0000 BR 9000 660 0 0 0
2019/10/28 19:03:01 BASE 16.91 302 18.62 300 -3.3 100 -3.3 118 0 969.8 NA 0.0000 BR 9000 1180 0 0 0
2019/10/28 19:04:00 BASE 17.08 300 19.24 298 -3.4 100 -3.4 119 0 969.9 NA 0.0000 BR 9999 1280 0 0 0
2019/10/28 19:05:01 BASE 16.34 300 19.24 298 -3.4 100 -3.4 120 0 969.9 NA 0.0000 BR 9999 1350 0 0 0
2019/10/28 19:06:01 BASE 15.40 300 19.24 298 -3.4 100 -3.4 121 0 969.9 NA 0.0000 9999 1350 0 0 0
2019/10/28 19:07:01 BASE 15.69 299 19.24 298 -3.4 100 -3.4 122 0 969.9 NA 0.0000 9999 1410 0 0 0
2019/10/28 19:08:01 BASE 15.64 299 19.24 298 -3.4 100 -3.4 121 0 970.0 NA 0.0000 9999 1540 0 0 0
2019/10/28 19:09:00 BASE 14.74 298 19.24 298 -3.4 100 -3.4 120 0 970.0 NA 0.0000 9999 1710 23030 0 0
2019/10/28 19:10:02 BASE 13.95 299 19.24 298 -3.4 100 -3.4 120 0 970.0 NA 0.0000 9999 1250 0 0 0
2019/10/28 19:11:01 BASE 13.87 301 19.24 298 -3.4 100 -3.4 121 0 970.0 NA 0.0000 9999 1380 0 0 0
2019/10/28 19:12:01 BASE 14.03 304 19.24 298 -3.3 100 -3.3 115 0 970.1 NA 0.0000 9999 1510 0 0 0
2019/10/28 19:13:01 BASE 13.68 305 19.24 298 -3.3 100 -3.3 107 0 970.0 NA 0.0000 9999 1410 0 0 0
2019/10/28 19:14:01 BASE 13.68 304 17.49 292 -3.3 100 -3.3 104 0 970.0 NA 0.0000 9999 1380 0 0 0
2019/10/28 19:15:01 BASE 13.73 304 17.49 292 -3.3 100 -3.3 100 0 970.1 NA 0.0000 9999 1410 0 0 0
2019/10/28 19:16:01 BASE 13.85 306 17.34 299 -3.3 100 -3.3 97 0 970.1 NA 0.0000 9999 1280 0 0 0
2019/10/28 19:17:01 BASE 14.59 306 16.98 300 -3.3 100 -3.3 95 0 970.1 NA 0.0000 9999 1210 0 0 0
2019/10/28 19:18:00 BASE 14.88 303 16.98 300 -3.3 100 -3.3 92 0 970.1 NA 0.0000 9999 1150 0 0 0
2019/10/28 19:19:00 BASE 14.15 301 16.98 300 -3.3 100 -3.3 91 0 970.1 NA 0.0000 9999 1120 0 0 0
2019/10/28 19:20:01 BASE 14.25 299 16.98 300 -3.3 100 -3.3 89 0 970.1 NA 0.0000 9999 1120 0 0 0
2019/10/28 19:21:01 BASE 14.60 296 16.98 300 -3.3 100 -3.3 88 0 970.2 NA 0.0000 9999 1180 0 0 0
2019/10/28 19:22:01 BASE 14.24 297 16.98 300 -3.3 100 -3.3 89 0 970.2 NA 0.0000 9999 1280 0 0 0
2019/10/28 19:23:01 BASE 13.09 298 16.98 300 -3.3 100 -3.3 91 0 970.2 NA 0.0000 9999 1310 0 0 0
2019/10/28 19:24:00 BASE 12.56 297 16.98 300 -3.3 100 -3.3 93 0 970.2 NA 0.0000 9000 1280 0 0 0
2019/10/28 19:25:00 BASE 13.56 298 16.98 300 -3.3 100 -3.3 91 0 970.3 NA 0.0000 9000 430 0 0 0
2019/10/28 19:26:00 BASE 12.78 302 16.98 300 -3.3 100 -3.3 88 0 970.3 NA 0.0000 9000 430 0 0 0
2019/10/28 19:27:01 BASE 12.62 304 16.51 298 -3.3 100 -3.3 86 0 970.3 NA 0.0000 9000 390 0 0 0
2019/10/28 19:28:00 BASE 13.68 302 16.31 298 -3.3 100 -3.3 84 0 970.3 NA 0.0000 -SN 9000 360 0 0 0
2019/10/28 19:29:01 BASE 13.18 300 16.31 298 -3.3 100 -3.3 81 0 970.3 NA 0.0000 -SN 9000 360 0 0 0
2019/10/28 19:30:01 BASE 12.91 303 15.79 299 -3.3 100 -3.3 80 0 970.3 NA 0.0000 -SN 8000 360 19850 0 0
2019/10/28 19:31:01 BASE 13.08 305 15.79 299 -3.3 100 -3.3 79 0 970.3 NA 0.0000 -SN BR 7000 390 0 0 0
2019/10/28 19:32:01 BASE 12.84 305 15.18 298 -3.3 100 -3.3 78 0 970.4 NA 0.0000 -SN BR 9999 390 0 0 0
2019/10/28 19:33:01 BASE 12.66 307 15.18 298 -3.3 100 -3.3 77 0 970.4 NA 0.0000 -SN BR 9000 1310 0 0 0
2019/10/28 19:34:01 BASE 12.95 309 15.18 298 -3.3 100 -3.3 75 0 970.4 NA 0.0000 -SN BR 9999 1280 0 0 0
2019/10/28 19:35:00 BASE 13.14 307 15.18 298 -3.3 100 -3.3 75 0 970.4 NA 0.0000 -SN BR 9999 1250 0 0 0
2019/10/28 19:36:01 BASE 12.54 306 15.18 298 -3.3 100 -3.3 75 0 970.4 NA 0.0000 -SN BR 9999 1210 0 0 0
2019/10/28 19:37:00 BASE 12.02 306 15.18 298 -3.3 100 -3.3 76 0 970.4 NA 0.0000 -SN 9999 1180 0 0 0
2019/10/28 19:38:01 BASE 12.03 304 14.92 303 -3.3 100 -3.3 77 0 970.4 NA 0.0000 -SN 9999 1150 0 0 0
2019/10/28 19:39:00 BASE 11.94 305 14.92 303 -3.3 100 -3.3 78 0 970.4 NA 0.0000 -SN 9999 1150 0 0 0
2019/10/28 19:40:01 BASE 11.19 305 14.40 301 -3.3 100 -3.3 78 0 970.5 NA 0.0000 -SN 9999 1180 0 0 0
2019/10/28 19:41:00 BASE 10.64 305 14.35 307 -3.3 100 -3.3 77 0 970.5 NA 0.0000 -SN 9999 1180 0 0 0
2019/10/28 19:42:00 BASE 11.27 306 14.35 307 -3.3 100 -3.3 75 0 970.5 NA 0.0000 -SN 9999 1210 0 0 0
2019/10/28 19:43:01 BASE 11.87 303 14.35 307 -3.2 100 -3.2 74 0 970.5 NA 0.0000 -SN 9999 1080 0 0 0
2019/10/28 19:44:01 BASE 12.02 301 14.35 307 -3.2 100 -3.2 76 0 970.5 NA 0.0000 -SN 9999 1020 0 0 0
2019/10/28 19:45:01 BASE 11.87 302 13.22 297 -3.2 100 -3.2 79 0 970.5 NA 0.0000 9999 1080 0 0 0
2019/10/28 19:46:01 BASE 10.78 303 13.22 297 -3.2 100 -3.2 79 0 970.6 NA 0.0000 9999 1120 0 0 0
2019/10/28 19:47:01 BASE 9.59 301 13.22 297 -3.2 100 -3.2 79 0 970.6 NA 0.0000 9999 1120 0 0 0
2019/10/28 19:48:01 BASE 8.97 302 13.22 297 -3.2 100 -3.2 79 0 970.6 NA 0.0000 9999 1050 0 0 0
2019/10/28 19:49:01 BASE 8.66 300 13.22 297 -3.2 100 -3.2 79 0 970.6 NA 0.0000 9999 1080 0 0 0
2019/10/28 19:50:01 BASE 8.71 293 13.22 297 -3.2 100 -3.2 79 0 970.6 NA 0.0000 9999 750 0 0 0
2019/10/28 19:51:00 BASE 8.94 296 13.22 297 -3.2 100 -3.2 80 0 970.6 NA 0.0000 -SN 9999 1080 0 0 0
2019/10/28 19:52:00 BASE 9.44 301 13.22 297 -3.2 100 -3.2 83 0 970.6 NA 0.0000 -SN 9999 1020 0 0 0
2019/10/28 19:53:00 BASE 9.30 301 13.22 297 -3.2 100 -3.2 83 0 970.6 NA 0.0000 -SN 9999 1020 0 0 0
2019/10/28 19:54:01 BASE 9.19 299 12.71 299 -3.2 100 -3.2 82 0 970.6 NA 0.0000 -SN 9999 1050 0 0 0
2019/10/28 19:55:00 BASE 9.95 297 11.06 302 -3.2 100 -3.2 79 0 970.6 NA 0.0000 -SN 9999 1080 0 0 0
2019/10/28 19:56:01 BASE 10.23 296 10.75 292 -3.2 100 -3.2 80 0 970.6 NA 0.0000 -SN 9999 1020 0 0 0
2019/10/28 19:57:01 BASE 10.21 289 11.57 286 -3.2 100 -3.2 78 0 970.6 NA 0.0000 -SN 9999 1020 0 0 0
2019/10/28 19:58:01 BASE 9.66 288 11.73 296 -3.2 100 -3.2 77 0 970.6 NA 0.0000 -SN 9999 1020 0 0 0
2019/10/28 19:59:01 BASE 10.51 290 13.12 280 -3.2 100 -3.2 77 0 970.5 NA 0.0000 -SN 9999 1020 0 0 0
2019/10/28 20:00:01 BASE 11.88 284 13.12 280 -3.2 100 -3.2 79 0 970.6 NA 0.0000 -SN 7000 430 0 0 0
2019/10/28 20:01:00 BASE 11.71 279 13.12 280 -3.3 100 -3.3 82 0 970.6 NA 0.0000 -SN BR 8000 1120 0 0 0
2019/10/28 20:02:01 BASE 10.84 283 13.12 280 -3.3 100 -3.3 87 0 970.7 NA 0.0000 -SN BR 9999 1080 21520 0 0
2019/10/28 20:03:00 BASE 10.32 288 13.12 280 -3.3 100 -3.3 89 0 970.7 NA 0.0000 -SN BR 9999 1150 0 0 0
2019/10/28 20:04:01 BASE 10.07 293 13.12 280 -3.3 100 -3.3 90 0 970.7 NA 0.0000 -SN BR 9999 1180 0 0 0
2019/10/28 20:05:01 BASE 9.59 294 13.12 280 -3.3 100 -3.3 90 0 970.7 NA 0.0000 -SN BR 9999 1310 0 0 0
2019/10/28 20:06:01 BASE 9.12 293 13.12 280 -3.3 100 -3.3 90 0 970.7 NA 0.0000 -SN 9999 1180 0 0 0
2019/10/28 20:07:01 BASE 9.91 292 13.12 280 -3.3 100 -3.3 90 0 970.7 NA 0.0000 -SN 9999 1210 0 0 0
2019/10/28 20:08:01 BASE 10.35 287 13.12 280 -3.3 100 -3.3 91 0 970.7 NA 0.0000 -SN 9999 1180 0 0 0
2019/10/28 20:09:01 BASE 10.02 286 12.91 288 -3.3 100 -3.3 94 0 970.8 NA 0.0000 -SN 9999 1180 0 0 0
2019/10/28 20:10:02 BASE 9.82 288 12.91 288 -3.3 100 -3.3 95 0 970.8 NA 0.0000 -SN 9999 1180 0 0 0
2019/10/28 20:11:01 BASE 9.21 289 12.45 277 -3.3 100 -3.3 97 0 970.8 NA 0.0000 -SN 9999 1180 0 0 0
2019/10/28 20:12:01 BASE 9.80 293 12.45 291 -3.3 100 -3.3 97 0 970.8 NA 0.0000 9999 1380 0 0 0
2019/10/28 20:13:01 BASE 10.76 293 12.45 291 -3.3 100 -3.3 97 0 970.7 NA 0.0000 9999 1280 0 0 0
2019/10/28 20:14:00 BASE 10.55 292 12.45 291 -3.3 100 -3.3 99 0 970.8 NA 0.0000 9999 1380 0 0 0
2019/10/28 20:15:01 BASE 10.00 293 12.91 287 -3.3 100 -3.3 97 0 970.8 NA 0.0000 9999 1280 0 0 0
2019/10/28 20:16:01 BASE 9.50 292 12.91 287 -3.3 100 -3.3 93 0 970.8 NA 0.0000 9999 1280 0 0 0
2019/10/28 20:17:01 BASE 8.95 294 12.91 287 -3.3 100 -3.3 91 0 970.8 NA 0.0000 9999 1180 0 0 0
2019/10/28 20:18:01 BASE 9.32 296 12.91 287 -3.3 100 -3.3 87 0 970.8 NA 0.0000 9999 1250 0 0 0
2019/10/28 20:19:01 BASE 9.10 293 12.91 287 -3.3 100 -3.3 86 0 970.9 NA 0.0000 9999 1210 0 0 0
2019/10/28 20:20:01 BASE 8.83 290 12.91 287 -3.2 100 -3.2 86 0 970.8 NA 0.0000 9999 1180 0 0 0
2019/10/28 20:21:01 BASE 8.75 290 12.91 287 -3.2 100 -3.2 86 0 970.8 NA 0.0000 9999 1210 0 0 0
2019/10/28 20:22:02 BASE 8.16 294 12.91 287 -3.2 100 -3.2 86 0 970.9 NA 0.0000 9999 1180 0 0 0
2019/10/28 20:23:01 BASE 7.96 296 12.91 287 -3.2 100 -3.2 86 0 970.9 NA 0.0000 9999 1080 0 0 0
2019/10/28 20:24:00 BASE 8.42 296 12.91 287 -3.2 100 -3.2 85 0 970.9 NA 0.0000 9999 1080 0 0 0
2019/10/28 20:25:00 BASE 9.22 297 10.91 293 -3.2 100 -3.2 85 0 970.9 NA 0.0000 9999 1050 0 0 0
2019/10/28 20:26:00 BASE 8.65 300 10.91 293 -3.2 100 -3.2 87 0 970.9 NA 0.0000 -SN 9999 980 0 0 0
2019/10/28 20:27:01 BASE 7.64 302 10.85 278 -3.2 100 -3.2 92 0 971.0 NA 0.0000 -SN 9999 790 0 0 0
2019/10/28 20:28:00 BASE 7.67 299 10.85 278 -3.2 100 -3.2 92 0 971.0 NA 0.0000 -SN 9000 430 0 0 0
2019/10/28 20:29:00 BASE 7.72 296 10.85 278 -3.2 100 -3.2 89 0 971.0 NA 0.0000 -SN 5000 330 0 0 0
2019/10/28 20:30:01 BASE 8.22 291 10.34 297 -3.2 100 -3.2 87 0 971.0 NA 0.0000 -SN BR 3700 300 0 0 0
2019/10/28 20:31:01 BASE 8.74 294 10.34 297 -3.2 100 -3.2 87 0 971.0 NA 0.0000 -SN BR 2700 0 0 0 1510
2019/10/28 20:32:00 BASE 9.65 295 11.52 293 -3.2 100 -3.2 87 0 971.0 NA 0.0000 -SN BR 3200 0 0 0 1570
2019/10/28 20:33:00 BASE 10.49 289 12.45 285 -3.2 100 -3.2 90 0 971.0 NA 0.0000 -SN BR 2500 0 0 0 1510
2019/10/28 20:34:00 BASE 10.21 288 12.60 271 -3.2 100 -3.2 91 0 971.0 NA 0.0000 -SN BR 3000 0 0 0 1740
2019/10/28 20:35:01 BASE 9.90 287 12.60 271 -3.2 100 -3.2 91 0 971.0 NA 0.0000 -SN BR 3000 0 0 0 1840
2019/10/28 20:36:00 BASE 9.94 290 12.60 271 -3.3 100 -3.3 91 0 971.0 NA 0.0000 -SN BR 4400 300 0 0 0
2019/10/28 20:37:01 BASE 10.69 291 12.60 271 -3.3 100 -3.3 91 0 971.0 NA 0.0000 -SN BR 6000 300 0 0 0
2019/10/28 20:38:01 BASE 10.41 290 12.60 271 -3.3 100 -3.3 89 0 971.1 NA 0.0000 -SN BR 5000 230 0 0 0
2019/10/28 20:39:00 BASE 9.41 289 12.60 271 -3.3 100 -3.3 86 0 971.1 NA 0.0000 -SN BR 5000 0 0 0 1970
2019/10/28 20:40:00 BASE 9.30 288 12.60 271 -3.3 100 -3.3 83 0 971.1 NA 0.0000 -SN BR 3000 0 0 0 1670
2019/10/28 20:41:00 BASE 9.94 288 12.60 271 -3.4 100 -3.4 80 0 971.1 NA 0.0000 -SN BR 2000 0 0 0 1610
2019/10/28 20:42:00 BASE 9.51 286 12.60 271 -3.4 100 -3.4 78 0 971.1 NA 0.0000 -SN BR 2500 0 0 0 1570
2019/10/28 20:43:00 BASE 8.43 288 12.60 271 -3.4 100 -3.4 77 0 971.2 NA 0.0000 -SN BR 1800 0 0 0 1540
2019/10/28 20:44:00 BASE 8.69 289 12.24 290 -3.4 100 -3.4 75 0 971.2 NA 0.0000 -SN BR 2600 0 0 0 1740
2019/10/28 20:45:01 BASE 8.84 286 12.24 290 -3.4 100 -3.4 73 0 971.2 NA 0.0000 -SN BR 2200 0 0 0 1870
2019/10/28 20:46:00 BASE 8.80 286 12.24 290 -3.4 100 -3.4 71 0 971.2 NA 0.0000 -SN BR 2200 0 0 0 1710
2019/10/28 20:47:01 BASE 8.74 287 11.52 282 -3.4 100 -3.4 69 0 971.2 NA 0.0000 -SN BR 3800 0 0 0 1640
2019/10/28 20:48:01 BASE 8.53 288 11.52 282 -3.4 100 -3.4 65 0 971.2 NA 0.0000 -SN BR 3900 0 0 0 1670
2019/10/28 20:49:01 BASE 9.30 289 12.19 283 -3.4 100 -3.4 64 0 971.2 NA 0.0000 -SN BR 4800 0 0 0 1480
2019/10/28 20:50:01 BASE 10.28 288 12.19 283 -3.4 100 -3.4 64 0 971.2 NA 0.0000 -SN BR 7000 260 0 0 0
2019/10/28 20:51:01 BASE 10.56 288 12.19 283 -3.4 100 -3.4 63 0 971.2 NA 0.0000 -SN BR 7000 230 1080 0 0
2019/10/28 20:52:02 BASE 10.77 289 12.19 283 -3.5 100 -3.5 62 0 971.2 NA 0.0000 -SN BR 8000 330 0 0 0
2019/10/28 20:53:01 BASE 10.58 290 12.19 283 -3.5 100 -3.5 60 0 971.2 NA 0.0000 -SN BR 9999 390 0 0 0
2019/10/28 20:54:01 BASE 9.36 291 12.19 283 -3.5 100 -3.5 60 0 971.4 NA 0.0000 -SN BR 9999 390 0 0 0
2019/10/28 20:55:01 BASE 9.00 292 12.19 283 -3.5 100 -3.5 59 0 971.4 NA 0.0000 -SN BR 9999 360 0 0 0
2019/10/28 20:56:01 BASE 9.85 291 12.19 283 -3.5 100 -3.5 60 0 971.3 NA 0.0000 -SN BR 9999 300 0 0 0
2019/10/28 20:57:00 BASE 10.41 291 12.19 283 -3.5 100 -3.5 61 0 971.4 NA 0.0000 -SN BR 7000 230 0 0 0
2019/10/28 20:58:01 BASE 10.41 289 12.19 283 -3.5 100 -3.5 62 0 971.4 NA 0.0000 -SN BR 5000 0 0 0 1380
2019/10/28 20:59:01 BASE 10.34 286 12.04 289 -3.5 100 -3.5 62 0 971.4 NA 0.0000 -SN BR 4900 0 0 0 1310
2019/10/28 21:00:01 BASE 9.73 287 12.04 289 -3.5 100 -3.5 63 0 971.4 NA 0.0000 -SN BR 4800 0 0 0 1350
2019/10/28 21:01:01 BASE 8.59 289 12.04 289 -3.5 100 -3.5 64 0 971.5 NA 0.0000 -SN BR 4700 0 0 0 1410
2019/10/28 21:02:01 BASE 8.44 290 11.83 283 -3.5 100 -3.5 64 0 971.5 NA 0.0000 -SN BR 5000 230 1180 0 0
2019/10/28 21:03:01 BASE 9.56 291 11.83 283 -3.5 100 -3.5 63 0 971.4 NA 0.0000 -SN BR 4600 260 0 0 0
2019/10/28 21:04:01 BASE 10.90 288 12.45 284 -3.5 100 -3.5 63 0 971.5 NA 0.0000 -SN BR 6000 300 0 0 0
2019/10/28 21:05:01 BASE 10.59 285 12.45 284 -3.5 100 -3.5 63 0 971.5 NA 0.0000 -SN BR 7000 300 1250 0 0
2019/10/28 21:06:01 BASE 9.69 289 12.45 284 -3.5 100 -3.5 64 0 971.5 NA 0.0000 -SN BR 9000 300 0 0 0
2019/10/28 21:07:01 BASE 9.47 289 12.45 284 -3.5 100 -3.5 65 0 971.6 NA 0.0000 -SN BR 9000 330 1080 0 0
2019/10/28 21:08:01 BASE 8.44 289 12.45 284 -3.5 100 -3.5 66 0 971.6 NA 0.0000 -SN BR 9999 330 0 0 0
2019/10/28 21:09:01 BASE 8.28 293 12.45 284 -3.5 100 -3.5 67 0 971.6 NA 0.0000 -SN BR 9999 330 0 0 0
2019/10/28 21:10:02 BASE 9.24 295 12.45 284 -3.5 100 -3.5 65 0 971.6 NA 0.0000 -SN BR 9999 360 0 0 0
2019/10/28 21:11:01 BASE 9.31 295 12.45 284 -3.5 100 -3.5 63 0 971.7 NA 0.0000 -SN BR 9999 390 0 0 0
2019/10/28 21:12:00 BASE 8.87 295 12.45 284 -3.5 100 -3.5 62 0 971.7 NA 0.0000 -SN BR 9999 850 0 0 0
2019/10/28 21:13:01 BASE 8.47 297 12.45 284 -3.5 100 -3.5 61 0 971.7 NA 0.0000 -SN BR 9999 820 0 0 0
2019/10/28 21:14:01 BASE 8.60 297 11.68 288 -3.5 100 -3.5 60 0 971.7 NA 0.0000 -SN 9999 690 0 0 0
2019/10/28 21:15:00 BASE 8.98 295 11.42 288 -3.5 100 -3.5 62 0 971.7 NA 0.0000 -SN 9999 520 0 0 0
2019/10/28 21:16:01 BASE 9.77 293 10.96 289 -3.5 100 -3.5 63 0 971.7 NA 0.0000 -SN 9999 390 0 0 0
2019/10/28 21:17:01 BASE 10.37 290 10.96 279 -3.5 100 -3.5 62 0 971.7 NA 0.0000 -SN 9000 300 0 0 0
2019/10/28 21:18:00 BASE 9.88 291 10.96 279 -3.5 100 -3.5 63 0 971.7 NA 0.0000 -SN 8000 260 0 0 0
2019/10/28 21:19:00 BASE 9.89 295 11.47 297 -3.5 100 -3.5 63 0 971.7 NA 0.0000 -SN 7000 260 0 0 0
2019/10/28 21:20:00 BASE 10.14 295 11.47 297 -3.5 100 -3.5 62 0 971.8 NA 0.0000 -SN BR 4800 260 0 0 0
2019/10/28 21:21:01 BASE 9.72 296 11.47 297 -3.5 100 -3.5 62 0 971.8 NA 0.0000 -SN BR 3900 230 0 0 0
2019/10/28 21:22:01 BASE 10.20 296 11.99 296 -3.5 100 -3.5 61 0 971.8 NA 0.0000 -SN BR 7000 260 0 0 0
2019/10/28 21:23:01 BASE 10.16 295 11.99 296 -3.5 100 -3.5 61 0 971.9 NA 0.0000 -SN BR 7000 0 0 0 1210
2019/10/28 21:24:02 BASE 9.38 294 11.99 296 -3.5 100 -3.5 60 0 971.9 NA 0.0000 -SN BR 5000 0 0 0 1210
2019/10/28 21:25:01 BASE 10.34 291 11.99 296 -3.5 100 -3.5 60 0 971.9 NA 0.0000 -SN BR 3800 0 0 0 1210
2019/10/28 21:26:01 BASE 10.83 290 12.04 287 -3.4 100 -3.4 61 0 971.9 NA 0.0000 -SN BR 5000 230 0 0 0
2019/10/28 21:27:01 BASE 9.31 292 12.04 287 -3.4 100 -3.4 60 0 972.0 NA 0.0000 -SN BR 5000 260 0 0 0
2019/10/28 21:28:01 BASE 7.92 292 12.04 287 -3.4 100 -3.4 58 0 972.0 NA 0.0000 -SN BR 6000 260 0 0 0
2019/10/28 21:29:01 BASE 8.21 289 12.04 287 -3.4 100 -3.4 57 0 972.0 NA 0.0000 -SN BR 4200 260 0 0 0
2019/10/28 21:30:01 BASE 8.34 289 12.04 287 -3.4 100 -3.4 57 0 972.1 NA 0.0000 -SN BR 3200 300 0 0 0
2019/10/28 21:31:01 BASE 7.58 292 12.04 287 -3.3 100 -3.3 56 0 972.1 NA 0.0000 -SN BR 5000 260 0 0 0
2019/10/28 21:32:01 BASE 8.16 292 12.04 287 -3.3 100 -3.3 57 0 972.1 NA 0.0000 -SN BR 4000 260 0 0 0
2019/10/28 21:33:01 BASE 9.05 292 12.04 287 -3.3 100 -3.3 56 0 972.1 NA 0.0000 -SN BR 4000 260 0 0 0
2019/10/28 21:34:01 BASE 8.92 292 12.04 287 -3.3 100 -3.3 56 0 972.1 NA 0.0000 -SN BR 7000 260 0 0 0
2019/10/28 21:35:01 BASE 8.90 290 12.04 287 -3.3 100 -3.3 57 0 972.1 NA 0.0000 -SN BR 7000 300 0 0 0
2019/10/28 21:36:01 BASE 9.98 290 12.45 291 -3.3 100 -3.3 57 0 972.1 NA 0.0000 -SN BR 7000 230 0 0 0
2019/10/28 21:37:01 BASE 11.12 290 12.45 291 -3.3 100 -3.3 57 0 972.1 NA 0.0000 -SN BR 5000 0 0 0 1080
2019/10/28 21:38:00 BASE 10.75 287 12.45 291 -3.3 100 -3.3 56 0 972.1 NA 0.0000 -SN BR 2900 0 0 0 1120
2019/10/28 21:39:01 BASE 9.61 284 12.45 291 -3.3 100 -3.3 56 0 972.1 NA 0.0000 -SN BR 4500 0 0 0 1180
2019/10/28 21:40:01 BASE 9.83 280 12.45 291 -3.3 100 -3.3 55 0 972.1 NA 0.0000 -SN BR 3400 0 0 0 1310
2019/10/28 21:41:01 BASE 9.53 281 12.45 291 -3.3 100 -3.3 55 0 972.2 NA 0.0000 -SN BR 3300 0 0 0 1150
2019/10/28 21:42:00 BASE 8.96 286 12.45 291 -3.3 100 -3.3 54 0 972.2 NA 0.0000 -SN BR 2500 0 0 0 1210
2019/10/28 21:43:01 BASE 9.81 284 12.45 291 -3.3 100 -3.3 54 0 972.2 NA 0.0000 -SN BR 3000 260 0 0 0
2019/10/28 21:44:01 BASE 10.69 280 12.66 274 -3.2 100 -3.2 53 0 972.2 NA 0.0000 -SN BR 6000 300 0 0 0
2019/10/28 21:45:01 BASE 11.11 279 14.30 276 -3.2 100 -3.2 53 0 972.2 NA 0.0000 -SN BR 6000 260 0 0 0
2019/10/28 21:46:01 BASE 11.18 276 14.30 276 -3.2 100 -3.2 52 0 972.2 NA 0.0000 -SN BR 6000 260 0 0 0
2019/10/28 21:47:01 BASE 10.39 274 14.30 276 -3.2 100 -3.2 51 0 972.3 NA 0.0000 -SN BR 7000 260 0 0 0
2019/10/28 21:48:01 BASE 10.36 278 14.30 276 -3.2 100 -3.2 50 0 972.3 NA 0.0000 -SN BR 4500 300 0 0 0
2019/10/28 21:49:01 BASE 11.44 279 14.30 276 -3.2 100 -3.2 47 0 972.3 NA 0.0000 -SN BR 9999 330 0 0 0
2019/10/28 21:50:01 BASE 12.09 276 14.30 276 -3.3 100 -3.3 45 0 972.3 NA 0.0000 -SN BR 9999 300 0 0 0
2019/10/28 21:51:01 BASE 11.66 276 14.30 276 -3.3 100 -3.3 47 0 972.3 NA 0.0000 -SN BR 9000 300 0 0 0
2019/10/28 21:52:01 BASE 11.68 277 15.69 273 -3.3 100 -3.3 47 0 972.3 NA 0.0000 -SN BR 9000 330 0 0 0
2019/10/28 21:53:01 BASE 11.73 275 15.69 273 -3.3 100 -3.3 47 0 972.4 NA 0.0000 -SN BR 8000 360 0 0 0
2019/10/28 21:54:01 BASE 11.42 272 15.69 273 -3.3 100 -3.3 46 0 972.4 NA 0.0000 -SN BR 7000 330 0 0 0
2019/10/28 21:55:01 BASE 11.08 273 15.69 273 -3.3 100 -3.3 46 0 972.4 NA 0.0000 -SN BR 9000 330 0 0 0
2019/10/28 21:56:01 BASE 11.85 279 15.95 276 -3.3 100 -3.3 47 0 972.4 NA 0.0000 -SN BR 6000 300 0 0 0
2019/10/28 21:57:01 BASE 13.35 280 15.95 276 -3.3 100 -3.3 49 0 972.4 NA 0.0000 -SN BR 4000 260 0 0 0
2019/10/28 21:58:01 BASE 12.63 276 15.95 276 -3.3 100 -3.3 52 0 972.5 NA 0.0000 -SN BR 5000 330 0 0 0
2019/10/28 21:59:01 BASE 11.34 273 15.95 276 -3.2 100 -3.2 54 0 972.5 NA 0.0000 -SN BR 7000 360 0 0 0
2019/10/28 22:00:01 BASE 10.85 277 15.95 276 -3.2 100 -3.2 55 0 972.5 NA 0.0000 -SN BR 9999 360 2400 0 0
2019/10/28 22:01:01 BASE 11.84 281 15.95 276 -3.2 100 -3.2 56 0 972.5 NA 0.0000 -SN BR 8000 330 2400 0 0
2019/10/28 22:02:00 BASE 11.87 278 15.95 276 -3.2 100 -3.2 55 0 972.6 NA 0.0000 -SN BR 9000 330 2430 0 0
2019/10/28 22:03:01 BASE 11.17 280 15.95 276 -3.2 100 -3.2 53 0 972.6 NA 0.0000 -SN BR 5000 330 0 0 0
2019/10/28 22:04:00 BASE 11.57 279 15.95 276 -3.2 100 -3.2 51 0 972.6 NA 0.0000 -SN BR 9999 360 0 0 0
2019/10/28 22:05:00 BASE 11.56 278 15.95 276 -3.2 100 -3.2 51 0 972.7 NA 0.0000 -SN BR 9999 390 0 0 0
2019/10/28 22:06:01 BASE 11.68 279 15.69 290 -3.2 100 -3.2 51 0 972.7 NA 0.0000 -SN BR 9999 390 0 0 0
2019/10/28 22:07:01 BASE 12.38 277 15.12 270 -3.2 100 -3.2 51 0 972.7 NA 0.0000 -SN BR 9999 890 0 0 0
2019/10/28 22:08:01 BASE 13.05 277 16.20 275 -3.2 100 -3.2 51 0 972.7 NA 0.0000 -SN BR 9999 850 0 0 0
2019/10/28 22:09:01 BASE 12.38 279 16.20 275 -3.2 100 -3.2 52 0 972.8 NA 0.0000 -SN BR 9999 750 0 0 0
2019/10/28 22:10:02 BASE 11.43 278 16.20 275 -3.2 100 -3.2 52 0 972.8 NA 0.0000 -SN 9999 750 2230 0 0
2019/10/28 22:11:01 BASE 12.84 279 16.36 278 -3.2 100 -3.2 52 0 972.7 NA 0.0000 -SN 9999 750 2260 0 0
2019/10/28 22:12:01 BASE 13.66 279 16.36 278 -3.2 100 -3.2 51 0 972.8 NA 0.0000 -SN 9999 790 0 0 0
2019/10/28 22:13:02 BASE 13.20 277 16.36 278 -3.2 100 -3.2 50 0 972.8 NA 0.0000 -SN 9999 750 0 0 0
2019/10/28 22:14:01 BASE 12.85 280 16.36 278 -3.2 100 -3.2 50 0 972.8 NA 0.0000 -SN 9999 790 0 0 0
2019/10/28 22:15:01 BASE 13.19 283 16.51 281 -3.2 100 -3.2 49 0 972.8 NA 0.0000 -SN 9999 430 1310 0 0
2019/10/28 22:16:00 BASE 13.97 285 16.51 281 -3.2 100 -3.2 50 0 972.8 NA 0.0000 -SN 9999 390 2400 0 0
2019/10/28 22:17:01 BASE 13.82 285 16.51 281 -3.2 100 -3.2 50 0 972.9 NA 0.0000 -SN 9999 300 2400 0 0
2019/10/28 22:18:00 BASE 12.94 285 16.51 281 -3.3 100 -3.3 48 0 972.9 NA 0.0000 -SN 7000 360 0 0 0
2019/10/28 22:19:00 BASE 12.13 281 16.51 281 -3.3 100 -3.3 46 0 973.0 NA 0.0000 -SN 8000 330 0 0 0
2019/10/28 22:20:00 BASE 13.04 279 16.51 281 -3.3 100 -3.3 44 0 973.0 NA 0.0000 -SN 7000 330 0 0 0
2019/10/28 22:21:00 BASE 13.45 280 16.51 281 -3.3 100 -3.3 45 0 973.0 NA 0.0000 -SN BR 7000 260 0 0 0
2019/10/28 22:22:01 BASE 12.15 280 16.51 281 -3.3 100 -3.3 45 0 973.0 NA 0.0000 -SN BR 4800 260 0 0 0
2019/10/28 22:23:01 BASE 11.31 283 16.51 281 -3.3 100 -3.3 45 0 973.1 NA 0.0000 -SN BR 3700 300 0 0 0
2019/10/28 22:24:01 BASE 11.59 283 16.51 281 -3.3 100 -3.3 44 0 973.1 NA 0.0000 -SN BR 7000 300 0 0 0
2019/10/28 22:25:00 BASE 12.41 282 16.46 277 -3.3 100 -3.3 43 0 973.1 NA 0.0000 -SN BR 4500 300 1510 0 0
2019/10/28 22:26:00 BASE 11.93 282 16.46 277 -3.3 100 -3.3 43 0 973.1 NA 0.0000 -SN BR 4700 300 1380 0 0
2019/10/28 22:27:01 BASE 11.07 282 16.46 277 -3.4 100 -3.4 42 0 973.2 NA 0.0000 -SN BR 4200 300 0 0 0
2019/10/28 22:28:01 BASE 10.91 283 16.46 277 -3.4 100 -3.4 41 0 973.2 NA 0.0000 -SN BR 3600 300 0 0 0
2019/10/28 22:29:01 BASE 12.05 281 16.46 277 -3.4 100 -3.4 39 0 973.2 NA 0.0000 -SN BR 3000 330 2130 0 0
2019/10/28 22:30:00 BASE 12.34 278 14.71 280 -3.4 100 -3.4 39 0 973.3 NA 0.0000 -SN BR 5000 330 0 0 0
2019/10/28 22:31:00 BASE 11.47 277 14.71 280 -3.4 100 -3.4 38 0 973.3 NA 0.0000 -SN BR 5000 260 0 0 0
2019/10/28 22:32:01 BASE 10.34 273 14.71 280 -3.3 100 -3.3 37 0 973.3 NA 0.0000 -SN BR 5000 230 0 0 0
2019/10/28 22:33:00 BASE 9.80 276 14.71 280 -3.3 100 -3.3 38 0 973.4 NA 0.0000 -SN BR 3900 0 0 0 1250
2019/10/28 22:34:00 BASE 11.00 282 14.71 280 -3.3 100 -3.3 38 0 973.4 NA 0.0000 -SN BR 3900 230 0 0 0
2019/10/28 22:35:00 BASE 11.35 286 14.71 280 -3.4 100 -3.4 38 0 973.4 NA 0.0000 -SN BR 5000 0 0 0 3020
2019/10/28 22:36:00 BASE 11.07 286 14.71 280 -3.4 100 -3.4 38 0 973.4 NA 0.0000 -SN BR 5000 300 0 0 0
2019/10/28 22:37:01 BASE 11.97 283 14.71 280 -3.4 100 -3.4 38 0 973.4 NA 0.0000 -SN BR 5000 330 0 0 0
2019/10/28 22:38:01 BASE 12.86 285 14.71 280 -3.4 100 -3.4 37 0 973.4 NA 0.0000 -SN BR 8000 360 2760 0 0
2019/10/28 22:39:01 BASE 11.90 287 14.61 283 -3.4 100 -3.4 37 0 973.4 NA 0.0000 -SN BR 7000 330 0 0 0
2019/10/28 22:40:00 BASE 10.79 287 14.61 283 -3.4 100 -3.4 37 0 973.5 NA 0.0000 -SN BR 8000 300 0 0 0
2019/10/28 22:41:01 BASE 10.67 285 14.61 283 -3.4 100 -3.4 37 0 973.5 NA 0.0000 -SN BR 5000 260 0 0 0
2019/10/28 22:42:01 BASE 10.55 285 14.61 283 -3.4 100 -3.4 37 0 973.5 NA 0.0000 -SN BR 3000 300 3410 0 0
2019/10/28 22:43:00 BASE 10.54 287 14.61 283 -3.4 100 -3.4 37 0 973.6 NA 0.0000 -SN BR 3000 330 0 0 0
2019/10/28 22:44:01 BASE 10.70 288 14.61 283 -3.4 100 -3.4 36 0 973.5 NA 0.0000 -SN BR 8000 330 0 0 0
2019/10/28 22:45:01 BASE 10.00 289 14.61 283 -3.4 100 -3.4 36 0 973.6 NA 0.0000 -SN BR 6000 330 3150 0 0
2019/10/28 22:46:01 BASE 10.35 292 14.61 283 -3.4 100 -3.4 34 0 973.6 NA 0.0000 -SN BR 5000 360 0 0 0
2019/10/28 22:47:01 BASE 11.26 294 14.61 283 -3.4 100 -3.4 32 0 973.6 NA 0.0000 -SN BR 9999 360 0 0 0
2019/10/28 22:48:01 BASE 11.52 293 13.12 286 -3.4 100 -3.4 32 0 973.6 NA 0.0000 -SN BR 9999 360 0 0 0
2019/10/28 22:49:00 BASE 11.24 290 13.12 286 -3.4 100 -3.4 32 0 973.6 NA 0.0000 -SN BR 9999 360 0 0 0
2019/10/28 22:50:00 BASE 11.33 287 14.82 284 -3.4 100 -3.4 33 0 973.6 NA 0.0000 -SN BR 9000 360 0 0 0
2019/10/28 22:51:00 BASE 12.25 286 14.82 284 -3.4 100 -3.4 34 0 973.6 NA 0.0000 -SN BR 9999 390 1800 0 0
2019/10/28 22:52:00 BASE 12.11 289 14.82 284 -3.4 100 -3.4 33 0 973.6 NA 0.0000 -SN BR 9999 360 0 0 0
2019/10/28 22:53:01 BASE 11.28 291 14.82 284 -3.4 100 -3.4 33 0 973.7 NA 0.0000 -SN BR 9999 390 0 0 0
2019/10/28 22:54:00 BASE 10.58 289 14.82 284 -3.4 100 -3.4 33 0 973.7 NA 0.0000 -SN BR 9999 390 1670 0 0
2019/10/28 22:55:01 BASE 10.79 287 14.82 284 -3.4 100 -3.4 32 0 973.7 NA 0.0000 -SN 9999 360 1210 0 0
2019/10/28 22:56:00 BASE 11.55 287 14.92 289 -3.4 100 -3.4 29 0 973.7 NA 0.0000 -SN 9999 360 1670 0 0
2019/10/28 22:57:01 BASE 11.55 286 14.92 289 -3.5 100 -3.5 28 0 973.7 NA 0.0000 -SN 9999 360 0 0 0
2019/10/28 22:58:01 BASE 11.26 285 14.92 289 -3.5 100 -3.5 29 0 973.7 NA 0.0000 -SN 9999 430 0 0 0
2019/10/28 22:59:00 BASE 10.89 289 14.92 289 -3.5 100 -3.5 29 0 973.7 NA 0.0000 -SN 9999 1150 0 0 0
2019/10/28 23:00:01 BASE 10.04 289 14.92 289 -3.4 100 -3.4 28 0 973.8 NA 0.0000 -SN 9999 1120 0 0 0
2019/10/28 23:01:00 BASE 9.54 290 14.92 289 -3.4 100 -3.4 27 0 973.8 NA 0.0000 -SN 9999 1050 0 0 0
2019/10/28 23:02:00 BASE 10.25 293 14.92 289 -3.4 100 -3.4 27 0 973.8 NA 0.0000 -SN 9999 1050 0 0 0
2019/10/28 23:03:00 BASE 12.37 292 15.18 295 -3.4 100 -3.4 29 0 973.7 NA 0.0000 -SN 9999 660 0 0 0
2019/10/28 23:04:00 BASE 13.32 288 16.10 280 -3.4 100 -3.4 31 0 973.8 NA 0.0000 -SN 9999 1280 0 0 0
2019/10/28 23:05:01 BASE 13.39 286 16.10 280 -3.4 100 -3.4 31 0 973.8 NA 0.0000 -SN 9999 1740 2890 0 0
2019/10/28 23:06:00 BASE 14.02 289 16.10 280 -3.5 100 -3.5 30 0 973.8 NA 0.0000 -SN 9999 1440 2330 4400 0
2019/10/28 23:07:01 BASE 13.44 289 16.10 280 -3.5 100 -3.5 29 0 973.9 NA 0.0000 -SN 9999 1480 0 0 0
2019/10/28 23:08:01 BASE 12.25 288 16.10 280 -3.5 100 -3.5 28 0 973.9 NA 0.0000 9999 1540 0 0 0
2019/10/28 23:09:01 BASE 11.80 289 16.10 280 -3.5 100 -3.5 28 0 974.0 NA 0.0000 9999 1510 2890 4070 0
2019/10/28 23:10:02 BASE 11.55 291 16.10 280 -3.5 100 -3.5 27 0 974.0 NA 0.0000 9999 1480 3710 4660 0
2019/10/28 23:11:00 BASE 12.16 290 16.10 290 -3.5 100 -3.5 25 0 973.9 NA 0.0000 9999 1540 3900 0 0
2019/10/28 23:12:01 BASE 13.16 285 16.10 290 -3.5 100 -3.5 24 0 974.0 NA 0.0000 9999 1610 3740 0 0
2019/10/28 23:13:01 BASE 13.23 283 16.10 290 -3.5 100 -3.5 23 0 974.0 NA 0.0000 9999 1480 0 0 0
2019/10/28 23:14:00 BASE 12.59 283 16.10 290 -3.5 100 -3.5 22 0 974.1 NA 0.0000 9999 1480 0 0 0
2019/10/28 23:15:00 BASE 12.05 282 16.10 290 -3.5 100 -3.5 21 0 974.1 NA 0.0000 9999 1440 0 0 0
2019/10/28 23:16:01 BASE 12.11 285 16.10 290 -3.5 100 -3.5 20 0 974.1 NA 0.0000 9999 1480 0 0 0
2019/10/28 23:17:01 BASE 11.68 286 16.10 290 -3.5 100 -3.5 19 0 974.1 NA 0.0000 9999 1480 0 0 0
2019/10/28 23:18:00 BASE 11.36 287 16.10 290 -3.5 100 -3.5 18 0 974.1 NA 0.0000 9999 1410 0 0 0
2019/10/28 23:19:00 BASE 11.98 287 16.10 290 -3.5 100 -3.5 17 0 974.1 NA 0.0000 9999 1540 0 0 0
2019/10/28 23:20:01 BASE 11.86 282 16.10 290 -3.4 100 -3.4 16 0 974.1 NA 0.0000 9999 1440 0 0 0
2019/10/28 23:21:00 BASE 11.42 282 15.12 274 -3.4 100 -3.4 16 0 974.2 NA 0.0000 9999 1410 0 0 0
2019/10/28 23:22:00 BASE 11.38 284 15.12 274 -3.4 100 -3.4 15 0 974.2 NA 0.0000 9999 1480 0 0 0
2019/10/28 23:23:01 BASE 11.17 285 15.12 274 -3.4 100 -3.4 15 0 974.2 NA 0.0000 9999 1410 0 0 0
2019/10/28 23:24:01 BASE 12.41 284 15.38 290 -3.4 100 -3.4 15 0 974.1 NA 0.0000 9999 1380 2030 0 0
2019/10/28 23:25:01 BASE 13.04 285 15.38 290 -3.4 100 -3.4 14 0 974.2 NA 0.0000 9999 1740 2260 0 0
2019/10/28 23:26:00 BASE 12.70 282 15.38 290 -3.4 100 -3.4 14 0 974.2 NA 0.0000 9999 1610 2230 0 0
2019/10/28 23:27:02 BASE 13.75 282 16.77 298 -3.4 100 -3.4 13 0 974.2 NA 0.0000 9999 1380 0 0 0
2019/10/28 23:28:00 BASE 14.68 281 16.77 275 -3.4 100 -3.4 13 0 974.2 NA 0.0000 9999 1480 0 0 0
2019/10/28 23:29:01 BASE 13.83 280 16.77 275 -3.4 100 -3.4 13 0 974.2 NA 0.0000 9999 1350 2460 0 0
2019/10/28 23:30:00 BASE 12.78 282 16.77 275 -3.4 100 -3.4 12 0 974.3 NA 0.0000 9999 1710 2360 0 0
2019/10/28 23:31:00 BASE 12.10 282 16.77 275 -3.4 100 -3.4 11 0 974.3 NA 0.0000 9999 1440 0 0 0
2019/10/28 23:32:00 BASE 11.53 284 16.77 275 -3.4 100 -3.4 10 0 974.3 NA 0.0000 9999 1570 2590 0 0
2019/10/28 23:33:01 BASE 11.27 284 16.77 275 -3.4 100 -3.4 9 0 974.3 NA 0.0000 9999 1440 0 0 0
2019/10/28 23:34:01 BASE 10.37 284 16.77 275 -3.4 100 -3.4 9 0 974.3 NA 0.0000 9999 1380 0 0 0
2019/10/28 23:35:01 BASE 10.29 283 16.77 275 -3.4 100 -3.4 9 0 974.4 NA 0.0000 9999 1350 0 0 0
2019/10/28 23:36:00 BASE 11.30 282 16.77 275 -3.4 100 -3.4 9 0 974.3 NA 0.0000 9999 1510 2200 0 0
2019/10/28 23:37:01 BASE 12.00 279 16.77 275 -3.4 100 -3.4 9 0 974.4 NA 0.0000 9999 1740 4490 5450 0
2019/10/28 23:38:00 BASE 12.94 279 14.92 279 -3.4 100 -3.4 8 0 974.3 NA 0.0000 9999 1970 0 0 0
2019/10/28 23:39:00 BASE 13.92 278 16.26 281 -3.4 100 -3.4 8 0 974.4 NA 0.0000 9999 1710 4400 0 0
2019/10/28 23:40:00 BASE 13.87 275 16.51 275 -3.3 100 -3.3 8 0 974.4 NA 0.0000 9999 1440 0 0 0
2019/10/28 23:41:01 BASE 13.84 277 16.51 275 -3.3 100 -3.3 7 0 974.4 NA 0.0000 9999 1710 4790 0 0
2019/10/28 23:42:00 BASE 12.54 282 16.51 275 -3.3 100 -3.3 7 0 974.5 NA 0.0000 9999 1610 4130 0 0
2019/10/28 23:43:00 BASE 12.41 283 16.51 275 -3.3 100 -3.3 7 0 974.4 NA 0.0000 9999 1840 3940 0 0
2019/10/28 23:44:00 BASE 11.80 283 16.51 275 -3.3 100 -3.3 6 0 974.5 NA 0.0000 9999 4000 0 0 0
2019/10/28 23:45:00 BASE 10.82 285 16.51 275 -3.3 100 -3.3 6 0 974.5 NA 0.0000 9999 1800 0 0 0
2019/10/28 23:46:00 BASE 11.87 282 16.51 275 -3.3 100 -3.3 6 0 974.5 NA 0.0000 9999 4230 0 0 0
2019/10/28 23:47:01 BASE 12.04 279 16.51 275 -3.3 100 -3.3 5 0 974.6 NA 0.0000 9999 1510 2950 0 0
2019/10/28 23:48:01 BASE 12.22 279 16.51 275 -3.3 100 -3.3 5 0 974.6 NA 0.0000 9999 4100 0 0 0
2019/10/28 23:49:01 BASE 10.88 284 16.51 275 -3.3 100 -3.3 5 0 974.6 NA 0.0000 9999 2850 4490 0 0
2019/10/28 23:50:00 BASE 10.91 292 16.05 277 -3.3 100 -3.3 5 0 974.6 NA 0.0000 9999 1510 2820 0 0
2019/10/28 23:51:01 BASE 11.95 291 15.90 280 -3.3 100 -3.3 4 0 974.6 NA 0.0000 9999 1900 2620 0 0
2019/10/28 23:52:00 BASE 10.74 286 15.90 280 -3.3 100 -3.3 4 0 974.6 NA 0.0000 9999 2300 0 0 0
2019/10/28 23:53:00 BASE 10.35 285 13.58 284 -3.3 100 -3.3 4 0 974.7 NA 0.0000 9999 2000 0 0 0
2019/10/28 23:54:00 BASE 11.82 284 13.89 280 -3.3 100 -3.3 4 0 974.6 NA 0.0000 9999 1740 0 0 0
2019/10/28 23:55:01 BASE 12.80 283 13.89 286 -3.3 100 -3.3 3 0 974.6 NA 0.0000 9999 1540 0 0 0
2019/10/28 23:56:01 BASE 12.46 283 13.89 286 -3.3 100 -3.3 3 0 974.7 NA 0.0000 9999 1800 0 0 0
2019/10/28 23:57:01 BASE 11.29 282 13.89 286 -3.3 100 -3.3 3 0 974.7 NA 0.0000 9999 1670 0 0 0
2019/10/28 23:58:01 BASE 9.70 282 13.89 286 -3.2 100 -3.2 3 0 974.7 NA 0.0000 9999 1540 0 0 0
2019/10/28 23:59:01 BASE 9.76 286 13.89 286 -3.2 100 -3.2 3 0 974.7 NA 0.0000 9999 1480 0 0 0